[[{"header":{"parameterUnit":"m.s-1","parameterCategory":1,"la1":31.0,"la2":29.5877,"lo1":-88.7671,"lo2":-86.6584,"dy":0.0162,"dx":0.0185,"nx":115,"ny":88,"refTime":"2023-05-03T06:00:00:Z","depth":0,"parameterNumber":2,"parameterNumberName":"U-component_of_WINDS"},"data":[0.0,0.0,0.0,0.0,0.0,0.0,0.0,0.0,0.0,0.0,0.0,0.0,0.0,0.0,0.0,0.0,0.0,0.0,0.0,0.0,0.0,0.0,0.0,0.0,0.0,0.0,0.0,0.0,0.0,0.0,0.0,0.0,0.0,0.0,0.0,0.0,0.0,0.0,0.0,0.0,0.0,0.0,0.0,0.0,0.0,0.0,0.0,0.0,0.0,0.0,0.0,0.0,0.0,0.0,0.0,0.0,0.0,0.0,0.0,0.0,0.0,0.0,0.0,0.0,0.0,0.0,0.0,0.0,0.0,0.0,0.0,0.0,0.0,0.0,0.0,0.0,0.0,0.0,0.0,0.0,0.0,0.0,0.0,0.0,0.0,0.0,0.0,0.0,0.0,0.0,0.0,0.0,0.0,0.0,0.0,0.0,0.0,0.0,0.0,0.0,0.0,0.0,0.0,0.0,0.0,0.0,0.0,0.0,0.0,0.0,0.0,0.0,0.0,0.0,0.0,0.0,0.0,0.0,0.0,0.0,0.0,0.0,0.0,0.0,0.0,0.0,0.0,0.0,0.0,0.0,0.0,0.0,0.0,0.0,0.0,0.0,0.0,0.0,0.0,0.0,0.0,0.0,0.0,0.0,0.0,0.0,0.0,0.0,0.0,0.0,0.0,0.0,0.0,0.0,0.0,0.0,0.0,0.0,0.0,0.0,0.0,0.0,0.0,0.0,0.0,0.0,0.0,0.0,0.0,0.0,0.0,0.0,0.0,0.0,0.0,0.0,0.0,0.0,0.0,0.0,0.0,0.0,0.0,0.0,0.0,0.0,0.0,0.0,0.0,0.0,0.0,0.0,0.0,0.0,0.0,0.0,0.0,0.0,0.0,0.0,0.0,0.0,0.0,0.0,0.0,0.0,0.0,0.0,0.0,0.0,0.0,0.0,0.0,0.0,0.0,0.0,0.0,0.0,0.0,0.0,0.0,0.0,0.0,0.0,0.0,0.0,0.0,0.0,0.0,0.0,0.0,0.0,0.0,0.0,0.0,0.0,0.0,0.0,0.0,0.0,0.0,0.0,0.0,0.0,0.0,0.0,0.0,0.0,0.0,0.0,0.0,0.0,0.0,0.0,0.0,0.0,0.0,0.0,0.0,0.0,0.0,0.0,0.0,0.0,0.0,0.0,0.0,0.0,0.0,0.0,0.0,0.0,0.0,0.0,0.0,0.0,0.0,0.0,0.0,0.0,0.0,0.0,0.0,0.0,0.0,0.0,0.0,0.0,0.0,0.0,0.0,0.0,0.0,0.0,0.0,0.0,0.0,0.0,0.0,0.0,0.0,0.0,0.0,0.0,0.0,0.0,0.0,0.0,0.0,0.0,0.0,0.0,0.0,0.0,0.0,0.0,0.0,0.0,0.0,0.0,0.0,0.0,0.0,0.0,0.0,0.0,0.0,0.0,0.0,0.0,0.0,0.0,0.0,0.0,0.0,0.0,0.0,0.0,0.0,0.0,0.0,0.0,0.0,0.0,0.0,0.0,0.0,0.0,0.0,0.0,0.0,0.0,0.0,0.0,0.0,0.0,0.0,0.0,0.0,0.0,0.0,0.0,0.0,0.0,0.0,0.0,0.0,0.0,0.0,0.0,0.0,0.0,0.0,0.0,0.0,0.0,0.0,0.0,0.0,0.0,0.0,0.0,0.0,0.0,0.0,0.0,0.0,0.0,0.0,0.0,0.0,0.0,0.0,0.0,0.0,0.0,0.0,0.0,0.0,0.0,0.0,0.0,0.0,0.0,0.0,0.0,0.0,0.0,0.0,0.0,0.0,0.0,0.0,0.0,0.0,0.0,0.0,0.0,0.0,0.0,0.0,0.0,0.0,0.0,0.0,0.0,0.0,0.0,0.0,0.0,0.0,0.0,0.0,0.0,0.0,0.0,0.0,0.0,0.0,0.0,0.0,0.0,0.0,0.0,0.0,0.0,0.0,0.0,0.0,0.0,0.0,0.0,0.0,0.0,0.0,0.0,0.0,0.0,0.0,0.0,0.0,0.0,0.0,0.0,0.0,0.0,0.0,0.0,0.0,0.0,0.0,0.0,0.0,0.0,0.0,0.0,0.0,0.0,0.0,0.0,0.0,0.0,0.0,0.0,0.0,0.0,0.0,0.0,0.0,0.0,0.0,0.0,0.0,0.0,0.0,0.0,0.0,0.0,0.0,0.0,0.0,0.0,0.0,0.0,0.0,0.0,0.0,0.0,0.0,0.0,0.0,0.0,0.0,0.0,0.0,0.0,0.0,0.0,0.0,0.0,0.0,0.0,0.0,0.0,0.0,0.0,0.0,0.0,0.0,0.0,0.0,0.0,0.0,0.0,0.0,0.0,0.0,0.0,0.0,0.0,0.0,0.0,0.0,0.0,0.0,0.0,0.0,0.0,0.0,0.0,0.0,0.0,0.0,0.0,0.0,0.0,0.0,0.0,0.0,0.0,0.0,0.0,0.0,0.0,0.0,0.0,0.0,0.0,0.0,0.0,0.0,0.0,0.0,0.0,0.0,0.0,0.0,0.0,0.0,0.0,0.0,0.0,0.0,0.0,0.0,0.0,0.0,0.0,0.0,0.0,0.0,0.0,0.0,0.0,0.0,0.0,0.0,0.0,0.0,0.0,0.0,0.0,0.0,0.0,0.0,0.0,0.0,0.0,0.0,0.0,0.0,0.0,0.0,0.0,0.0,0.0,0.0,0.0,0.0,0.0,0.0,0.0,0.0,0.0,0.0,0.0,0.0,0.0,0.0,0.0,0.0,0.0,0.0,0.0,0.0,0.0,0.0,0.0,0.0,0.0,0.0,0.0,0.0,0.0,0.0,0.0,0.0,0.0,0.0,0.0,0.0,0.0,0.0,0.0,0.0,0.0,0.0,0.0,0.0,0.0,0.0,0.0,0.0,0.0,0.0,0.0,0.0,0.0,0.0,0.0,0.0,0.0,0.0,0.0,0.0,0.0,0.0,0.0,0.0,0.0,0.0,0.0,0.0,0.0,0.0,0.0,0.0,0.0,0.0,0.0,0.0,0.0,0.0,0.0,0.0,0.0,0.0,0.0,0.0,0.0,0.0,0.0,0.0,0.0,0.0,0.0,0.0,0.0,0.0,0.0,0.0,0.0,0.0,0.0,0.0,0.0,0.0,0.0,0.0,0.0,0.0,0.0,0.0,0.0,0.0,0.0,0.0,0.0,0.0,0.0,0.0,0.0,0.0,0.0,0.0,0.0,0.0,0.0,0.0,0.0,0.0,0.0,0.0,0.0,0.0,0.0,0.0,0.0,0.0,0.0,0.0,0.0,0.0,0.0,0.0,0.0,0.0,0.0,0.0,0.0,0.0,0.0,0.0,0.0,0.0,0.0,0.0,0.0,0.0,0.0,0.0,0.0,0.0,0.0,0.0,0.0,0.0,0.0,0.0,0.0,0.0,0.0,0.0,0.0,0.0,0.0,0.0,0.0,0.0,0.0,0.0,0.0,0.0,0.0,0.0,0.0,0.0,0.0,0.0,0.0,0.0,0.0,0.0,0.0,0.0,0.0,0.0,0.0,0.0,0.0,0.0,0.0,0.0,0.0,0.0,0.0,0.0,0.0,0.0,0.0,0.0,0.0,0.0,0.0,0.0,0.0,0.0,0.0,0.0,0.0,0.0,0.0,0.0,0.0,0.0,0.0,0.0,0.0,0.0,0.0,0.0,0.0,0.0,0.0,0.0,0.0,0.0,0.0,0.0,0.0,0.0,0.0,0.0,0.0,0.0,0.0,0.0,0.0,0.0,0.0,0.0,0.0,0.0,0.0,0.0,0.0,0.0,0.0,0.0,0.0,0.0,0.0,0.0,0.0,0.0,0.0,0.0,0.0,0.0,0.0,0.0,0.0,0.0,0.0,0.0,0.0,0.0,0.0,0.0,0.0,0.0,0.0,0.0,0.0,0.0,0.0,0.0,0.0,0.0,0.0,0.0,0.0,0.0,0.0,0.0,0.0,0.0,0.0,0.0,0.0,0.0,0.0,0.0,0.0,0.0,0.0,0.0,0.0,0.0,0.0,0.0,0.0,0.0,0.0,0.0,0.0,0.0,0.0,0.0,0.0,0.0,0.0,0.0,0.0,0.0,0.0,0.0,0.0,0.0,0.0,0.0,0.0,0.0,0.0,0.0,0.0,0.0,0.0,0.0,0.0,0.0,0.0,0.0,0.0,0.0,0.0,0.0,0.0,0.0,0.0,0.0,0.0,0.0,0.0,0.0,0.0,-2.8034,0.0,0.0,0.0,0.0,0.0,0.0,0.0,0.0,0.0,0.0,0.0,0.0,0.0,0.0,0.0,0.0,0.0,0.0,0.0,0.0,0.0,0.0,0.0,0.0,0.0,0.0,0.0,0.0,0.0,0.0,0.0,0.0,0.0,0.0,0.0,0.0,0.0,0.0,0.0,0.0,0.0,0.0,0.0,0.0,0.0,0.0,0.0,0.0,0.0,0.0,0.0,0.0,0.0,0.0,0.0,0.0,0.0,0.0,0.0,0.0,0.0,0.0,0.0,0.0,0.0,0.0,0.0,0.0,0.0,0.0,0.0,0.0,0.0,0.0,0.0,0.0,0.0,0.0,0.0,0.0,0.0,0.0,0.0,0.0,0.0,0.0,0.0,0.0,0.0,0.0,0.0,0.0,0.0,0.0,0.0,0.0,0.0,0.0,0.0,0.0,0.0,0.0,0.0,0.0,0.0,0.0,0.0,0.0,0.0,0.0,-2.8718,-2.8669,-2.8391,-2.8273,-2.8242,0.0,0.0,0.0,0.0,0.0,0.0,0.0,0.0,0.0,0.0,0.0,0.0,0.0,0.0,0.0,0.0,0.0,0.0,0.0,0.0,0.0,0.0,0.0,0.0,0.0,0.0,0.0,0.0,0.0,0.0,0.0,0.0,0.0,0.0,0.0,0.0,0.0,0.0,0.0,0.0,0.0,0.0,0.0,0.0,0.0,0.0,0.0,0.0,0.0,0.0,0.0,0.0,0.0,0.0,0.0,0.0,0.0,0.0,0.0,0.0,0.0,0.0,0.0,0.0,0.0,0.0,0.0,0.0,0.0,0.0,0.0,0.0,0.0,0.0,0.0,0.0,0.0,0.0,0.0,0.0,0.0,0.0,0.0,0.0,0.0,0.0,0.0,0.0,0.0,0.0,0.0,0.0,0.0,0.0,0.0,0.0,0.0,0.0,0.0,0.0,0.0,0.0,0.0,0.0,0.0,0.0,0.0,0.0,0.0,0.0,0.0,0.0,-2.8614,-2.8448,-2.8383,0.0,0.0,0.0,0.0,0.0,0.0,0.0,0.0,0.0,0.0,0.0,0.0,0.0,0.0,0.0,0.0,0.0,0.0,0.0,0.0,0.0,0.0,0.0,0.0,0.0,0.0,0.0,0.0,0.0,0.0,0.0,0.0,0.0,0.0,0.0,0.0,0.0,0.0,0.0,0.0,0.0,0.0,0.0,0.0,0.0,0.0,0.0,0.0,0.0,0.0,0.0,0.0,0.0,0.0,0.0,0.0,0.0,0.0,0.0,0.0,0.0,0.0,0.0,0.0,0.0,0.0,0.0,0.0,0.0,0.0,0.0,0.0,0.0,0.0,0.0,0.0,0.0,0.0,0.0,0.0,0.0,0.0,0.0,0.0,0.0,0.0,0.0,0.0,0.0,0.0,0.0,0.0,0.0,0.0,0.0,0.0,0.0,0.0,0.0,0.0,0.0,0.0,0.0,0.0,0.0,0.0,0.0,0.0,0.0,0.0,-2.9067,-2.9067,-2.8875,0.0,-2.8427,0.0,0.0,0.0,0.0,0.0,0.0,0.0,0.0,0.0,0.0,0.0,0.0,0.0,0.0,0.0,0.0,0.0,0.0,0.0,0.0,0.0,0.0,0.0,0.0,0.0,0.0,0.0,0.0,0.0,0.0,0.0,0.0,0.0,0.0,0.0,0.0,0.0,0.0,0.0,0.0,0.0,0.0,0.0,0.0,0.0,0.0,0.0,0.0,0.0,0.0,0.0,0.0,0.0,0.0,0.0,0.0,0.0,0.0,0.0,0.0,0.0,0.0,0.0,0.0,0.0,0.0,0.0,0.0,0.0,0.0,0.0,0.0,0.0,0.0,0.0,0.0,0.0,0.0,0.0,0.0,0.0,0.0,0.0,0.0,0.0,0.0,0.0,0.0,0.0,0.0,0.0,0.0,0.0,0.0,0.0,0.0,0.0,0.0,0.0,0.0,0.0,0.0,0.0,0.0,0.0,0.0,0.0,0.0,0.0,0.0,-2.9051,-2.904,-2.8952,-2.8803,0.0,0.0,0.0,0.0,0.0,0.0,0.0,0.0,0.0,0.0,0.0,0.0,0.0,0.0,0.0,0.0,0.0,0.0,0.0,0.0,0.0,0.0,0.0,0.0,0.0,0.0,0.0,0.0,0.0,0.0,0.0,0.0,0.0,0.0,0.0,0.0,0.0,0.0,0.0,0.0,0.0,0.0,0.0,0.0,0.0,0.0,0.0,0.0,0.0,0.0,0.0,0.0,0.0,0.0,0.0,0.0,0.0,0.0,0.0,0.0,0.0,0.0,0.0,0.0,0.0,0.0,0.0,0.0,0.0,0.0,0.0,0.0,0.0,0.0,0.0,0.0,0.0,0.0,0.0,0.0,0.0,0.0,0.0,0.0,0.0,0.0,0.0,0.0,0.0,0.0,0.0,0.0,0.0,0.0,0.0,0.0,0.0,0.0,0.0,0.0,0.0,0.0,0.0,0.0,0.0,0.0,0.0,0.0,0.0,0.0,-2.9028,-2.9028,-2.9028,-2.9028,-2.8959,-2.8798,0.0,0.0,0.0,0.0,0.0,0.0,0.0,0.0,0.0,0.0,0.0,0.0,0.0,0.0,0.0,0.0,0.0,0.0,0.0,0.0,0.0,0.0,0.0,0.0,0.0,0.0,0.0,0.0,0.0,0.0,0.0,0.0,0.0,0.0,0.0,0.0,0.0,0.0,0.0,0.0,0.0,0.0,0.0,0.0,0.0,0.0,0.0,0.0,0.0,0.0,0.0,0.0,0.0,0.0,0.0,0.0,0.0,0.0,0.0,0.0,0.0,0.0,0.0,0.0,0.0,0.0,0.0,0.0,0.0,0.0,0.0,0.0,0.0,0.0,0.0,0.0,0.0,0.0,0.0,0.0,0.0,0.0,0.0,0.0,0.0,0.0,0.0,0.0,0.0,0.0,0.0,0.0,0.0,0.0,0.0,0.0,0.0,0.0,0.0,0.0,0.0,0.0,0.0,0.0,0.0,0.0,0.0,0.0,-2.9078,-2.9078,-2.9078,-2.9089,-2.9089,-2.9074,0.0,0.0,0.0,0.0,0.0,0.0,0.0,0.0,0.0,0.0,0.0,0.0,0.0,0.0,0.0,0.0,0.0,0.0,0.0,0.0,0.0,0.0,0.0,0.0,0.0,0.0,0.0,0.0,0.0,0.0,0.0,0.0,0.0,0.0,0.0,0.0,0.0,0.0,0.0,0.0,0.0,0.0,0.0,0.0,0.0,0.0,0.0,0.0,0.0,0.0,0.0,0.0,0.0,0.0,0.0,0.0,0.0,0.0,0.0,0.0,0.0,0.0,0.0,0.0,0.0,0.0,0.0,0.0,0.0,0.0,0.0,0.0,0.0,0.0,0.0,0.0,0.0,0.0,0.0,0.0,0.0,0.0,0.0,0.0,0.0,0.0,0.0,0.0,0.0,0.0,0.0,0.0,0.0,0.0,0.0,0.0,0.0,0.0,0.0,0.0,0.0,0.0,0.0,0.0,0.0,0.0,0.0,0.0,0.0,-2.9021,-2.9021,-2.904,-2.904,-2.904,-2.9028,0.0,0.0,0.0,0.0,0.0,0.0,0.0,0.0,0.0,0.0,0.0,0.0,0.0,0.0,0.0,0.0,0.0,0.0,0.0,0.0,0.0,0.0,0.0,0.0,0.0,0.0,0.0,0.0,0.0,0.0,0.0,0.0,0.0,0.0,0.0,0.0,0.0,0.0,0.0,0.0,0.0,0.0,0.0,0.0,0.0,0.0,0.0,0.0,0.0,0.0,0.0,0.0,0.0,0.0,0.0,0.0,0.0,0.0,0.0,0.0,0.0,0.0,0.0,0.0,0.0,0.0,0.0,0.0,0.0,0.0,0.0,0.0,0.0,0.0,0.0,0.0,0.0,0.0,0.0,0.0,0.0,0.0,0.0,0.0,0.0,0.0,0.0,0.0,0.0,0.0,0.0,0.0,0.0,0.0,0.0,0.0,0.0,0.0,0.0,0.0,0.0,0.0,0.0,0.0,0.0,0.0,0.0,0.0,0.0,-2.904,0.0,-2.9044,-2.901,-2.9021,-2.9028,0.0,0.0,0.0,0.0,0.0,0.0,0.0,0.0,0.0,0.0,0.0,0.0,0.0,0.0,0.0,0.0,0.0,0.0,0.0,0.0,0.0,0.0,0.0,0.0,0.0,0.0,0.0,0.0,0.0,0.0,0.0,0.0,0.0,0.0,0.0,0.0,0.0,0.0,0.0,0.0,0.0,0.0,0.0,0.0,0.0,0.0,0.0,0.0,0.0,0.0,0.0,0.0,0.0,0.0,0.0,0.0,0.0,0.0,0.0,0.0,0.0,0.0,0.0,0.0,0.0,0.0,0.0,0.0,0.0,0.0,0.0,0.0,0.0,0.0,0.0,0.0,0.0,0.0,0.0,0.0,0.0,0.0,0.0,0.0,0.0,0.0,0.0,0.0,0.0,0.0,0.0,0.0,0.0,0.0,0.0,0.0,0.0,0.0,0.0,0.0,0.0,0.0,0.0,0.0,0.0,0.0,0.0,0.0,-2.9028,-2.9108,-2.9175,-2.9163,-2.9108,-2.9108,-2.9074,0.0,0.0,0.0,0.0,0.0,0.0,0.0,0.0,0.0,0.0,0.0,0.0,0.0,0.0,0.0,0.0,0.0,0.0,0.0,0.0,0.0,0.0,0.0,0.0,0.0,0.0,0.0,0.0,0.0,0.0,0.0,0.0,0.0,0.0,0.0,0.0,0.0,0.0,0.0,0.0,0.0,0.0,0.0,0.0,0.0,0.0,0.0,0.0,0.0,0.0,0.0,0.0,0.0,0.0,0.0,0.0,0.0,0.0,0.0,0.0,0.0,0.0,0.0,0.0,0.0,0.0,0.0,0.0,0.0,0.0,0.0,0.0,0.0,0.0,0.0,0.0,0.0,0.0,0.0,0.0,0.0,0.0,0.0,0.0,0.0,0.0,0.0,0.0,0.0,0.0,0.0,0.0,0.0,0.0,0.0,0.0,0.0,0.0,0.0,0.0,0.0,0.0,0.0,0.0,0.0,0.0,0.0,0.0,0.0,-2.904,-2.9051,-2.932,-2.9823,-2.9333,-2.9285,0.0,0.0,0.0,0.0,0.0,0.0,0.0,0.0,0.0,0.0,0.0,0.0,0.0,0.0,0.0,0.0,0.0,0.0,0.0,0.0,0.0,0.0,0.0,0.0,0.0,0.0,0.0,0.0,0.0,0.0,0.0,0.0,0.0,0.0,0.0,0.0,0.0,0.0,0.0,0.0,0.0,0.0,0.0,0.0,0.0,0.0,0.0,0.0,0.0,0.0,0.0,0.0,0.0,0.0,0.0,0.0,0.0,0.0,0.0,0.0,0.0,0.0,0.0,0.0,0.0,0.0,0.0,0.0,0.0,0.0,0.0,0.0,0.0,0.0,0.0,0.0,0.0,0.0,0.0,0.0,0.0,0.0,0.0,0.0,0.0,0.0,0.0,0.0,0.0,0.0,0.0,0.0,0.0,0.0,0.0,0.0,0.0,0.0,0.0,0.0,0.0,0.0,0.0,0.0,0.0,0.0,0.0,0.0,0.0,-2.9886,-2.961,-2.9684,-3.0191,-2.9702,-2.9537,-2.9721,0.0,0.0,0.0,0.0,0.0,0.0,0.0,0.0,0.0,0.0,0.0,0.0,0.0,0.0,0.0,0.0,0.0,0.0,0.0,0.0,0.0,0.0,0.0,0.0,0.0,0.0,0.0,0.0,0.0,0.0,0.0,0.0,0.0,0.0,0.0,0.0,0.0,0.0,0.0,0.0,0.0,0.0,0.0,0.0,0.0,0.0,0.0,0.0,0.0,0.0,0.0,0.0,0.0,0.0,0.0,0.0,0.0,0.0,0.0,0.0,0.0,0.0,0.0,0.0,0.0,0.0,0.0,0.0,0.0,0.0,0.0,0.0,0.0,0.0,0.0,0.0,0.0,0.0,0.0,0.0,0.0,0.0,0.0,0.0,0.0,0.0,0.0,0.0,0.0,0.0,0.0,0.0,0.0,0.0,0.0,0.0,0.0,0.0,0.0,0.0,0.0,0.0,0.0,0.0,0.0,0.0,0.0,0.0,-3.147,-3.0815,-3.0467,-3.0448,-3.0338,-2.9922,0.0,0.0,0.0,0.0,0.0,0.0,0.0,0.0,0.0,0.0,0.0,0.0,0.0,0.0,0.0,0.0,0.0,0.0,0.0,0.0,0.0,0.0,0.0,0.0,0.0,0.0,0.0,0.0,0.0,0.0,0.0,0.0,0.0,0.0,0.0,0.0,0.0,0.0,0.0,0.0,0.0,0.0,0.0,0.0,0.0,0.0,0.0,0.0,0.0,0.0,0.0,0.0,0.0,0.0,0.0,0.0,0.0,0.0,0.0,0.0,0.0,0.0,0.0,0.0,0.0,0.0,0.0,0.0,0.0,0.0,0.0,0.0,0.0,0.0,0.0,0.0,0.0,0.0,0.0,0.0,0.0,0.0,0.0,0.0,0.0,0.0,0.0,0.0,0.0,0.0,0.0,0.0,0.0,0.0,0.0,0.0,0.0,0.0,0.0,0.0,0.0,0.0,0.0,0.0,0.0,0.0,0.0,0.0,0.0,-3.2284,-3.3225,-3.3445,-3.2871,-3.1696,-3.098,0.0,0.0,0.0,0.0,0.0,0.0,0.0,0.0,0.0,0.0,0.0,0.0,0.0,0.0,0.0,0.0,0.0,0.0,0.0,0.0,0.0,0.0,0.0,0.0,0.0,0.0,0.0,0.0,0.0,0.0,0.0,0.0,0.0,0.0,0.0,0.0,0.0,0.0,0.0,0.0,0.0,0.0,0.0,0.0,0.0,0.0,0.0,0.0,0.0,0.0,0.0,0.0,0.0,0.0,0.0,0.0,0.0,0.0,0.0,0.0,0.0,0.0,0.0,0.0,0.0,0.0,0.0,0.0,0.0,0.0,0.0,0.0,0.0,0.0,0.0,0.0,0.0,0.0,0.0,0.0,0.0,0.0,0.0,0.0,0.0,0.0,0.0,0.0,0.0,0.0,0.0,0.0,0.0,0.0,0.0,0.0,0.0,0.0,0.0,0.0,0.0,0.0,0.0,0.0,0.0,0.0,0.0,0.0,-3.2284,-3.3078,-3.4692,-3.5495,-3.5344,-3.3435,-3.1916,0.0,0.0,0.0,0.0,0.0,0.0,0.0,0.0,0.0,0.0,0.0,0.0,0.0,0.0,0.0,0.0,0.0,0.0,0.0,0.0,0.0,0.0,0.0,0.0,0.0,0.0,0.0,0.0,0.0,0.0,0.0,0.0,0.0,0.0,0.0,0.0,0.0,0.0,0.0,0.0,0.0,0.0,0.0,0.0,0.0,0.0,0.0,0.0,0.0,0.0,0.0,0.0,0.0,0.0,0.0,0.0,0.0,0.0,0.0,0.0,0.0,0.0,0.0,0.0,0.0,0.0,0.0,0.0,0.0,0.0,0.0,0.0,0.0,0.0,0.0,0.0,0.0,0.0,0.0,0.0,0.0,0.0,0.0,0.0,0.0,0.0,0.0,0.0,0.0,0.0,0.0,0.0,0.0,0.0,0.0,0.0,0.0,0.0,0.0,0.0,0.0,0.0,0.0,0.0,0.0,0.0,0.0,0.0,-3.3167,-3.397,-3.5698,-3.6879,-3.7401,-3.5073,-3.2761,0.0,0.0,0.0,0.0,0.0,0.0,0.0,0.0,0.0,0.0,0.0,0.0,0.0,0.0,0.0,0.0,0.0,0.0,0.0,0.0,0.0,0.0,0.0,0.0,0.0,0.0,0.0,0.0,0.0,0.0,0.0,0.0,0.0,0.0,0.0,0.0,0.0,0.0,0.0,0.0,0.0,0.0,0.0,0.0,0.0,0.0,0.0,0.0,0.0,0.0,0.0,0.0,0.0,0.0,0.0,0.0,0.0,0.0,0.0,0.0,0.0,0.0,0.0,0.0,0.0,0.0,0.0,0.0,0.0,0.0,0.0,0.0,0.0,0.0,0.0,0.0,0.0,0.0,0.0,0.0,0.0,0.0,0.0,0.0,0.0,0.0,0.0,0.0,0.0,0.0,0.0,0.0,0.0,0.0,0.0,0.0,0.0,0.0,0.0,0.0,0.0,0.0,0.0,0.0,0.0,0.0,0.0,0.0,-3.4241,-3.5087,-3.7298,-3.8182,-3.7507,-3.5092,-3.3275,0.0,0.0,0.0,0.0,0.0,0.0,0.0,0.0,0.0,0.0,0.0,0.0,0.0,0.0,0.0,0.0,0.0,0.0,0.0,0.0,0.0,0.0,0.0,0.0,0.0,0.0,0.0,0.0,0.0,0.0,0.0,0.0,0.0,0.0,0.0,0.0,0.0,0.0,0.0,0.0,0.0,0.0,0.0,0.0,0.0,0.0,0.0,0.0,-2.9982,0.0,0.0,0.0,0.0,0.0,0.0,0.0,0.0,0.0,0.0,0.0,0.0,0.0,0.0,0.0,0.0,0.0,0.0,0.0,0.0,0.0,0.0,0.0,0.0,0.0,0.0,0.0,0.0,0.0,0.0,0.0,0.0,0.0,0.0,0.0,0.0,0.0,0.0,0.0,0.0,0.0,0.0,0.0,0.0,0.0,0.0,0.0,0.0,0.0,0.0,0.0,0.0,0.0,0.0,0.0,0.0,0.0,0.0,0.0,-3.4341,-3.5588,-3.7495,-3.8438,-3.819,-3.6113,-3.4229,0.0,0.0,0.0,0.0,0.0,0.0,0.0,0.0,0.0,0.0,0.0,0.0,0.0,0.0,0.0,0.0,0.0,0.0,0.0,0.0,0.0,0.0,0.0,0.0,0.0,0.0,0.0,0.0,0.0,0.0,0.0,0.0,0.0,0.0,0.0,0.0,0.0,0.0,0.0,0.0,0.0,0.0,0.0,0.0,0.0,0.0,0.0,0.0,0.0,0.0,0.0,0.0,0.0,0.0,0.0,0.0,0.0,0.0,0.0,0.0,0.0,0.0,0.0,0.0,0.0,0.0,0.0,0.0,0.0,0.0,0.0,0.0,0.0,0.0,0.0,0.0,0.0,0.0,0.0,0.0,0.0,0.0,0.0,0.0,0.0,0.0,0.0,0.0,0.0,0.0,0.0,0.0,0.0,0.0,0.0,0.0,0.0,0.0,0.0,0.0,0.0,0.0,0.0,0.0,0.0,0.0,0.0,-3.2639,-3.4346,-3.599,-3.7281,-3.8338,-3.9045,-3.7284,-3.5275,-3.3078,0.0,0.0,0.0,0.0,0.0,0.0,0.0,0.0,0.0,0.0,0.0,0.0,0.0,0.0,0.0,0.0,0.0,0.0,0.0,0.0,0.0,0.0,0.0,0.0,0.0,0.0,0.0,0.0,0.0,0.0,0.0,0.0,0.0,0.0,0.0,0.0,0.0,0.0,-2.9232,-2.9262,0.0,0.0,0.0,0.0,0.0,0.0,0.0,0.0,-2.9887,0.0,0.0,0.0,0.0,0.0,0.0,0.0,0.0,0.0,0.0,0.0,0.0,0.0,0.0,0.0,0.0,0.0,0.0,0.0,0.0,0.0,0.0,0.0,0.0,0.0,0.0,0.0,0.0,0.0,0.0,0.0,0.0,0.0,0.0,0.0,0.0,0.0,0.0,0.0,0.0,0.0,0.0,0.0,0.0,0.0,0.0,0.0,0.0,0.0,0.0,0.0,0.0,0.0,0.0,0.0,0.0,-3.2089,-3.3781,-3.5428,-3.7016,-3.7826,-3.8515,-3.904,-3.7302,-3.5771,-3.4601,0.0,0.0,0.0,0.0,0.0,0.0,0.0,0.0,0.0,0.0,0.0,0.0,0.0,0.0,0.0,0.0,0.0,0.0,0.0,0.0,0.0,0.0,0.0,0.0,0.0,0.0,0.0,0.0,0.0,0.0,0.0,0.0,0.0,0.0,0.0,0.0,0.0,0.0,0.0,-2.9167,-2.9474,0.0,0.0,0.0,0.0,0.0,0.0,0.0,0.0,-3.0459,0.0,0.0,0.0,0.0,0.0,0.0,0.0,0.0,0.0,0.0,0.0,0.0,0.0,0.0,0.0,0.0,0.0,0.0,0.0,0.0,0.0,0.0,0.0,0.0,0.0,0.0,0.0,0.0,0.0,0.0,0.0,0.0,0.0,0.0,0.0,0.0,0.0,0.0,0.0,0.0,0.0,0.0,0.0,0.0,0.0,0.0,0.0,0.0,0.0,0.0,0.0,0.0,0.0,0.0,0.0,-3.3058,-3.4819,-3.6538,-3.8128,-3.8667,-3.9039,-3.9274,-3.7757,-3.6321,0.0,0.0,0.0,0.0,0.0,0.0,0.0,0.0,0.0,0.0,0.0,0.0,0.0,0.0,0.0,0.0,0.0,0.0,0.0,0.0,0.0,0.0,0.0,0.0,0.0,0.0,0.0,0.0,0.0,0.0,0.0,0.0,0.0,0.0,0.0,0.0,0.0,0.0,0.0,0.0,-2.9821,-3.0208,-3.0987,0.0,0.0,0.0,0.0,0.0,0.0,-3.0779,-3.0616,0.0,0.0,0.0,0.0,0.0,0.0,0.0,0.0,0.0,0.0,0.0,0.0,0.0,0.0,0.0,0.0,0.0,0.0,0.0,0.0,0.0,0.0,0.0,0.0,0.0,0.0,0.0,0.0,0.0,0.0,0.0,0.0,0.0,0.0,0.0,0.0,0.0,0.0,0.0,0.0,0.0,0.0,0.0,0.0,0.0,0.0,0.0,0.0,0.0,0.0,0.0,0.0,0.0,0.0,0.0,-3.3747,-3.5581,-3.7321,-3.8936,-3.9202,-3.9375,-3.9464,-3.7914,-3.6503,0.0,0.0,0.0,0.0,0.0,0.0,0.0,0.0,0.0,0.0,0.0,0.0,0.0,0.0,0.0,0.0,0.0,0.0,0.0,0.0,0.0,0.0,0.0,0.0,0.0,0.0,0.0,0.0,0.0,0.0,0.0,0.0,0.0,0.0,0.0,0.0,0.0,0.0,0.0,0.0,0.0,-3.0884,-3.1678,-3.1271,0.0,0.0,0.0,0.0,-3.1081,-3.1114,0.0,0.0,0.0,0.0,0.0,0.0,0.0,0.0,0.0,0.0,0.0,0.0,0.0,0.0,0.0,0.0,0.0,0.0,0.0,0.0,0.0,0.0,0.0,0.0,0.0,0.0,0.0,0.0,0.0,0.0,0.0,0.0,0.0,0.0,0.0,0.0,0.0,0.0,0.0,0.0,0.0,0.0,0.0,0.0,0.0,0.0,0.0,0.0,0.0,0.0,0.0,0.0,0.0,0.0,0.0,0.0,-3.3944,-3.5632,-3.7302,-3.8907,-3.8858,-3.9014,-3.9439,-3.6994,-3.5787,0.0,0.0,0.0,0.0,0.0,0.0,0.0,0.0,0.0,0.0,0.0,0.0,0.0,0.0,0.0,0.0,0.0,0.0,0.0,0.0,0.0,0.0,0.0,0.0,0.0,0.0,0.0,0.0,0.0,0.0,0.0,0.0,0.0,0.0,0.0,0.0,0.0,0.0,0.0,0.0,0.0,-3.0908,-3.1697,-3.13,-3.0922,0.0,0.0,-3.1954,-3.1954,-3.2526,0.0,0.0,0.0,0.0,0.0,0.0,0.0,0.0,0.0,0.0,0.0,0.0,0.0,0.0,0.0,0.0,0.0,0.0,0.0,0.0,0.0,0.0,0.0,0.0,0.0,0.0,0.0,0.0,0.0,0.0,0.0,0.0,0.0,0.0,0.0,0.0,0.0,0.0,0.0,0.0,0.0,0.0,0.0,0.0,0.0,0.0,0.0,0.0,0.0,0.0,0.0,0.0,0.0,0.0,0.0,-3.3509,-3.4694,-3.6814,-3.8486,-3.969,-3.9505,-3.9414,-3.9477,-3.7312,-3.6192,0.0,0.0,0.0,0.0,0.0,0.0,0.0,0.0,0.0,0.0,0.0,0.0,0.0,0.0,0.0,0.0,0.0,0.0,0.0,0.0,0.0,0.0,0.0,0.0,0.0,0.0,0.0,0.0,0.0,0.0,0.0,0.0,0.0,0.0,0.0,0.0,0.0,0.0,0.0,0.0,0.0,0.0,-3.2099,-3.2013,0.0,0.0,0.0,-3.2289,-3.1834,0.0,0.0,0.0,0.0,0.0,0.0,0.0,0.0,0.0,0.0,0.0,0.0,0.0,0.0,0.0,0.0,0.0,0.0,0.0,0.0,0.0,0.0,0.0,0.0,0.0,0.0,0.0,0.0,0.0,0.0,0.0,0.0,0.0,0.0,0.0,0.0,0.0,0.0,0.0,0.0,0.0,0.0,0.0,0.0,0.0,0.0,0.0,0.0,0.0,0.0,0.0,0.0,0.0,0.0,0.0,0.0,0.0,-3.522,-3.7712,-3.9431,-4.0263,-4.0098,-3.9848,-3.9477,-3.7954,0.0,0.0,0.0,0.0,0.0,0.0,0.0,0.0,0.0,0.0,0.0,0.0,0.0,0.0,0.0,0.0,0.0,0.0,0.0,0.0,0.0,0.0,0.0,0.0,0.0,0.0,0.0,-2.9244,0.0,0.0,0.0,0.0,0.0,0.0,0.0,0.0,0.0,0.0,0.0,0.0,0.0,0.0,-3.2405,-3.2405,-3.2567,-3.2776,0.0,0.0,-3.2565,-3.2191,-3.3214,-3.3519,0.0,0.0,0.0,0.0,0.0,0.0,0.0,0.0,0.0,0.0,0.0,0.0,0.0,0.0,0.0,0.0,0.0,0.0,0.0,0.0,0.0,0.0,0.0,0.0,0.0,0.0,0.0,0.0,0.0,0.0,0.0,0.0,0.0,0.0,0.0,0.0,0.0,0.0,0.0,0.0,0.0,0.0,0.0,0.0,0.0,0.0,0.0,0.0,0.0,0.0,0.0,0.0,0.0,0.0,-3.4415,-3.5267,-3.7712,-3.9431,-4.0244,-4.0291,-4.0036,-3.9489,-3.8657,-3.7585,0.0,0.0,0.0,0.0,0.0,0.0,0.0,0.0,0.0,0.0,0.0,0.0,0.0,0.0,0.0,0.0,0.0,0.0,0.0,0.0,0.0,0.0,0.0,0.0,0.0,0.0,0.0,0.0,0.0,0.0,0.0,0.0,0.0,0.0,0.0,0.0,0.0,0.0,0.0,0.0,0.0,-3.2405,-3.2405,-3.2559,-3.2986,0.0,-3.3223,-3.2967,-3.3708,-3.4533,-3.4536,-3.2856,0.0,0.0,0.0,0.0,0.0,0.0,0.0,0.0,0.0,0.0,0.0,0.0,0.0,0.0,0.0,0.0,0.0,0.0,0.0,0.0,0.0,0.0,0.0,0.0,0.0,0.0,0.0,0.0,0.0,0.0,0.0,0.0,0.0,0.0,0.0,0.0,0.0,0.0,0.0,0.0,0.0,0.0,0.0,0.0,0.0,0.0,0.0,0.0,0.0,0.0,0.0,0.0,0.0,-3.4904,-3.522,-3.8247,-3.9957,-4.0282,-4.032,-4.0127,-3.9751,-3.8802,-3.7742,0.0,0.0,0.0,0.0,0.0,0.0,0.0,0.0,0.0,0.0,0.0,0.0,0.0,0.0,0.0,0.0,0.0,0.0,0.0,0.0,0.0,0.0,0.0,0.0,0.0,0.0,0.0,0.0,-3.0742,-3.0754,-3.0246,0.0,0.0,0.0,0.0,0.0,0.0,0.0,0.0,0.0,0.0,-3.2784,-3.3307,-3.3451,0.0,0.0,-3.37,-3.3433,-3.3215,-3.3891,-3.3872,-3.2183,-3.1919,0.0,0.0,0.0,0.0,0.0,0.0,0.0,0.0,0.0,0.0,0.0,0.0,0.0,0.0,0.0,0.0,0.0,0.0,0.0,0.0,0.0,0.0,0.0,0.0,0.0,0.0,0.0,0.0,0.0,0.0,0.0,0.0,0.0,0.0,0.0,0.0,0.0,0.0,0.0,0.0,0.0,0.0,0.0,0.0,0.0,0.0,0.0,0.0,0.0,0.0,0.0,0.0,-3.5583,-3.5602,-3.8697,-4.032,-4.032,-4.032,-4.0176,-3.9884,-3.9162,-3.8251,0.0,0.0,0.0,0.0,0.0,0.0,0.0,0.0,0.0,0.0,0.0,0.0,0.0,0.0,0.0,0.0,0.0,0.0,0.0,0.0,0.0,0.0,0.0,0.0,0.0,0.0,0.0,0.0,-3.0889,-3.0852,-3.0341,0.0,0.0,0.0,0.0,0.0,0.0,0.0,0.0,0.0,0.0,-3.3196,-3.3566,-3.3624,-3.3605,-3.3605,-3.3414,-3.3108,-3.2776,-3.3223,-3.3203,-3.1992,0.0,0.0,0.0,0.0,0.0,0.0,0.0,0.0,0.0,0.0,0.0,0.0,0.0,0.0,0.0,0.0,0.0,0.0,0.0,0.0,0.0,0.0,0.0,0.0,0.0,0.0,0.0,-3.2089,0.0,0.0,-3.2014,0.0,0.0,0.0,0.0,0.0,0.0,0.0,0.0,0.0,0.0,0.0,0.0,0.0,0.0,0.0,0.0,0.0,0.0,0.0,0.0,0.0,0.0,-3.6462,-3.65,-3.8983,-4.032,-4.032,-4.032,-4.0157,-3.9914,-3.9865,-3.9213,-3.7915,0.0,0.0,0.0,0.0,0.0,0.0,0.0,0.0,0.0,0.0,0.0,0.0,0.0,0.0,0.0,0.0,0.0,0.0,0.0,0.0,0.0,0.0,0.0,0.0,0.0,0.0,-2.9207,-2.9769,-3.0323,0.0,0.0,0.0,0.0,0.0,0.0,0.0,0.0,0.0,-3.1522,-3.2917,-3.3662,-3.2871,-3.273,-3.2776,-3.2795,-3.2107,-3.184,-3.2604,-3.2718,-3.2699,0.0,0.0,0.0,0.0,0.0,0.0,0.0,0.0,0.0,0.0,0.0,0.0,0.0,0.0,0.0,0.0,0.0,0.0,0.0,0.0,0.0,0.0,0.0,0.0,0.0,0.0,0.0,-3.4704,-3.4172,0.0,0.0,0.0,0.0,0.0,0.0,0.0,0.0,0.0,0.0,0.0,-3.7292,-3.7292,0.0,0.0,0.0,0.0,0.0,0.0,0.0,0.0,0.0,0.0,0.0,0.0,-3.65,-3.6615,-3.9002,-4.032,-4.032,-4.032,-4.0253,-4.0166,-3.9996,-3.9362,-3.8203,0.0,0.0,0.0,0.0,0.0,0.0,0.0,0.0,0.0,0.0,0.0,0.0,0.0,0.0,0.0,0.0,0.0,0.0,0.0,0.0,0.0,0.0,0.0,0.0,0.0,-3.0099,0.0,0.0,0.0,0.0,0.0,0.0,0.0,0.0,0.0,0.0,0.0,-3.1694,-3.2222,-3.2325,-3.2439,-3.2661,-3.268,-3.2909,0.0,0.0,0.0,0.0,0.0,0.0,0.0,0.0,0.0,0.0,0.0,0.0,0.0,0.0,-3.173,-3.1171,-3.1541,-3.1924,-3.1919,0.0,0.0,0.0,0.0,0.0,0.0,0.0,0.0,0.0,0.0,0.0,0.0,0.0,0.0,-3.6443,-3.5725,-3.5954,0.0,0.0,0.0,0.0,0.0,0.0,0.0,0.0,-3.7292,-3.7933,-3.8151,-3.8151,-3.8151,-3.8132,-3.7846,-3.712,0.0,0.0,0.0,0.0,0.0,0.0,0.0,0.0,-3.692,-3.6997,-3.9136,-4.0148,-3.9871,-3.9871,-3.969,-3.9403,-3.9134,-3.8804,-3.8403,-3.7487,-3.682,0.0,0.0,0.0,0.0,0.0,0.0,0.0,0.0,0.0,0.0,0.0,0.0,0.0,0.0,0.0,0.0,0.0,0.0,0.0,0.0,0.0,0.0,0.0,-3.0489,0.0,0.0,0.0,0.0,0.0,0.0,0.0,0.0,0.0,-3.14,-3.1706,-3.2107,-3.2623,-3.2508,-3.2344,-3.226,0.0,0.0,0.0,0.0,0.0,0.0,0.0,-3.1389,-3.1121,-3.1327,-3.1704,-3.221,-3.2508,-3.268,-3.268,0.0,0.0,-3.2056,-3.2417,-3.2835,-3.2837,-3.2858,-3.2904,-3.2972,-3.2966,-3.2983,0.0,0.0,0.0,0.0,-3.6405,0.0,0.0,0.0,-3.7674,-3.7273,0.0,-3.7387,0.0,0.0,0.0,0.0,-3.6576,-3.7273,0.0,0.0,-3.9393,-3.9823,-3.9069,-3.904,-3.903,-3.8992,-3.8209,-3.7808,-3.7769,-3.7789,0.0,0.0,0.0,0.0,0.0,0.0,-3.7674,-3.7731,-3.9317,-3.9794,-3.8992,-3.8973,-3.8553,-3.7769,-3.75,-3.775,-3.8479,-3.7577,-3.7378,-3.816,-3.6749,0.0,0.0,0.0,0.0,0.0,0.0,0.0,0.0,0.0,0.0,0.0,0.0,0.0,0.0,0.0,0.0,0.0,0.0,0.0,0.0,-3.0629,0.0,0.0,0.0,0.0,0.0,0.0,0.0,0.0,0.0,-3.1541,-3.1496,-3.2126,-3.2661,-3.2642,0.0,0.0,0.0,0.0,-3.2088,-3.06,-3.0287,-3.0352,-3.039,-3.1002,-3.174,-3.2554,0.0,0.0,-3.3983,-3.3333,-3.2837,-3.281,-3.3583,-3.3868,-3.2974,-3.2976,-3.3051,-3.3058,-3.3133,-3.3101,-3.3087,-3.3285,-3.3249,-3.6298,0.0,0.0,0.0,0.0,-3.5592,-3.6394,-3.7693,-3.7693,-3.7903,-3.8295,-3.8514,0.0,0.0,0.0,0.0,0.0,0.0,-3.8037,-3.8648,-3.9145,-3.9565,-3.9938,-3.9919,-3.9919,-3.9909,-3.9671,-3.9537,-3.9546,-3.9565,-3.8506,-3.6519,0.0,0.0,0.0,0.0,-3.712,-3.7693,-3.8209,-3.8323,-3.8094,-3.8075,-3.796,-3.7693,-3.7667,-3.7772,-3.802,-3.7718,-3.7338,-3.6881,-3.6539,0.0,0.0,0.0,0.0,0.0,0.0,0.0,0.0,0.0,0.0,0.0,0.0,0.0,0.0,0.0,0.0,0.0,0.0,0.0,-3.0816,-3.134,-3.1313,0.0,0.0,0.0,0.0,0.0,0.0,0.0,0.0,0.0,-3.2317,-3.1992,-3.1782,0.0,0.0,-3.1109,-3.0605,-3.1248,-3.1857,-3.2101,-3.2141,0.0,-3.2894,-3.2737,-3.2609,-3.2819,-3.3615,-3.4218,-3.4218,-3.4488,-3.468,-3.468,-3.4918,-3.5002,-3.477,-3.4745,-3.4731,-3.4751,-3.4769,-3.4811,-3.4911,-3.4921,-3.4947,-3.7101,-3.6165,-3.5851,-3.5717,-3.5717,-3.5717,-3.647,-3.7693,-3.7693,-3.7827,-3.8037,-3.8362,-3.7827,-3.6719,-3.7063,0.0,0.0,0.0,-3.8686,-3.9527,-3.9508,-3.9814,-4.0282,-4.032,-4.011,-3.9785,-3.9794,-3.9594,-3.9279,-3.8945,-3.8028,-3.6557,0.0,-3.6107,-3.6003,-3.6328,-3.6729,-3.7215,-3.754,-3.7559,-3.7234,-3.6891,-3.6727,-3.6763,-3.6788,-3.6966,-3.7308,-3.7327,-3.719,-3.6913,-3.6638,-3.5902,0.0,0.0,0.0,0.0,0.0,0.0,0.0,0.0,0.0,0.0,0.0,-3.2072,-3.0613,0.0,0.0,0.0,-3.1364,-3.1524,-3.1615,-3.1684,0.0,0.0,0.0,0.0,0.0,0.0,0.0,-3.1236,-3.2069,-3.2833,-3.3158,-3.2764,-3.2439,-3.2477,-3.2038,-3.1601,-3.1306,0.0,-3.2593,-3.2904,-3.2941,-3.3108,-3.3583,-3.36,-3.3599,-3.3904,-3.4384,-3.4743,-3.4787,-3.5192,-3.5482,-3.5501,-3.5544,-3.5574,-3.5574,-3.5602,-3.5607,-3.5585,-3.5602,-3.5639,-3.5723,-3.5732,-3.5747,-3.7865,-3.775,-3.7005,-3.6672,-3.6596,-3.6596,-3.7054,-3.7789,-3.7808,-3.7426,-3.6863,-3.7578,-3.7043,-3.5668,-3.6443,0.0,-3.7941,-3.8744,-3.9527,-4.032,-4.032,-4.032,-4.0301,-4.0225,-3.9775,-3.9011,-3.8935,-3.8514,-3.7827,-3.7101,-3.6672,-3.6615,-3.733,-3.6929,-3.5515,-3.6194,-3.6634,-3.6729,-3.7311,-3.7215,-3.6405,-3.5611,-3.5226,-3.5304,-3.5312,-3.568,-3.6447,-3.6512,-3.6841,-3.7529,-3.6832,-3.6298,-3.5998,0.0,0.0,0.0,0.0,0.0,0.0,0.0,0.0,0.0,0.0,0.0,0.0,0.0,0.0,0.0,-3.2325,0.0,-3.2779,-3.1963,0.0,0.0,0.0,-3.1684,-3.2607,-3.2776,-3.2814,-3.2814,0.0,0.0,-3.4109,-3.4197,-3.4243,-3.43,-3.412,-3.3754,-3.3089,-3.3556,-3.3865,-3.3249,-3.3214,-3.3247,-3.3479,-3.4,-3.4637,-3.5261,-3.5519,-3.5473,-3.5492,-3.5512,-3.5525,-3.5537,-3.5626,-3.5718,-3.5718,-3.5747,-3.5797,-3.5708,-3.5747,-3.5791,-3.5791,-3.5791,-3.5791,-3.9298,-3.8667,-3.8476,-3.8018,-3.7426,-3.7406,-3.7903,-3.8667,-3.8686,-3.8954,-3.9422,-3.9594,-3.947,-3.9098,-3.9308,-3.9499,-3.9699,-3.989,-4.0091,-4.0301,-4.032,-4.032,-4.0263,-3.9613,-3.9202,-3.8954,-3.8323,-3.8247,-3.8667,-3.8495,-3.8075,-3.7445,-3.7617,-3.7502,-3.712,-3.7311,-3.775,-3.84,-3.7321,-3.6394,-3.5545,-3.5297,-3.5209,-3.5218,-3.5281,-3.5396,-3.5603,-3.5664,-3.5808,-3.6015,-3.5752,-3.5327,-3.4678,-3.3474,0.0,0.0,0.0,0.0,0.0,0.0,0.0,0.0,0.0,-3.0993,-2.9983,0.0,-3.138,0.0,-3.2754,-3.3642,-3.3681,-3.3478,0.0,0.0,-3.2497,-3.2432,-3.2691,-3.3299,-3.3708,-3.3681,-3.4216,-3.4915,-3.5802,-3.5889,-3.6126,-3.668,-3.5179,-3.3945,-3.3824,-3.3941,-3.4103,-3.4132,-3.4608,-3.5048,-3.5004,-3.5198,-3.5426,-3.5679,-3.5727,-3.5727,-3.5747,-3.5727,-3.5727,-3.5727,-3.576,-3.5769,-3.5788,-3.5806,-3.5791,-3.5797,-3.5806,-3.5795,-3.5795,-3.5795,-3.5795,-4.0348,-3.9584,-3.9584,-3.9317,-3.8801,-3.8037,-3.798,-3.8419,-3.8419,-3.8686,-3.9126,-3.9145,-3.9145,-3.9164,-3.9546,-3.9728,-3.9756,-4.0129,-4.032,-4.032,-4.032,-4.032,-4.0282,-3.9814,-3.9393,-3.8973,-3.8514,-3.8323,-3.8419,-3.8419,-3.819,-3.7731,-3.8094,-3.8266,-3.8228,-3.7158,-3.6833,-3.7292,-3.6413,-3.587,-3.5774,-3.542,-3.5026,-3.4668,-3.4722,-3.4613,-3.4263,-3.426,-3.4293,-3.4299,-3.4225,-3.4007,-3.3594,-3.2632,-3.1945,0.0,0.0,0.0,0.0,0.0,0.0,0.0,0.0,0.0,0.0,0.0,-3.2,-3.1876,-3.3176,-3.3842,-3.3471,-3.3414,-3.3394,-3.3299,-3.3272,-3.3578,-3.4323,-3.4819,-3.5248,-3.5611,-3.6031,-3.6642,-3.7493,-3.7597,-3.7929,-3.8755,-3.7412,-3.6059,-3.5449,-3.5316,-3.5272,-3.5088,-3.5432,-3.5757,-3.5757,-3.5737,-3.5751,-3.5786,-3.5795,-3.5795,-3.5795,-3.5795,-3.5795,-3.5795,-3.5795,-3.5795,-3.5795,-3.5795,-3.5795,-3.5795,-3.5795,-3.5795,-3.5795,-3.5795,-3.5795,-4.1246,-4.0635,-4.0626,-4.0616,-4.0492,-3.8858,-3.8132,-3.8037,-3.8037,-3.8037,-3.8037,-3.8037,-3.8018,-3.8075,-3.8839,-3.9164,-3.9202,-3.9938,-4.032,-4.032,-4.032,-4.032,-4.0301,-4.0167,-3.9756,-3.903,-3.8897,-3.8495,-3.7865,-3.7865,-3.7865,-3.7903,-3.861,-3.8954,-3.8763,-3.6623,-3.5592,-3.5687,-3.5477,-3.5687,-3.6309,-3.5392,-3.4557,-3.3869,-3.3894,-3.3611,-3.2928,-3.291,-3.2859,-3.2799,-3.2811,-3.2874,-3.2948,-3.2196,-3.1761,0.0,-3.1052,0.0,0.0,0.0,0.0,0.0,0.0,0.0,0.0,-3.268,-3.2749,-3.2852,-3.3547,-3.3738,-3.3062,-3.3024,-3.3368,-3.4224,-3.4312,-3.4942,-3.6432,-3.6653,-3.6958,-3.7769,-3.7865,-3.819,-3.8992,-3.9164,-3.9505,-4.0065,-3.95,-3.8407,-3.7289,-3.6853,-3.6503,-3.5922,-3.5795,-3.5806,-3.5806,-3.5791,-3.5791,-3.5795,-3.5795,-3.5795,-3.5795,-3.5795,-3.5795,-3.5795,-3.5795,-3.5795,-3.5795,-3.5795,-3.5795,-3.5795,-3.5795,-3.5795,-3.5795,-3.5795,-3.5795,-4.2469,-4.2335,-4.2316,-4.2316,-4.224,-4.1227,-4.0406,-3.9804,-3.9804,-3.9804,-3.9833,-3.9814,-3.9804,-3.9833,-3.9986,-4.0072,-4.0081,-4.0205,-4.032,-4.032,-4.032,-4.032,-4.0263,-3.9575,-3.9155,-3.8954,-3.8285,-3.8228,-3.8744,-3.8763,-3.8763,-3.8744,-3.8935,-3.8648,-3.796,0.0,0.0,0.0,-3.6958,-3.5984,-3.542,-3.396,-3.31,-3.2944,-3.301,0.0,-3.2849,-3.2878,-3.2904,-3.2872,-3.2884,0.0,0.0,0.0,0.0,0.0,0.0,0.0,0.0,0.0,0.0,0.0,-3.2546,-3.2527,-3.268,-3.268,-3.2986,-3.3681,-3.3891,-3.4197,-3.4666,-3.4724,-3.5068,-3.5908,-3.6023,-3.6405,-3.7349,-3.7483,-3.7808,-3.8648,-3.8763,-3.9069,-3.9871,-4.0053,-4.0117,-4.0255,-3.9734,-3.8948,-3.8025,-3.729,-3.6653,-3.5957,-3.5795,-3.5795,-3.5795,-3.5795,-3.5795,-3.5795,-3.5795,-3.5795,-3.5795,-3.5795,-3.5795,-3.5795,-3.5795,-3.5795,-3.5795,-3.5795,-3.5795,-3.5795,-3.5795,-3.5795,-3.5795,-3.5795,-3.5795,-4.3157,-4.2794,-4.2794,-4.2794,0.0,-4.2316,-4.1667,-4.0864,-4.0473,-4.032,-4.032,-4.032,-4.032,-4.032,-4.032,-4.032,-4.032,-4.032,-4.032,-4.032,-4.032,-4.032,-4.0282,-3.9852,-3.9642,-3.9613,-3.9193,-3.9221,-3.9613,-3.9652,-3.9642,-3.9652,-3.9642,-3.9412,-3.8992,-3.8992,-3.8992,-3.9011,-3.7731,-3.6871,-3.6413,-3.5229,-3.4189,-3.3394,-3.3412,0.0,0.0,0.0,0.0,0.0,0.0,0.0,0.0,-3.3069,0.0,-3.3374,-3.3018,-3.2958,-3.3307,-3.3329,-3.3509,-3.3902,-3.3941,-3.3769,-3.3375,-3.3692,-3.4113,-3.456,-3.498,-3.5381,-3.5812,-3.6203,-3.6604,-3.7043,-3.7101,-3.7406,-3.8171,-3.8343,-3.8686,-3.947,-3.9661,-3.9823,-4.0244,-4.0336,-4.0175,-3.9919,-3.9611,-3.8953,-3.7874,-3.7298,-3.6716,-3.5965,-3.5795,-3.5795,-3.5795,-3.5795,-3.5795,-3.5795,-3.5795,-3.5795,-3.5795,-3.5795,-3.5795,-3.5795,-3.5795,-3.5795,-3.5795,-3.5795,-3.5795,-3.5795,-3.5795,-3.5795,-3.5795,-3.5795,-3.5795,-4.3845,-4.3233,-4.3252,-4.3233,-4.3233,-4.308,-4.2431,-4.1437,-4.0645,0.0,0.0,-4.032,-4.032,-4.032,-4.032,-4.032,-4.032,-4.032,-4.032,-4.032,-4.032,-4.032,-4.032,-4.032,-4.032,-4.032,-4.032,-4.032,-4.032,-4.032,-4.032,-4.032,-4.032,-4.032,-4.032,-4.032,-3.9947,-3.923,-3.8218,-3.7636,-3.7464,-3.6566,-3.5324,-3.3796,-3.3834,-3.353,-3.2824,-3.2864,-3.2872,-3.2818,-3.2864,-3.2928,-3.3023,-3.3075,-3.3158,-3.3255,-3.325,-3.3523,-3.419,-3.422,-3.4584,-3.539,-3.5581,-3.5313,-3.4511,-3.5057,-3.5488,-3.563,-3.6298,-3.671,-3.671,-3.7273,-3.7769,-3.7903,-3.7922,-3.8266,-3.9088,-3.9221,-3.9518,-4.0167,-4.0263,-4.0215,-4.007,-4.0091,-3.9896,-3.9269,-3.8974,-3.8542,-3.7253,-3.682,-3.6548,-3.595,-3.5795,-3.5795,-3.5795,-3.5795,-3.5795,-3.5795,-3.5795,-3.5795,-3.5795,-3.5795,-3.5795,-3.5795,-3.5795,-3.5795,-3.5795,-3.5795,-3.5795,-3.5795,-3.5795,-3.5795,-3.5795,-3.5795,-3.5795,-4.5029,-4.4963,-4.4953,-4.4963,-4.4895,-4.415,-4.2947,-4.1457,-4.0654,-4.032,-4.032,-4.032,-4.032,-4.032,-4.032,-4.032,-4.032,-4.032,-4.032,-4.032,-4.032,-4.032,-4.032,-4.032,-4.032,-4.032,-4.032,-4.032,-4.032,-4.032,-4.032,-4.032,-4.032,-4.032,-4.032,-4.032,-4.0252,-4.0088,-3.8532,-3.7368,-3.6672,-3.5152,-3.3891,-3.2947,-3.2993,-3.2938,-3.2816,-3.2882,-3.2897,-3.289,-3.2904,-3.3218,-3.3857,-3.3934,-3.422,-3.4867,-3.4963,-3.4994,-3.5101,-3.512,-3.5469,-3.6249,-3.7007,-3.7058,-3.6241,-3.6233,-3.6615,-3.7254,-3.7445,-3.7521,-3.754,-3.7674,-3.8075,-3.8706,-3.8801,-3.9164,-3.9976,-4.0072,-4.0091,-4.0205,-4.032,-3.9993,-3.9382,-3.9306,-3.9068,-3.8414,-3.7821,-3.6987,-3.6341,-3.5989,-3.595,-3.5834,-3.5795,-3.5795,-3.5795,-3.5795,-3.5795,-3.5795,-3.5795,-3.5795,-3.5795,-3.5795,-3.5795,-3.5795,-3.5795,-3.5795,-3.5795,-3.5795,-3.5795,-3.5795,-3.5795,-3.5795,-3.5795,-3.5795,-3.5795,-4.5277,-4.5277,-4.5277,-4.5277,-4.5239,-4.438,-4.33,-4.2144,-4.1323,-4.0692,-4.032,-4.032,-4.032,-4.032,-4.032,-4.032,-4.032,-4.032,-4.032,-4.032,-4.032,-4.032,-4.032,-4.032,-4.032,-4.032,-4.032,-4.032,-4.032,-4.032,-4.032,-4.032,-4.032,-4.032,-4.0301,-4.0319,-4.0318,-4.0288,-3.9507,-3.8714,-3.7927,-3.7118,-3.6088,-3.48,-3.4791,-3.4569,-3.4125,-3.4162,-3.4206,-3.4187,-3.4241,-3.4435,-3.4826,-3.4864,-3.5004,-3.5345,-3.5806,-3.6048,-3.6006,-3.6423,-3.6802,-3.7187,-3.7545,-3.7823,-3.7908,-3.7443,-3.7311,-3.7674,-3.8113,-3.84,-3.8419,-3.8839,-3.9279,-3.968,-3.9718,-3.9871,-4.0205,-4.032,-4.011,-3.9699,-3.9619,-3.9355,-3.853,-3.8537,-3.8305,-3.7602,-3.6793,-3.6163,-3.5849,-3.5795,-3.5795,-3.5795,-3.5795,-3.5795,-3.5795,-3.5795,-3.5795,-3.5795,-3.5795,-3.5795,-3.5795,-3.5795,-3.5795,-3.5795,-3.5795,-3.5795,-3.5795,-3.5795,-3.5795,-3.5795,-3.5795,-3.5795,-3.5795,-3.5795,-3.5795,-4.5277,-4.5277,-4.5277,-4.5277,-4.525,-4.459,-4.3815,-4.3004,-4.2163,-4.1342,-4.0587,-4.0396,-4.032,-4.032,-4.032,-4.032,-4.032,-4.032,-4.032,-4.032,-4.032,-4.032,-4.031,-4.0319,-4.0319,-4.032,-4.0355,-4.0354,-4.0346,-4.0354,-4.0354,-4.0364,-4.0362,-4.037,-4.0344,-4.0383,-4.0394,-4.0403,-4.0377,-3.9942,-3.9129,-3.9045,-3.8284,-3.691,-3.678,-3.6463,-3.5837,-3.5836,-3.5883,-3.5879,-3.5947,-3.5977,-3.6058,-3.6058,-3.6044,-3.6061,-3.661,-3.6968,-3.6976,-3.7674,-3.8129,-3.8131,-3.8259,-3.8633,-3.9216,-3.8712,-3.8275,-3.8362,-3.8935,-3.9298,-3.9374,-3.9843,-4.0301,-4.0301,-4.032,-4.0282,-4.0301,-4.0148,-3.9785,-3.9132,-3.8922,-3.8554,-3.7926,-3.781,-3.7555,-3.6774,-3.6148,-3.5829,-3.5795,-3.5795,-3.5795,-3.5795,-3.5795,-3.5795,-3.5795,-3.5795,-3.5795,-3.5795,-3.5795,-3.5795,-3.5795,-3.5795,-3.5795,-3.5795,-3.5795,-3.5795,-3.5795,-3.5795,-3.5795,-3.5795,-3.5795,-3.5795,-3.5795,-3.5795,-3.5795,-4.5277,-4.5277,-4.5277,-4.5277,-4.5277,-4.5182,-4.4666,-4.3796,-4.3023,-4.2202,-4.1323,-4.0635,-4.032,-4.032,-4.032,-4.032,-4.032,-4.032,-4.032,-4.031,-4.032,-4.032,-4.0329,-4.0368,-4.036,-4.0327,-4.0484,-4.0512,-4.0406,-4.0527,-4.0542,-4.0496,-4.0549,-4.0538,-4.0504,-4.0584,-4.0682,-4.0754,-4.0572,-4.0035,-3.9165,-3.9106,-3.8601,-3.7617,-3.764,-3.7647,-3.7466,-3.757,-3.7592,-3.7663,-3.7613,-3.7667,-3.7712,-3.7738,-3.7757,-3.7712,-3.7827,-3.7885,-3.7942,-3.8666,-3.9142,-3.913,-3.9728,-4.0136,-4.0172,-4.0077,-4.005,-3.9995,-4.0072,-4.011,-4.0167,-4.0263,-4.032,-4.032,-4.032,-4.032,-4.0225,-3.9594,-3.9113,-3.9128,-3.8431,-3.7738,-3.7146,-3.7016,-3.673,-3.6114,-3.5918,-3.5795,-3.5795,-3.5795,-3.5795,-3.5795,-3.5795,-3.5795,-3.5795,-3.5795,-3.5795,-3.5795,-3.5795,-3.5795,-3.5795,-3.5795,-3.5795,-3.5795,-3.5795,-3.5795,-3.5795,-3.5795,-3.5795,-3.5775,-3.5756,-3.5756,-3.5775,-3.5663,-3.5609,-4.5277,-4.5277,-4.5277,-4.5277,-4.5277,-4.5277,-4.48,-4.3949,-4.3157,-4.2316,-4.1466,-4.0654,-4.032,-4.032,-4.032,-4.032,-4.032,-4.032,-4.0318,-4.0351,-4.036,-4.0402,-4.0465,-4.0518,-4.0499,-4.05,-4.0568,-4.0552,-4.0551,-4.0617,-4.0642,-4.0571,-4.0629,-4.0639,-4.0622,-4.0704,-4.0766,-4.0796,-4.0735,-4.0479,-4.0133,-3.9954,-3.9454,-3.8689,-3.8583,-3.8295,-3.7813,-3.7797,-3.7877,-3.7908,-3.7913,-3.7924,-3.7988,-3.8007,-3.8007,-3.8027,-3.8488,-3.8981,-3.9458,-3.9796,-4.0007,-3.9964,-4.0246,-4.0432,-4.0432,-4.0379,-4.0353,-4.0345,-4.0319,-4.031,-4.0309,-4.031,-4.032,-4.032,-4.032,-4.032,-4.0301,-3.9552,-3.8931,-3.845,-3.7762,-3.7012,-3.6383,-3.6227,-3.6129,-3.5849,-3.5795,-3.5795,-3.5795,-3.5795,-3.5795,-3.5795,-3.5795,-3.5795,-3.5795,-3.5795,-3.5795,-3.5795,-3.5795,-3.5795,-3.5795,-3.5795,-3.5795,-3.5795,-3.5795,-3.5795,-3.5795,-3.5795,-3.5795,-3.5663,-3.5236,-3.5022,-3.5022,-3.4648,-3.4396,-4.5277,-4.5277,-4.5277,-4.5277,-4.5277,-4.5277,-4.4934,-4.4246,-4.3252,-4.245,-4.1781,-4.0769,-4.032,-4.032,-4.032,-4.032,-4.031,-4.0328,-4.0362,-4.0406,-4.0442,-4.0499,-4.059,-4.0642,-4.0648,-4.0636,-4.0678,-4.0724,-4.0701,-4.0757,-4.0752,-4.069,-4.0767,-4.0791,-4.0806,-4.0842,-4.0886,-4.0886,-4.0878,-4.0855,-4.0837,-4.0642,-4.0217,-3.9675,-3.9579,-3.9192,-3.8528,-3.8553,-3.8599,-3.861,-3.8596,-3.8608,-3.8681,-3.8681,-3.8681,-3.8719,-3.9277,-3.9885,-4.0468,-4.0507,-4.0499,-4.0499,-4.0447,-4.0438,-4.0466,-4.0449,-4.0432,-4.0424,-4.0354,-4.0327,-4.0317,-4.0309,-4.032,-4.031,-4.031,-4.0327,-4.0298,-3.9482,-3.8589,-3.8024,-3.7192,-3.6405,-3.5897,-3.5803,-3.5829,-3.5814,-3.5795,-3.5795,-3.5795,-3.5795,-3.5795,-3.5795,-3.5795,-3.5795,-3.5795,-3.5795,-3.5795,-3.5795,-3.5795,-3.5795,-3.5795,-3.5795,-3.5795,-3.5795,-3.5795,-3.5756,-3.5717,-3.5717,-3.5271,-3.5026,-3.4605,-3.4172,-3.4179,-3.3643,-3.3424,-4.5277,-4.5277,-4.5277,-4.5277,-4.5277,-4.5277,-4.5269,-4.5048,-4.3539,-4.2775,-4.2469,-4.1046,-4.032,-4.032,-4.031,-4.031,-4.031,-4.0368,-4.0397,-4.0427,-4.0551,-4.0591,-4.0623,-4.0729,-4.0775,-4.074,-4.0882,-4.0961,-4.097,-4.0961,-4.0967,-4.0875,-4.1013,-4.105,-4.0994,-4.1037,-4.1081,-4.1072,-4.1014,-4.1014,-4.1066,-4.0883,-4.0713,-4.058,-4.0607,-4.0436,-4.0304,-4.0277,-4.0271,-4.0348,-4.0219,-4.0227,-4.0335,-4.0323,-4.0285,-4.0323,-4.0381,-4.0439,-4.0489,-4.0508,-4.0508,-4.0489,-4.05,-4.0492,-4.0499,-4.0482,-4.0482,-4.0502,-4.0432,-4.037,-4.0342,-4.0325,-4.0317,-4.0309,-4.036,-4.0381,-4.0397,-3.9102,-3.8305,-3.7941,-3.682,-3.5951,-3.5797,-3.5791,-3.5795,-3.5795,-3.5795,-3.5795,-3.5795,-3.5795,-3.5795,-3.5795,-3.5795,-3.5795,-3.5795,-3.5795,-3.5795,-3.5795,-3.5795,-3.5795,-3.5795,-3.5795,-3.5795,-3.5795,-3.5795,-3.5756,-3.5639,-3.5154,-3.439,-3.3962,-3.3652,-3.3378,-3.3356,-3.3323,-3.302,-4.5277,-4.5277,-4.5277,-4.5277,-4.5277,-4.5277,-4.5277,-4.5163,-4.4074,-4.3271,-4.266,-4.1571,-4.0788,-4.031,-4.0344,-4.0368,-4.0377,-4.04,-4.0492,-4.0629,-4.0703,-4.0775,-4.0849,-4.0945,-4.0944,-4.0926,-4.1023,-4.1039,-4.1016,-4.103,-4.1054,-4.1053,-4.1064,-4.1094,-4.1072,-4.1081,-4.1109,-4.1108,-4.1074,-4.1076,-4.1106,-4.102,-4.0995,-4.0961,-4.0818,-4.0735,-4.0628,-4.0564,-4.0559,-4.0559,-4.0511,-4.0482,-4.0508,-4.0496,-4.0496,-4.0496,-4.0496,-4.0496,-4.0496,-4.0496,-4.0496,-4.0496,-4.0496,-4.0489,-4.0492,-4.0492,-4.0492,-4.0484,-4.0476,-4.0465,-4.0477,-4.0417,-4.0394,-4.0419,-4.0454,-4.0481,-4.0234,-3.9142,-3.8185,-3.7948,-3.677,-3.5812,-3.5782,-3.5795,-3.5795,-3.5795,-3.5795,-3.5795,-3.5795,-3.5795,-3.5795,-3.5795,-3.5795,-3.5795,-3.5795,-3.5795,-3.5795,-3.5795,-3.5795,-3.5795,-3.5795,-3.5795,-3.5795,-3.5775,-3.5775,-3.531,-3.5029,-3.4247,-3.3515,-3.3243,-3.2906,-3.2523,-3.2512,-3.2353,-3.2007,-4.5277,-4.5277,-4.5277,-4.5277,-4.5277,-4.5277,-4.5277,-4.5182,-4.438,-4.3548,-4.2737,-4.1877,-4.1065,-4.0422,-4.0383,-4.0454,-4.0515,-4.0549,-4.0622,-4.079,-4.084,-4.0941,-4.1013,-4.1078,-4.1072,-4.1044,-4.1079,-4.1079,-4.103,-4.1056,-4.1101,-4.1109,-4.1103,-4.1109,-4.1109,-4.1109,-4.1109,-4.1109,-4.1109,-4.1109,-4.1109,-4.1109,-4.1109,-4.1083,-4.0967,-4.0867,-4.0762,-4.0724,-4.0686,-4.0661,-4.0635,-4.0586,-4.0579,-4.0552,-4.053,-4.0504,-4.0496,-4.0496,-4.0496,-4.0496,-4.0496,-4.0496,-4.0496,-4.0496,-4.0496,-4.0496,-4.0496,-4.0496,-4.0496,-4.0523,-4.0582,-4.0545,-4.0523,-4.0558,-4.0591,-4.0649,-4.0562,-3.9231,-3.8103,-3.7342,-3.6459,-3.5868,-3.5795,-3.5795,-3.5795,-3.5795,-3.5795,-3.5795,-3.5795,-3.5795,-3.5795,-3.5795,-3.5795,-3.5795,-3.5795,-3.5795,-3.5795,-3.5795,-3.5795,-3.5795,-3.5795,-3.5795,-3.576,-3.5741,-3.5372,-3.4811,-3.414,-3.3353,-3.2902,-3.2619,-3.2138,-3.1653,-3.1521,-3.1289,-3.121,-4.5277,-4.5277,-4.5277,-4.5277,-4.5277,-4.5277,-4.5277,-4.5144,-4.4456,-4.3692,-4.2908,-4.1982,-4.1245,-4.0573,-4.0471,-4.0537,-4.0739,-4.0769,-4.079,-4.0825,-4.0949,-4.1022,-4.1106,-4.1093,-4.1109,-4.1083,-4.1108,-4.1108,-4.1104,-4.1088,-4.1108,-4.1108,-4.1108,-4.1109,-4.1109,-4.1109,-4.1109,-4.1109,-4.1109,-4.1109,-4.1109,-4.1109,-4.1109,-4.1109,-4.1083,-4.102,-4.0912,-4.0886,-4.0858,-4.0806,-4.0786,-4.0768,-4.0712,-4.07,-4.0642,-4.0545,-4.0519,-4.0512,-4.0519,-4.0515,-4.053,-4.0527,-4.0512,-4.0519,-4.0496,-4.0496,-4.0496,-4.0496,-4.0519,-4.0552,-4.0681,-4.0712,-4.0692,-4.071,-4.0781,-4.0825,-4.0538,-3.9364,-3.7751,-3.6382,-3.5829,-3.5814,-3.5795,-3.5795,-3.5795,-3.5795,-3.5795,-3.5795,-3.5795,-3.5795,-3.5795,-3.5795,-3.5795,-3.5795,-3.5795,-3.5795,-3.5795,-3.5795,-3.5795,-3.5795,-3.5795,-3.5795,-3.5597,-3.5488,-3.4477,-3.3877,-3.3158,-3.2418,-3.1922,-3.1561,-3.1133,-3.1015,-3.0974,-3.0931,-3.0889,-4.5277,-4.5277,-4.5277,-4.5277,-4.5277,-4.5277,-4.5277,-4.5277,-4.4991,-4.4399,-4.3586,-4.2756,-4.2001,-4.1289,-4.0781,-4.063,-4.0804,-4.0878,-4.093,-4.096,-4.1033,-4.1086,-4.1096,-4.1111,-4.1103,-4.1108,-4.1109,-4.1109,-4.1109,-4.1109,-4.1109,-4.1109,-4.1109,-4.1109,-4.1109,-4.1109,-4.1109,-4.1109,-4.1109,-4.1109,-4.1109,-4.1109,-4.1109,-4.1109,-4.1109,-4.1062,-4.1046,-4.0951,-4.0933,-4.0929,-4.0839,-4.0791,-4.0761,-4.0761,-4.0745,-4.0713,-4.0707,-4.0707,-4.0707,-4.0701,-4.068,-4.0655,-4.0629,-4.06,-4.0512,-4.0504,-4.0504,-4.0519,-4.0593,-4.0668,-4.0765,-4.0848,-4.0898,-4.0898,-4.0894,-4.091,-4.0678,-3.9422,-3.7735,-3.6196,-3.5795,-3.5795,-3.5795,-3.5795,-3.5799,-3.5795,-3.5795,-3.5799,-3.5795,-3.5795,-3.5795,-3.5795,-3.5795,-3.5795,-3.5795,-3.5795,-3.5795,-3.5795,-3.5795,-3.5795,-3.5795,-3.578,-3.5578,-3.4824,-3.3821,-3.2937,-3.2218,-3.1659,-3.123,-3.1014,-3.0912,-3.0849,-3.0804,-3.08,-3.08,-4.5277,-4.5277,-4.5277,-4.5277,-4.5277,-4.5277,-4.5277,-4.5277,-4.5277,-4.48,-4.3997,-4.3522,-4.2744,-4.1862,-4.1343,-4.1036,-4.0917,-4.0991,-4.1036,-4.1042,-4.1073,-4.1118,-4.1109,-4.1103,-4.1109,-4.1109,-4.1109,-4.1109,-4.1109,-4.1109,-4.1109,-4.1109,-4.1109,-4.1109,-4.1109,-4.1109,-4.1109,-4.1109,-4.1109,-4.1109,-4.1109,-4.1109,-4.1109,-4.1109,-4.1109,-4.1109,-4.1088,-4.1018,-4.0981,-4.102,-4.0961,-4.0887,-4.0886,-4.0878,-4.0846,-4.0795,-4.0806,-4.0806,-4.081,-4.0796,-4.0806,-4.0757,-4.0746,-4.0717,-4.0623,-4.0604,-4.0604,-4.0643,-4.068,-4.0775,-4.087,-4.094,-4.1019,-4.1044,-4.0995,-4.07,-4.0192,-3.9165,-3.7741,-3.6382,-3.5842,-3.5834,-3.5803,-3.5815,-3.5811,-3.5803,-3.5811,-3.5807,-3.5803,-3.5795,-3.5795,-3.5795,-3.5795,-3.5795,-3.5795,-3.5795,-3.5795,-3.5795,-3.5795,-3.5795,-3.5795,-3.5806,-3.5658,-3.4326,-3.3208,-3.2339,-3.1582,-3.1248,-3.0873,-3.0806,-3.08,-3.08,-3.08,-3.08,-3.08,-4.5277,-4.5277,-4.5277,-4.5277,-4.5277,-4.5277,-4.5277,-4.5277,-4.5277,-4.4876,-4.4247,-4.4087,-4.3412,-4.2319,-4.2065,-4.1655,-4.1182,-4.1061,-4.1089,-4.1091,-4.11,-4.1109,-4.1104,-4.1108,-4.1109,-4.1109,-4.1109,-4.1109,-4.1109,-4.1109,-4.1109,-4.1109,-4.1109,-4.1109,-4.1109,-4.1109,-4.1109,-4.1109,-4.1109,-4.1109,-4.1109,-4.1109,-4.1109,-4.1109,-4.1109,-4.1109,-4.1108,-4.1085,-4.1085,-4.1108,-4.108,-4.1042,-4.1028,-4.0997,-4.0948,-4.0855,-4.0833,-4.0842,-4.0833,-4.0859,-4.0842,-4.082,-4.082,-4.081,-4.0767,-4.0747,-4.0766,-4.0776,-4.0801,-4.087,-4.0951,-4.1003,-4.1047,-4.1101,-4.108,-4.0413,-3.8855,-3.8539,-3.7692,-3.6362,-3.5882,-3.5868,-3.583,-3.5857,-3.5853,-3.5834,-3.585,-3.5853,-3.5807,-3.5795,-3.5795,-3.5795,-3.5795,-3.5795,-3.5795,-3.5795,-3.5795,-3.5803,-3.5811,-3.5823,-3.5593,-3.5486,-3.5188,-3.3871,-3.2675,-3.1814,-3.1203,-3.0927,-3.0787,-3.0783,-3.08,-3.08,-3.08,-3.08,-3.0997,-4.5277,-4.5277,-4.5277,-4.5277,-4.5277,-4.5277,-4.5277,-4.5277,-4.5277,-4.5173,-4.486,-4.4413,-4.4058,-4.3638,-4.259,-4.2056,-4.1919,-4.1401,-4.1107,-4.1099,-4.1101,-4.1104,-4.1108,-4.1109,-4.1109,-4.1109,-4.1109,-4.1109,-4.1109,-4.1109,-4.1109,-4.1109,-4.1109,-4.1109,-4.1109,-4.1109,-4.1109,-4.1109,-4.1109,-4.1109,-4.1109,-4.1109,-4.1109,-4.1109,-4.1109,-4.1109,-4.1109,-4.1109,-4.1109,-4.1109,-4.1109,-4.1106,-4.1072,-4.1072,-4.1042,-4.1013,-4.1013,-4.1015,-4.1013,-4.1013,-4.1014,-4.0951,-4.0924,-4.0898,-4.0815,-4.081,-4.081,-4.0824,-4.0882,-4.097,-4.1016,-4.1033,-4.1078,-4.1106,-4.1109,-4.042,-3.8978,-3.8458,-3.7839,-3.6292,-3.5921,-3.5882,-3.5891,-3.5875,-3.5868,-3.5838,-3.585,-3.5887,-3.583,-3.5795,-3.5795,-3.5795,-3.5795,-3.5795,-3.5795,-3.5795,-3.5799,-3.583,-3.5834,-3.5846,-3.5376,-3.482,-3.4266,-3.3357,-3.2323,-3.1415,-3.108,-3.0804,-3.0801,-3.08,-3.08,-3.08,-3.08,-3.082,-3.1231,-4.5277,-4.5277,-4.5277,-4.5277,-4.5277,-4.5277,-4.5277,-4.5277,-4.5297,-4.5348,-4.5275,-4.5003,-4.4704,-4.4376,-4.3641,-4.3125,-4.2849,-4.2041,-4.1683,-4.1594,-4.1283,-4.1129,-4.1109,-4.1109,-4.1109,-4.1109,-4.1109,-4.1109,-4.1109,-4.1109,-4.1109,-4.1109,-4.1109,-4.1109,-4.1109,-4.1109,-4.1109,-4.1109,-4.1109,-4.1109,-4.1109,-4.1109,-4.1109,-4.1109,-4.1109,-4.1109,-4.1109,-4.1109,-4.1109,-4.1109,-4.1109,-4.1109,-4.1109,-4.1109,-4.1109,-4.1109,-4.1109,-4.1108,-4.1109,-4.1109,-4.1099,-4.1059,-4.103,-4.0995,-4.0951,-4.0938,-4.0938,-4.0929,-4.1014,-4.1047,-4.1035,-4.1078,-4.1108,-4.1109,-4.1109,-4.0402,-3.8713,-3.8537,-3.7706,-3.6499,-3.5894,-3.5891,-3.5892,-3.5885,-3.5866,-3.5834,-3.5856,-3.5841,-3.583,-3.5803,-3.5795,-3.5799,-3.5795,-3.5795,-3.5799,-3.5799,-3.5836,-3.5846,-3.5841,-3.5863,-3.544,-3.4676,-3.4074,-3.3359,-3.2139,-3.127,-3.1075,-3.0898,-3.08,-3.08,-3.08,-3.08,-3.08,-3.0997,-3.1407,-4.5277,-4.5277,-4.5277,-4.5277,-4.5277,-4.5277,-4.5277,-4.5307,-4.5338,-4.5409,-4.5484,-4.5657,-4.5305,-4.4752,-4.4647,-4.4445,-4.3797,-4.2934,-4.2607,-4.2337,-4.1927,-4.1558,-4.1361,-4.1168,-4.1109,-4.1109,-4.1109,-4.1109,-4.1109,-4.1109,-4.1109,-4.1109,-4.1109,-4.1109,-4.1109,-4.1109,-4.1109,-4.1109,-4.1109,-4.1109,-4.1109,-4.1109,-4.1109,-4.1109,-4.1109,-4.1109,-4.1109,-4.1109,-4.1109,-4.1109,-4.1109,-4.1109,-4.1109,-4.1109,-4.1109,-4.1109,-4.1109,-4.1109,-4.1109,-4.1109,-4.1109,-4.1104,-4.1104,-4.1109,-4.108,-4.1076,-4.1076,-4.1055,-4.1108,-4.1085,-4.1085,-4.1109,-4.1109,-4.1109,-4.1109,-4.0328,-3.9079,-3.8611,-3.7921,-3.6245,-3.591,-3.5885,-3.5889,-3.5889,-3.5883,-3.5862,-3.5876,-3.5872,-3.5841,-3.5815,-3.5811,-3.5815,-3.5807,-3.5795,-3.5799,-3.5788,-3.5843,-3.5885,-3.5882,-3.5861,-3.5719,-3.5097,-3.4413,-3.3584,-3.2523,-3.1758,-3.127,-3.1094,-3.0917,-3.08,-3.08,-3.08,-3.082,-3.1172,-3.1563,-4.5277,-4.5277,-4.5277,-4.5277,-4.5277,-4.5277,-4.5288,-4.5317,-4.54,-4.5484,-4.5555,-4.5763,-4.5781,-4.5654,-4.5193,-4.4807,-4.4612,-4.3858,-4.343,-4.3391,-4.3294,-4.2708,-4.2123,-4.1558,-4.1148,-4.1129,-4.1109,-4.1109,-4.1109,-4.1109,-4.1109,-4.1109,-4.1109,-4.1109,-4.1109,-4.1109,-4.1109,-4.1109,-4.1109,-4.1109,-4.1109,-4.1109,-4.1109,-4.1109,-4.1109,-4.1109,-4.1109,-4.1109,-4.1109,-4.1109,-4.1109,-4.1109,-4.1109,-4.1109,-4.1109,-4.1109,-4.1109,-4.1109,-4.1109,-4.1109,-4.1109,-4.1109,-4.1109,-4.1109,-4.1109,-4.1109,-4.1109,-4.1109,-4.1109,-4.1109,-4.1109,-4.1109,-4.1109,-4.1109,-4.1012,-4.0387,-3.904,-3.8611,-3.7807,-3.6513,-3.5935,-3.5884,-3.5892,-3.5916,-3.5909,-3.5897,-3.5894,-3.59,-3.5872,-3.5834,-3.585,-3.5853,-3.5811,-3.5803,-3.5826,-3.5833,-3.586,-3.5893,-3.5911,-3.5917,-3.5779,-3.5503,-3.4817,-3.3973,-3.301,-3.2383,-3.1934,-3.1211,-3.1016,-3.0898,-3.0859,-3.0898,-3.1055,-3.1387,-3.2069,-4.5277,-4.5277,-4.5277,-4.5277,-4.5298,-4.536,-4.5419,-4.5419,-4.5535,-4.5619,-4.571,-4.5869,-4.6002,-4.607,-4.5708,-4.5536,-4.5398,-4.4719,-4.4075,-4.3782,-4.3666,-4.343,-4.3118,-4.2476,-4.2007,-4.1324,-4.1109,-4.1109,-4.1109,-4.1109,-4.1109,-4.1109,-4.1109,-4.1109,-4.1109,-4.1109,-4.1109,-4.1109,-4.1109,-4.1109,-4.1109,-4.1109,-4.1109,-4.1109,-4.1109,-4.1109,-4.1109,-4.1109,-4.1109,-4.1109,-4.1109,-4.1109,-4.1109,-4.1109,-4.1109,-4.1109,-4.1109,-4.1109,-4.1109,-4.1109,-4.1109,-4.1109,-4.1109,-4.1109,-4.1109,-4.1109,-4.1109,-4.1109,-4.1109,-4.1109,-4.1109,-4.1109,-4.1109,-4.1012,-4.0717,-3.9956,-3.8942,-3.8591,-3.7926,-3.6518,-3.5965,-3.5937,-3.5912,-3.5933,-3.5921,-3.5914,-3.5883,-3.5885,-3.5897,-3.5866,-3.5872,-3.5864,-3.5815,-3.5803,-3.5837,-3.5853,-3.5883,-3.5916,-3.5937,-3.5953,-3.5924,-3.5593,-3.5205,-3.4419,-3.371,-3.3339,-3.2831,-3.2031,-3.1407,-3.1426,-3.1426,-3.125,-3.1368,-3.1856,-3.2731,-4.5277,-4.5277,-4.5277,-4.5277,-4.5309,-4.5429,-4.5495,-4.5512,-4.5665,-4.5796,-4.5917,-4.5998,-4.6111,-4.6164,-4.6194,-4.6228,-4.6062,-4.5617,-4.4894,-4.4445,-4.4408,-4.4192,-4.3957,-4.3684,-4.3081,-4.1617,-4.1441,-4.1363,-4.1168,-4.1109,-4.1109,-4.1109,-4.1109,-4.1109,-4.1109,-4.1109,-4.1109,-4.1109,-4.1109,-4.1109,-4.1109,-4.1109,-4.1109,-4.1109,-4.1109,-4.1109,-4.1109,-4.1109,-4.1109,-4.1109,-4.1109,-4.1109,-4.1109,-4.1109,-4.1109,-4.1109,-4.1109,-4.1109,-4.1109,-4.1109,-4.1109,-4.1109,-4.1109,-4.1109,-4.1109,-4.1109,-4.1109,-4.1109,-4.1109,-4.1109,-4.1109,-4.1109,-4.1012,-4.0776,-4.019,-3.9429,-3.865,-3.8396,-3.7516,-3.6441,-3.5989,-3.5965,-3.5962,-3.5962,-3.5947,-3.5916,-3.5903,-3.5901,-3.5899,-3.5894,-3.5898,-3.5882,-3.5857,-3.5833,-3.586,-3.5885,-3.5897,-3.5936,-3.5967,-3.5982,-3.6012,-3.5821,-3.5512,-3.5178,-3.4608,-3.4159,-3.3632,-3.289,-3.2402,-3.2226,-3.2109,-3.2088,-3.2207,-3.2383,-3.3355,-4.5277,-4.5277,-4.5277,-4.5277,-4.5328,-4.5438,-4.5513,-4.5547,-4.5757,-4.5911,-4.5983,-4.6114,-4.6206,-4.6271,-4.6277,-4.6298,-4.6241,-4.5987,-4.587,-4.5656,-4.5618,-4.5402,-4.4855,-4.4758,-4.4192,-4.3333,-4.263,-4.1967,-4.1324,-4.1109,-4.1109,-4.1109,-4.1109,-4.1109,-4.1109,-4.1109,-4.1109,-4.1109,-4.1109,-4.1109,-4.1109,-4.1109,-4.1109,-4.1109,-4.1109,-4.1109,-4.1109,-4.1109,-4.1109,-4.1109,-4.1109,-4.1109,-4.1109,-4.1109,-4.1109,-4.1109,-4.1109,-4.1109,-4.1109,-4.1109,-4.1109,-4.1109,-4.1109,-4.1109,-4.1109,-4.1109,-4.1109,-4.1109,-4.1109,-4.1109,-4.1109,-4.1109,-4.0698,-4.0249,-3.978,-3.9156,-3.8004,-3.7458,-3.7184,-3.6187,-3.6031,-3.6012,-3.6009,-3.5988,-3.5981,-3.5953,-3.5933,-3.5914,-3.5923,-3.5899,-3.5897,-3.5898,-3.5878,-3.5872,-3.5878,-3.5909,-3.5918,-3.597,-3.5998,-3.5998,-3.6012,-3.6012,-3.5797,-3.5504,-3.5174,-3.4744,-3.4198,-3.3671,-3.3378,-3.3144,-3.3046,-3.2947,-3.3144,-3.3358,-3.3901,-4.5277,-4.5277,-4.5277,-4.5277,-4.5339,-4.5537,-4.5599,-4.5661,-4.5919,-4.6068,-4.6121,-4.6206,-4.6271,-4.63,-4.6302,-4.6302,-4.6302,-4.6302,-4.6302,-4.6302,-4.6262,-4.6144,-4.5656,-4.5636,-4.5129,-4.4484,-4.3879,-4.2962,-4.1849,-4.1303,-4.1168,-4.1109,-4.1109,-4.1109,-4.1109,-4.1109,-4.1109,-4.1109,-4.1109,-4.1109,-4.1109,-4.1109,-4.1109,-4.1109,-4.1109,-4.1109,-4.1109,-4.1109,-4.1109,-4.1109,-4.1109,-4.1109,-4.1109,-4.1109,-4.1109,-4.1109,-4.1109,-4.1109,-4.1109,-4.1109,-4.1109,-4.1109,-4.1109,-4.1109,-4.1109,-4.1109,-4.1109,-4.1109,-4.1109,-4.1109,-4.1109,-4.109,-4.0659,-3.9937,-3.9429,-3.857,-3.7594,-3.6968,-3.648,-3.607,-3.6031,-3.6012,-3.6012,-3.601,-3.601,-3.5989,-3.5965,-3.5942,-3.5958,-3.5919,-3.5892,-3.589,-3.5898,-3.5898,-3.5898,-3.5937,-3.5934,-3.5982,-3.6012,-3.6012,-3.6012,-3.6012,-3.6012,-3.5875,-3.5543,-3.5232,-3.5057,-3.4666,-3.4354,-3.4003,-3.3709,-3.3572,-3.3983,-3.4392,-3.4836,-4.5277,-4.5288,-4.5317,-4.5319,-4.5381,-4.5611,-4.575,-4.582,-4.6061,-4.6201,-4.6211,-4.6271,-4.63,-4.6302,-4.6302,-4.6302,-4.6302,-4.6302,-4.6302,-4.6302,-4.6302,-4.6282,-4.6282,-4.6223,-4.589,-4.5343,-4.4836,-4.4094,-4.2494,-4.1771,-4.1343,-4.1148,-4.1109,-4.1109,-4.1109,-4.1109,-4.1109,-4.1109,-4.1109,-4.1109,-4.1109,-4.1109,-4.1109,-4.1109,-4.1109,-4.1109,-4.1109,-4.1109,-4.1109,-4.1109,-4.1109,-4.1109,-4.1109,-4.1109,-4.1109,-4.1109,-4.1109,-4.1109,-4.1109,-4.1109,-4.1109,-4.1109,-4.1109,-4.1109,-4.1109,-4.1109,-4.1109,-4.1109,-4.1109,-4.1109,-4.109,-4.0914,-4.0366,-3.9605,-3.8765,-3.7985,-3.7145,-3.6539,-3.6265,-3.6012,-3.6012,-3.6012,-3.6012,-3.6012,-3.6012,-3.6012,-3.5988,-3.5942,-3.5937,-3.5923,-3.5895,-3.5885,-3.5898,-3.5898,-3.5918,-3.5957,-3.5985,-3.5998,-3.6012,-3.6012,-3.6012,-3.6012,-3.6012,-3.6012,-3.5953,-3.568,-3.566,-3.5564,-3.5193,-3.4763,-3.4275,-3.4294,-3.4821,-3.5054,-3.5324,-4.5277,-4.5288,-4.5359,-4.5419,-4.5513,-4.5701,-4.5846,-4.5993,-4.6131,-4.6206,-4.6211,-4.6271,-4.6302,-4.6302,-4.6302,-4.6302,-4.6302,-4.6302,-4.6302,-4.6302,-4.6302,-4.6302,-4.6302,-4.6302,-4.6243,-4.589,-4.5363,-4.4036,-4.2903,-4.2396,-4.1771,-4.1264,-4.1109,-4.1109,-4.1109,-4.1109,-4.1109,-4.1109,-4.1109,-4.1109,-4.1109,-4.1109,-4.1109,-4.1109,-4.1109,-4.1109,-4.1109,-4.1109,-4.1109,-4.1109,-4.1109,-4.1109,-4.1109,-4.1109,-4.1109,-4.1109,-4.1109,-4.1109,-4.1109,-4.1109,-4.1109,-4.1109,-4.1109,-4.1109,-4.1109,-4.1109,-4.1109,-4.1109,-4.1109,-4.1012,-4.0834,-4.0385,-3.9644,-3.8863,-3.8082,-3.7223,-3.6422,-3.6363,-3.6051,-3.6012,-3.6012,-3.6012,-3.6012,-3.6012,-3.6012,-3.6012,-3.601,-3.5965,-3.5947,-3.5924,-3.5898,-3.5882,-3.5916,-3.5918,-3.5918,-3.5976,-3.5998,-3.6012,-3.6012,-3.6012,-3.601,-3.601,-3.6012,-3.6012,-3.601,-3.601,-3.5875,-3.5797,-3.5797,-3.5563,-3.5114,-3.5329,-3.5778,-3.5872,-3.575,-4.5059,-4.5467,-4.5505,-4.5538,-4.5595,-4.577,-4.5908,-4.6013,-4.6181,-4.6267,-4.6269,-4.6277,-4.6302,-4.6302,-4.6302,-4.6302,-4.6302,-4.6302,-4.6302,-4.6302,-4.6302,-4.6302,-4.6302,-4.6302,-4.6302,-4.6204,-4.587,-4.5246,-4.3957,-4.2786,-4.1967,-4.1265,-4.1109,-4.1109,-4.1109,-4.1109,-4.1109,-4.1109,-4.1109,-4.1109,-4.1109,-4.1109,-4.1109,-4.1109,-4.1109,-4.1109,-4.1109,-4.1109,-4.1109,-4.1109,-4.1109,-4.1109,-4.1109,-4.1109,-4.1109,-4.1109,-4.1109,-4.1109,-4.1109,-4.1109,-4.1109,-4.1109,-4.1109,-4.1109,-4.1109,-4.1109,-4.1109,-4.1109,-4.1109,-4.0914,-4.0503,-4.0034,-3.9078,-3.8219,-3.7497,-3.689,-3.6265,-3.6129,-3.6012,-3.6012,-3.6012,-3.6012,-3.6012,-3.6012,-3.6012,-3.6012,-3.5995,-3.5977,-3.5968,-3.5956,-3.5934,-3.5893,-3.5937,-3.5976,-3.5957,-3.5977,-3.5995,-3.6012,-3.6012,-3.601,-3.601,-3.601,-3.6009,-3.6007,-3.6007,-3.6007,-3.601,-3.5973,-3.5914,-3.5953,-3.5992,-3.601,-3.601,-3.5983,-3.5873,-4.4879,-4.5403,-4.5603,-4.5688,-4.5731,-4.5886,-4.5992,-4.6092,-4.6243,-4.63,-4.6302,-4.6302,-4.6302,-4.6302,-4.6302,-4.6302,-4.6302,-4.6302,-4.6302,-4.6302,-4.6302,-4.6302,-4.6302,-4.6302,-4.6302,-4.6302,-4.6223,-4.5636,-4.468,-4.3567,-4.2376,-4.1422,-4.1207,-4.1129,-4.1109,-4.1109,-4.1109,-4.1109,-4.1109,-4.1109,-4.1109,-4.1109,-4.1109,-4.1109,-4.1109,-4.1109,-4.1109,-4.1109,-4.1109,-4.1109,-4.1109,-4.1109,-4.1109,-4.1109,-4.1109,-4.1109,-4.1109,-4.1109,-4.1109,-4.1109,-4.1109,-4.1109,-4.1109,-4.1109,-4.1109,-4.1109,-4.1109,-4.1109,-4.1109,-4.0639,-4.0015,-3.9663,-3.8746,-3.7848,-3.7087,-3.6597,-3.6207,-3.609,-3.6012,-3.6012,-3.6012,-3.6012,-3.6012,-3.6012,-3.6012,-3.6012,-3.5996,-3.5984,-3.5975,-3.5974,-3.5956,-3.5918,-3.5934,-3.5979,-3.5996,-3.5994,-3.6012,-3.601,-3.601,-3.6009,-3.6007,-3.6004,-3.602,-3.602,-3.6002,-3.6007,-3.601,-3.601,-3.6012,-3.6012,-3.601,-3.601,-3.6007,-3.5976,-3.5929,-4.4865,-4.4909,-4.5576,-4.5899,-4.5985,-4.6061,-4.6167,-4.6249,-4.6277,-4.6302,-4.6302,-4.6302,-4.6302,-4.6302,-4.6302,-4.6302,-4.6302,-4.6302,-4.6302,-4.6302,-4.6302,-4.6302,-4.6302,-4.6302,-4.6302,-4.6302,-4.6282,-4.5831,-4.4992,-4.4036,-4.3079,-4.2337,-4.1519,-4.1207,-4.1109,-4.1109,-4.1109,-4.1109,-4.1109,-4.1109,-4.1109,-4.1109,-4.1109,-4.1109,-4.1109,-4.1109,-4.1109,-4.1109,-4.1109,-4.1109,-4.1109,-4.1109,-4.1109,-4.1109,-4.1109,-4.1109,-4.1109,-4.1109,-4.1109,-4.1109,-4.1109,-4.1109,-4.1109,-4.1109,-4.1109,-4.1109,-4.1109,-4.1109,-4.1109,-4.06,-3.9858,-3.9118,-3.8376,-3.7379,-3.6675,-3.6383,-3.609,-3.607,-3.6012,-3.6012,-3.6012,-3.6012,-3.6017,-3.6017,-3.6013,-3.6013,-3.5988,-3.5973,-3.5957,-3.5954,-3.5951,-3.5951,-3.5964,-3.5995,-3.6013,-3.6012,-3.601,-3.6007,-3.6006,-3.6004,-3.602,-3.6017,-3.599,-3.6017,-3.602,-3.6006,-3.6009,-3.601,-3.6012,-3.6012,-3.601,-3.5986,-3.5947,-3.5902,-3.584,-4.3989,-4.4947,-4.5241,-4.5615,-4.6049,-4.6075,-4.6178,-4.6277,-4.6302,-4.6302,-4.6302,-4.6302,-4.6302,-4.6302,-4.6302,-4.6302,-4.6302,-4.6302,-4.6302,-4.6302,-4.6302,-4.6302,-4.6302,-4.6302,-4.6302,-4.6302,-4.6282,-4.6223,-4.5773,-4.4387,-4.3723,-4.2903,-4.1791,-4.1265,-4.1109,-4.1109,-4.1109,-4.1109,-4.1109,-4.1109,-4.1109,-4.1109,-4.1109,-4.1109,-4.1109,-4.1109,-4.1109,-4.1109,-4.1109,-4.1109,-4.1109,-4.1109,-4.1109,-4.1109,-4.1109,-4.1109,-4.1109,-4.1109,-4.1109,-4.1109,-4.1109,-4.1109,-4.1109,-4.1109,-4.1109,-4.1109,-4.1109,-4.1109,-4.109,-4.062,-3.9235,-3.8728,-3.816,-3.6968,-3.6285,-3.609,-3.6012,-3.6012,-3.6012,-3.6012,-3.6012,-3.6012,-3.6018,-3.6004,-3.6019,-3.6017,-3.5992,-3.5976,-3.5954,-3.5948,-3.5941,-3.5958,-3.597,-3.5988,-3.6006,-3.6007,-3.601,-3.6006,-3.6002,-3.5997,-3.5992,-3.5942,-3.594,-3.5968,-3.6017,-3.602,-3.6006,-3.601,-3.6012,-3.6012,-3.5986,-3.5958,-3.5909,-3.5814,-3.5725,-4.3261,-4.46,-4.4875,-4.5443,-4.6114,-4.617,-4.6211,-4.6277,-4.6302,-4.6302,-4.6302,-4.6302,-4.6302,-4.6302,-4.6302,-4.6302,-4.6302,-4.6302,-4.6302,-4.6302,-4.6302,-4.6302,-4.6302,-4.6302,-4.6302,-4.6302,-4.6302,-4.6262,-4.6126,-4.4504,-4.3821,-4.3139,-4.2066,-4.1285,-4.1109,-4.1109,-4.1109,-4.1109,-4.1109,-4.1109,-4.1109,-4.1109,-4.1109,-4.1109,-4.1109,-4.1109,-4.1109,-4.1109,-4.1109,-4.1109,-4.1109,-4.1109,-4.1109,-4.1109,-4.1109,-4.1109,-4.1109,-4.1109,-4.1109,-4.1109,-4.1109,-4.1109,-4.1109,-4.1109,-4.1109,-4.1109,-4.1109,-4.1109,-4.1051,-4.0446,-3.8864,-3.8552,-3.7809,-3.6656,-3.6226,-3.6012,-3.6012,-3.6012,-3.6012,-3.6012,-3.6012,-3.6014,-3.6009,-3.5994,-3.5995,-3.5995,-3.5956,-3.5949,-3.5942,-3.5929,-3.5931,-3.5951,-3.5974,-3.5995,-3.6019,-3.6022,-3.6004,-3.6002,-3.5997,-3.597,-3.5942,-3.5912,-3.5914,-3.5986,-3.6013,-3.6017,-3.6002,-3.6009,-3.601,-3.6012,-3.5955,-3.5885,-3.579,-3.5687,-3.5595,-4.2921,-4.3801,-4.4621,-4.5459,-4.6236,-4.6298,-4.63,-4.6302,-4.6302,-4.6302,-4.6302,-4.6302,-4.6302,-4.6302,-4.6302,-4.6302,-4.6302,-4.6302,-4.6302,-4.6302,-4.6302,-4.6302,-4.6302,-4.6302,-4.6302,-4.6302,-4.6302,-4.6302,-4.6262,-4.4524,-4.384,-4.3217,-4.2066,-4.1109,-4.1109,-4.1109,-4.1109,-4.1109,-4.1109,-4.1109,-4.1109,-4.1111,-4.1114,-4.1115,-4.1099,-4.1101,-4.1116,-4.1115,-4.1115,-4.1109,-4.1109,-4.1109,-4.1109,-4.1109,-4.1109,-4.1109,-4.1109,-4.1109,-4.1109,-4.1109,-4.1109,-4.1109,-4.1109,-4.1109,-4.1109,-4.1109,-4.1109,-4.1109,-4.109,-4.027,-3.9294,-3.8494,-3.7536,-3.6617,-3.6187,-3.6012,-3.6012,-3.6012,-3.6012,-3.6019,-3.6019,-3.6001,-3.5994,-3.5976,-3.5992,-3.5968,-3.5936,-3.5924,-3.5917,-3.5908,-3.5909,-3.5931,-3.5958,-3.5964,-3.597,-3.5995,-3.6017,-3.6015,-3.5992,-3.5942,-3.5934,-3.5902,-3.5929,-3.6001,-3.6009,-3.6013,-3.6002,-3.601,-3.5972,-3.5904,-3.5858,-3.5767,-3.5664,-3.5582,-3.5476,-4.2396,-4.3705,-4.4016,-4.4972,-4.6184,-4.6302,-4.6302,-4.6302,-4.6302,-4.6302,-4.6302,-4.6302,-4.6302,-4.6302,-4.6302,-4.6302,-4.6302,-4.6302,-4.6302,-4.6302,-4.6302,-4.6302,-4.6302,-4.6302,-4.6302,-4.6302,-4.6302,-4.6282,-4.6282,-4.4543,-4.3821,-4.3276,-4.1988,-4.1207,-4.1109,-4.1109,-4.1109,-4.1109,-4.1109,-4.1109,-4.1111,-4.1101,-4.1107,-4.1106,-4.1111,-4.1112,-4.1108,-4.1107,-4.1104,-4.1116,-4.1115,-4.1114,-4.1114,-4.1114,-4.1112,-4.1111,-4.1109,-4.1109,-4.1109,-4.1109,-4.1109,-4.1109,-4.1109,-4.1109,-4.1109,-4.1109,-4.1109,-4.1109,-4.1109,-4.0211,-3.904,-3.8669,-3.7809,-3.6519,-3.6012,-3.6012,-3.6012,-3.6012,-3.6014,-3.6008,-3.6011,-3.5976,-3.5951,-3.5945,-3.5956,-3.595,-3.5916,-3.5906,-3.5895,-3.589,-3.5894,-3.5899,-3.5907,-3.5914,-3.594,-3.5966,-3.5968,-3.5945,-3.5938,-3.5912,-3.5902,-3.5894,-3.5921,-3.5953,-3.5984,-3.6009,-3.5966,-3.5914,-3.5843,-3.5776,-3.5713,-3.564,-3.5563,-3.547,-3.5399,-4.2105,-4.3647,-4.3705,-4.4699,-4.6163,-4.6302,-4.6302,-4.6302,-4.6302,-4.6302,-4.6302,-4.6302,-4.6302,-4.6302,-4.6302,-4.6302,-4.6302,-4.6302,-4.6302,-4.6302,-4.6302,-4.6302,-4.6302,-4.6302,-4.6302,-4.6302,-4.6262,-4.6204,-4.5714,-4.4408,-4.3374,-4.2515,-4.1714,-4.1226,-4.1109,-4.1109,-4.1109,-4.1111,-4.1114,-4.1117,-4.11,-4.1107,-4.1113,-4.1113,-4.1113,-4.1111,-4.1113,-4.1113,-4.1113,-4.1109,-4.1107,-4.1107,-4.1107,-4.1107,-4.1105,-4.1102,-4.1099,-4.1103,-4.1108,-4.1102,-4.1102,-4.1101,-4.1115,-4.1109,-4.1109,-4.1109,-4.1109,-4.1109,-4.109,-4.0114,-3.9001,-3.8708,-3.783,-3.6521,-3.6013,-3.6013,-3.6003,-3.6004,-3.6009,-3.5995,-3.5996,-3.5948,-3.591,-3.5896,-3.5903,-3.5897,-3.589,-3.5883,-3.5894,-3.5892,-3.5889,-3.5892,-3.5897,-3.5904,-3.5912,-3.5936,-3.5916,-3.589,-3.5887,-3.5883,-3.5897,-3.5892,-3.5897,-3.5919,-3.5916,-3.5911,-3.5864,-3.5814,-3.5713,-3.5626,-3.5546,-3.5482,-3.5438,-3.5378,-3.5314,-4.2105,-4.3588,-4.3705,-4.4719,-4.6124,-4.6302,-4.6302,-4.6302,-4.6302,-4.6302,-4.6302,-4.6302,-4.6302,-4.6302,-4.6302,-4.6302,-4.6302,-4.6302,-4.6302,-4.6302,-4.6302,-4.6302,-4.6302,-4.6302,-4.6302,-4.6302,-4.6223,-4.589,-4.5031,-4.3899,-4.2689,-4.1675,-4.1285,-4.1109,-4.1109,-4.1109,-4.1111,-4.1117,-4.1104,-4.1106,-4.1108,-4.1113,-4.1112,-4.1111,-4.1107,-4.1102,-4.1105,-4.1107,-4.1108,-4.111,-4.111,-4.1109,-4.1108,-4.1108,-4.1113,-4.1113,-4.1112,-4.1113,-4.1113,-4.1113,-4.1112,-4.1111,-4.1105,-4.1116,-4.1109,-4.1109,-4.1109,-4.1012,-4.0894,-3.9899,-3.8962,-3.8357,-3.7732,-3.6836,-3.6095,-3.6005,-3.6013,-3.5996,-3.5996,-3.5994,-3.5989,-3.5956,-3.5917,-3.5897,-3.5885,-3.5883,-3.5899,-3.5897,-3.5892,-3.5892,-3.5889,-3.5889,-3.5894,-3.5897,-3.5902,-3.5907,-3.5907,-3.5883,-3.5883,-3.588,-3.5894,-3.5886,-3.5886,-3.5878,-3.5833,-3.579,-3.5722,-3.5659,-3.556,-3.5476,-3.5418,-3.5397,-3.5367,-3.5289,-3.5219,-4.2124,-4.3666,-4.3705,-4.4699,-4.6165,-4.6302,-4.6302,-4.6302,-4.6302,-4.6302,-4.6302,-4.6302,-4.6302,-4.6302,-4.6302,-4.6302,-4.6302,-4.6302,-4.6302,-4.6302,-4.6302,-4.6302,-4.6302,-4.6302,-4.6302,-4.6282,-4.6163,-4.5714,-4.4777,-4.3606,-4.2318,-4.1304,-4.1129,-4.1109,-4.1111,-4.1109,-4.11,-4.1108,-4.1112,-4.1112,-4.1113,-4.1102,-4.1098,-4.1114,-4.1117,-4.1113,-4.1103,-4.1106,-4.1112,-4.1103,-4.1106,-4.1107,-4.1107,-4.1107,-4.111,-4.1111,-4.1111,-4.111,-4.1108,-4.111,-4.1111,-4.1112,-4.1113,-4.111,-4.1101,-4.1074,-4.1055,-4.0857,-4.051,-3.9615,-3.8659,-3.7974,-3.7314,-3.6576,-3.6031,-3.5995,-3.5996,-3.5974,-3.597,-3.5939,-3.5947,-3.5937,-3.5895,-3.5887,-3.5897,-3.5892,-3.5889,-3.5889,-3.5889,-3.5889,-3.5889,-3.5889,-3.5889,-3.5894,-3.5894,-3.5897,-3.5897,-3.5894,-3.5897,-3.5894,-3.588,-3.5872,-3.5869,-3.5817,-3.5721,-3.5645,-3.5567,-3.5504,-3.5451,-3.5404,-3.5357,-3.5331,-3.5293,-3.5234,-3.5182,-4.2105,-4.3608,-4.3705,-4.4699,-4.6124,-4.6302,-4.6302,-4.6302,-4.6302,-4.6302,-4.6302,-4.6302,-4.6302,-4.6302,-4.6302,-4.6302,-4.6302,-4.6302,-4.6302,-4.6302,-4.6302,-4.6302,-4.6302,-4.6282,-4.6302,-4.6223,-4.5831,-4.5226,-4.425,-4.2864,-4.15,-4.1187,-4.1109,-4.1115,-4.1099,-4.1104,-4.1112,-4.1113,-4.1112,-4.1112,-4.1103,-4.1099,-4.1105,-4.1103,-4.1112,-4.1114,-4.1108,-4.1113,-4.1107,-4.1101,-4.1103,-4.1103,-4.1106,-4.1109,-4.1108,-4.1108,-4.1114,-4.1108,-4.1103,-4.1112,-4.1115,-4.1099,-4.1064,-4.0858,-4.084,-4.0819,-4.0694,-4.0511,-4.0011,-3.939,-3.8451,-3.7552,-3.6834,-3.6113,-3.6035,-3.5994,-3.5971,-3.5964,-3.5931,-3.591,-3.5892,-3.5902,-3.5892,-3.5889,-3.5889,-3.5889,-3.5889,-3.5889,-3.5889,-3.5889,-3.5889,-3.5889,-3.5889,-3.5892,-3.5889,-3.5889,-3.5886,-3.5889,-3.5892,-3.5886,-3.5869,-3.5813,-3.5764,-3.5687,-3.5611,-3.5541,-3.547,-3.5438,-3.5376,-3.5335,-3.5281,-3.5258,-3.5261,-3.5226,-3.5209,-4.2124,-4.3725,-4.3862,-4.4896,-4.6184,-4.6302,-4.6302,-4.6302,-4.6302,-4.6302,-4.6302,-4.6302,-4.6302,-4.6302,-4.6302,-4.6302,-4.6302,-4.6302,-4.6302,-4.6282,-4.6302,-4.6302,-4.6282,-4.6223,-4.5968,-4.5792,-4.5304,-4.4426,-4.3372,-4.2183,-4.1304,-4.1111,-4.1114,-4.1102,-4.1112,-4.1112,-4.1112,-4.1099,-4.1099,-4.1101,-4.1111,-4.1103,-4.1109,-4.1115,-4.1114,-4.1114,-4.1114,-4.111,-4.1107,-4.111,-4.1114,-4.11,-4.1114,-4.1111,-4.1103,-4.1103,-4.1098,-4.1113,-4.1108,-4.1118,-4.1107,-4.108,-4.0995,-4.0574,-4.0404,-4.0467,-4.037,-3.9743,-3.9179,-3.8613,-3.7773,-3.7129,-3.6483,-3.6089,-3.5987,-3.5941,-3.5928,-3.5919,-3.591,-3.5887,-3.5883,-3.5889,-3.5889,-3.5889,-3.5889,-3.5889,-3.5889,-3.5889,-3.5889,-3.5889,-3.5889,-3.5889,-3.5889,-3.5889,-3.5889,-3.5886,-3.5861,-3.5861,-3.5858,-3.582,-3.5749,-3.5706,-3.565,-3.5585,-3.5525,-3.5444,-3.5381,-3.5364,-3.5342,-3.5289,-3.5242,-3.5198,-3.5209,-3.5209,-3.5209,-4.2124,-4.3822,-4.513,-4.5948,-4.6282,-4.6302,-4.6302,-4.6302,-4.6302,-4.6302,-4.6302,-4.6302,-4.6302,-4.6302,-4.6302,-4.6302,-4.6302,-4.6302,-4.6302,-4.6204,-4.6184,-4.5989,-4.6046,-4.5519,-4.5363,-4.5031,-4.4426,-4.3569,-4.2633,-4.1678,-4.1098,-4.1107,-4.1108,-4.1112,-4.1111,-4.1111,-4.1102,-4.1109,-4.1115,-4.1113,-4.1111,-4.1117,-4.11,-4.1106,-4.111,-4.1107,-4.1107,-4.1107,-4.1107,-4.111,-4.111,-4.111,-4.111,-4.1103,-4.11,-4.1117,-4.1103,-4.11,-4.11,-4.1084,-4.1053,-4.08,-4.0582,-4.0149,-3.9951,-4.0066,-3.9742,-3.8944,-3.8319,-3.7771,-3.7223,-3.6673,-3.6259,-3.6076,-3.5911,-3.5914,-3.589,-3.5887,-3.5883,-3.5897,-3.5892,-3.5889,-3.5889,-3.5889,-3.5889,-3.5889,-3.5889,-3.5889,-3.5889,-3.5889,-3.5889,-3.5889,-3.5889,-3.5889,-3.5889,-3.5883,-3.5855,-3.5804,-3.5783,-3.5704,-3.5645,-3.5588,-3.5531,-3.5508,-3.545,-3.5386,-3.5346,-3.5324,-3.5293,-3.5261,-3.5226,-3.519,-3.5182,-3.5209,-3.5182,-4.1888,-4.3294,-4.4992,-4.5948,-4.6262,-4.6302,-4.6302,-4.6302,-4.6302,-4.6302,-4.6302,-4.6302,-4.6302,-4.6302,-4.6302,-4.6262,-4.6262,-4.6302,-4.5968,-4.5812,-4.5656,-4.5343,-4.507,-4.4699,-4.4543,-4.4211,-4.351,-4.2692,-4.1917,-4.1494,-4.1108,-4.1094,-4.1093,-4.111,-4.1098,-4.1094,-4.1103,-4.1108,-4.1108,-4.1092,-4.1104,-4.1107,-4.1107,-4.1107,-4.1107,-4.1107,-4.1107,-4.1107,-4.1107,-4.1107,-4.1107,-4.1107,-4.1107,-4.111,-4.111,-4.111,-4.111,-4.1107,-4.1107,-4.1029,-4.0893,-4.0506,-4.0175,-3.9777,-3.849,-3.8498,-3.8499,-3.782,-3.7765,-3.729,-3.6695,-3.6145,-3.6075,-3.5945,-3.5901,-3.589,-3.5899,-3.5897,-3.5894,-3.5892,-3.5889,-3.5889,-3.5889,-3.5889,-3.5889,-3.5889,-3.5889,-3.5889,-3.5889,-3.5889,-3.5889,-3.5889,-3.5889,-3.5889,-3.5889,-3.5858,-3.5846,-3.5767,-3.5704,-3.5606,-3.5535,-3.547,-3.5422,-3.5407,-3.5379,-3.5361,-3.5308,-3.5304,-3.5261,-3.5218,-3.519,-3.5182,-3.5182,-3.5182,-3.5182,-4.1615,-4.2591,-4.4288,-4.5421,-4.6105,-4.6262,-4.6302,-4.6302,-4.6302,-4.6302,-4.6243,-4.6144,-4.6165,-4.6282,-4.6302,-4.6223,-4.6105,-4.5909,-4.5539,-4.5012,-4.4836,-4.4602,-4.4154,-4.3665,-4.345,-4.3099,-4.2513,-4.1919,-4.1283,-4.1091,-4.1074,-4.1069,-4.1078,-4.107,-4.107,-4.1074,-4.1053,-4.1042,-4.1032,-4.1055,-4.1075,-4.1104,-4.1107,-4.1107,-4.1107,-4.1107,-4.1107,-4.1107,-4.1107,-4.1107,-4.1107,-4.1107,-4.1107,-4.1107,-4.1107,-4.1107,-4.1107,-4.1107,-4.1068,-4.0877,-4.0467,-4.0039,-3.9747,-3.8889,-3.7587,-3.7157,-3.7148,-3.7086,-3.7021,-3.6821,-3.6211,-3.594,-3.5904,-3.5894,-3.5894,-3.5892,-3.5892,-3.5889,-3.5889,-3.5889,-3.5889,-3.5889,-3.5889,-3.5889,-3.5889,-3.5889,-3.5889,-3.5889,-3.5889,-3.5889,-3.5889,-3.5889,-3.5889,-3.5889,-3.5889,-3.5843,-3.5801,-3.5704,-3.5621,-3.5535,-3.5438,-3.5376,-3.5335,-3.5316,-3.5285,-3.5293,-3.5277,-3.5253,-3.5218,-3.5182,-3.5182,-3.5182,-3.5182,-3.5182,-3.5182,-4.1596,-4.2552,-4.427,-4.5109,-4.5363,-4.5968,-4.6302,-4.6302,-4.6302,-4.6302,-4.6066,-4.5597,-4.5578,-4.6282,-4.6302,-4.5987,-4.5265,-4.5226,-4.4699,-4.4055,-4.3957,-4.3821,-4.3452,-4.2788,-4.222,-4.1873,-4.1604,-4.1293,-4.1055,-4.1033,-4.1008,-4.1021,-4.0959,-4.0945,-4.0933,-4.0945,-4.0949,-4.0952,-4.0948,-4.0952,-4.0988,-4.1027,-4.1104,-4.1107,-4.1107,-4.1107,-4.1107,-4.1107,-4.1107,-4.1107,-4.1104,-4.1101,-4.1104,-4.1101,-4.1101,-4.1104,-4.1104,-4.1104,-4.1007,-4.0542,-4.0016,-3.9591,-3.9045,-3.7896,-3.6963,-3.6496,-3.6438,-3.6321,-3.6284,-3.6284,-3.5902,-3.5902,-3.5892,-3.5892,-3.5892,-3.5892,-3.5889,-3.5889,-3.5889,-3.5889,-3.5889,-3.5889,-3.5889,-3.5889,-3.5889,-3.5889,-3.5889,-3.5889,-3.5889,-3.5889,-3.5889,-3.5886,-3.5886,-3.5889,-3.5889,-3.579,-3.5725,-3.5636,-3.5543,-3.5432,-3.5355,-3.5327,-3.5277,-3.5261,-3.5261,-3.5269,-3.5234,-3.5218,-3.5209,-3.5182,-3.5182,-3.5182,-3.5182,-3.5182,-3.5182]},{"header":{"parameterUnit":"m.s-1","parameterCategory":1,"la1":31.0,"la2":29.5877,"lo1":-88.7671,"lo2":-86.6584,"dy":0.0162,"dx":0.0185,"nx":115,"ny":88,"refTime":"2023-05-03T06:00:00:Z","depth":0,"parameterNumber":3,"parameterNumberName":"V-component_of_WINDS"},"data":[0.0,0.0,0.0,0.0,0.0,0.0,0.0,0.0,0.0,0.0,0.0,0.0,0.0,0.0,0.0,0.0,0.0,0.0,0.0,0.0,0.0,0.0,0.0,0.0,0.0,0.0,0.0,0.0,0.0,0.0,0.0,0.0,0.0,0.0,0.0,0.0,0.0,0.0,0.0,0.0,0.0,0.0,0.0,0.0,0.0,0.0,0.0,0.0,0.0,0.0,0.0,0.0,0.0,0.0,0.0,0.0,0.0,0.0,0.0,0.0,0.0,0.0,0.0,0.0,0.0,0.0,0.0,0.0,0.0,0.0,0.0,0.0,0.0,0.0,0.0,0.0,0.0,0.0,0.0,0.0,0.0,0.0,0.0,0.0,0.0,0.0,0.0,0.0,0.0,0.0,0.0,0.0,0.0,0.0,0.0,0.0,0.0,0.0,0.0,0.0,0.0,0.0,0.0,0.0,0.0,0.0,0.0,0.0,0.0,0.0,0.0,0.0,0.0,0.0,0.0,0.0,0.0,0.0,0.0,0.0,0.0,0.0,0.0,0.0,0.0,0.0,0.0,0.0,0.0,0.0,0.0,0.0,0.0,0.0,0.0,0.0,0.0,0.0,0.0,0.0,0.0,0.0,0.0,0.0,0.0,0.0,0.0,0.0,0.0,0.0,0.0,0.0,0.0,0.0,0.0,0.0,0.0,0.0,0.0,0.0,0.0,0.0,0.0,0.0,0.0,0.0,0.0,0.0,0.0,0.0,0.0,0.0,0.0,0.0,0.0,0.0,0.0,0.0,0.0,0.0,0.0,0.0,0.0,0.0,0.0,0.0,0.0,0.0,0.0,0.0,0.0,0.0,0.0,0.0,0.0,0.0,0.0,0.0,0.0,0.0,0.0,0.0,0.0,0.0,0.0,0.0,0.0,0.0,0.0,0.0,0.0,0.0,0.0,0.0,0.0,0.0,0.0,0.0,0.0,0.0,0.0,0.0,0.0,0.0,0.0,0.0,0.0,0.0,0.0,0.0,0.0,0.0,0.0,0.0,0.0,0.0,0.0,0.0,0.0,0.0,0.0,0.0,0.0,0.0,0.0,0.0,0.0,0.0,0.0,0.0,0.0,0.0,0.0,0.0,0.0,0.0,0.0,0.0,0.0,0.0,0.0,0.0,0.0,0.0,0.0,0.0,0.0,0.0,0.0,0.0,0.0,0.0,0.0,0.0,0.0,0.0,0.0,0.0,0.0,0.0,0.0,0.0,0.0,0.0,0.0,0.0,0.0,0.0,0.0,0.0,0.0,0.0,0.0,0.0,0.0,0.0,0.0,0.0,0.0,0.0,0.0,0.0,0.0,0.0,0.0,0.0,0.0,0.0,0.0,0.0,0.0,0.0,0.0,0.0,0.0,0.0,0.0,0.0,0.0,0.0,0.0,0.0,0.0,0.0,0.0,0.0,0.0,0.0,0.0,0.0,0.0,0.0,0.0,0.0,0.0,0.0,0.0,0.0,0.0,0.0,0.0,0.0,0.0,0.0,0.0,0.0,0.0,0.0,0.0,0.0,0.0,0.0,0.0,0.0,0.0,0.0,0.0,0.0,0.0,0.0,0.0,0.0,0.0,0.0,0.0,0.0,0.0,0.0,0.0,0.0,0.0,0.0,0.0,0.0,0.0,0.0,0.0,0.0,0.0,0.0,0.0,0.0,0.0,0.0,0.0,0.0,0.0,0.0,0.0,0.0,0.0,0.0,0.0,0.0,0.0,0.0,0.0,0.0,0.0,0.0,0.0,0.0,0.0,0.0,0.0,0.0,0.0,0.0,0.0,0.0,0.0,0.0,0.0,0.0,0.0,0.0,0.0,0.0,0.0,0.0,0.0,0.0,0.0,0.0,0.0,0.0,0.0,0.0,0.0,0.0,0.0,0.0,0.0,0.0,0.0,0.0,0.0,0.0,0.0,0.0,0.0,0.0,0.0,0.0,0.0,0.0,0.0,0.0,0.0,0.0,0.0,0.0,0.0,0.0,0.0,0.0,0.0,0.0,0.0,0.0,0.0,0.0,0.0,0.0,0.0,0.0,0.0,0.0,0.0,0.0,0.0,0.0,0.0,0.0,0.0,0.0,0.0,0.0,0.0,0.0,0.0,0.0,0.0,0.0,0.0,0.0,0.0,0.0,0.0,0.0,0.0,0.0,0.0,0.0,0.0,0.0,0.0,0.0,0.0,0.0,0.0,0.0,0.0,0.0,0.0,0.0,0.0,0.0,0.0,0.0,0.0,0.0,0.0,0.0,0.0,0.0,0.0,0.0,0.0,0.0,0.0,0.0,0.0,0.0,0.0,0.0,0.0,0.0,0.0,0.0,0.0,0.0,0.0,0.0,0.0,0.0,0.0,0.0,0.0,0.0,0.0,0.0,0.0,0.0,0.0,0.0,0.0,0.0,0.0,0.0,0.0,0.0,0.0,0.0,0.0,0.0,0.0,0.0,0.0,0.0,0.0,0.0,0.0,0.0,0.0,0.0,0.0,0.0,0.0,0.0,0.0,0.0,0.0,0.0,0.0,0.0,0.0,0.0,0.0,0.0,0.0,0.0,0.0,0.0,0.0,0.0,0.0,0.0,0.0,0.0,0.0,0.0,0.0,0.0,0.0,0.0,0.0,0.0,0.0,0.0,0.0,0.0,0.0,0.0,0.0,0.0,0.0,0.0,0.0,0.0,0.0,0.0,0.0,0.0,0.0,0.0,0.0,0.0,0.0,0.0,0.0,0.0,0.0,0.0,0.0,0.0,0.0,0.0,0.0,0.0,0.0,0.0,0.0,0.0,0.0,0.0,0.0,0.0,0.0,0.0,0.0,0.0,0.0,0.0,0.0,0.0,0.0,0.0,0.0,0.0,0.0,0.0,0.0,0.0,0.0,0.0,0.0,0.0,0.0,0.0,0.0,0.0,0.0,0.0,0.0,0.0,0.0,0.0,0.0,0.0,0.0,0.0,0.0,0.0,0.0,0.0,0.0,0.0,0.0,0.0,0.0,0.0,0.0,0.0,0.0,0.0,0.0,0.0,0.0,0.0,0.0,0.0,0.0,0.0,0.0,0.0,0.0,0.0,0.0,0.0,0.0,0.0,0.0,0.0,0.0,0.0,0.0,0.0,0.0,0.0,0.0,0.0,0.0,0.0,0.0,0.0,0.0,0.0,0.0,0.0,0.0,0.0,0.0,0.0,0.0,0.0,0.0,0.0,0.0,0.0,0.0,0.0,0.0,0.0,0.0,0.0,0.0,0.0,0.0,0.0,0.0,0.0,0.0,0.0,0.0,0.0,0.0,0.0,0.0,0.0,0.0,0.0,0.0,0.0,0.0,0.0,0.0,0.0,0.0,0.0,0.0,0.0,0.0,0.0,0.0,0.0,0.0,0.0,0.0,0.0,0.0,0.0,0.0,0.0,0.0,0.0,0.0,0.0,0.0,0.0,0.0,0.0,0.0,0.0,0.0,0.0,0.0,0.0,0.0,0.0,0.0,0.0,0.0,0.0,0.0,0.0,0.0,0.0,0.0,0.0,0.0,0.0,0.0,0.0,0.0,0.0,0.0,0.0,0.0,0.0,0.0,0.0,0.0,0.0,0.0,0.0,0.0,0.0,0.0,0.0,0.0,0.0,0.0,0.0,0.0,0.0,0.0,0.0,0.0,0.0,0.0,0.0,0.0,0.0,0.0,0.0,0.0,0.0,0.0,0.0,0.0,0.0,0.0,0.0,0.0,0.0,0.0,0.0,0.0,0.0,0.0,0.0,0.0,0.0,0.0,0.0,0.0,0.0,0.0,0.0,0.0,0.0,0.0,0.0,0.0,0.0,0.0,0.0,0.0,0.0,0.0,0.0,0.0,0.0,0.0,0.0,0.0,0.0,0.0,0.0,0.0,0.0,0.0,0.0,0.0,0.0,0.0,0.0,0.0,0.0,0.0,0.0,0.0,0.0,0.0,0.0,0.0,0.0,0.0,0.0,0.0,0.0,0.0,0.0,0.0,0.0,0.0,0.0,0.0,0.0,0.0,0.0,0.0,0.0,0.0,0.0,0.0,0.0,0.0,0.0,0.0,0.0,0.0,0.0,0.0,0.0,0.0,0.0,0.0,0.0,0.0,0.0,0.0,0.0,0.0,0.0,0.0,0.0,0.0,0.0,0.0,0.0,0.0,0.0,0.0,0.0,0.0,0.0,0.0,0.0,0.0,0.0,0.0,0.0,0.0,0.0,0.0,0.0,0.0,0.0,0.0,0.0,0.0,0.0,0.0,0.0,-1.2665,0.0,0.0,0.0,0.0,0.0,0.0,0.0,0.0,0.0,0.0,0.0,0.0,0.0,0.0,0.0,0.0,0.0,0.0,0.0,0.0,0.0,0.0,0.0,0.0,0.0,0.0,0.0,0.0,0.0,0.0,0.0,0.0,0.0,0.0,0.0,0.0,0.0,0.0,0.0,0.0,0.0,0.0,0.0,0.0,0.0,0.0,0.0,0.0,0.0,0.0,0.0,0.0,0.0,0.0,0.0,0.0,0.0,0.0,0.0,0.0,0.0,0.0,0.0,0.0,0.0,0.0,0.0,0.0,0.0,0.0,0.0,0.0,0.0,0.0,0.0,0.0,0.0,0.0,0.0,0.0,0.0,0.0,0.0,0.0,0.0,0.0,0.0,0.0,0.0,0.0,0.0,0.0,0.0,0.0,0.0,0.0,0.0,0.0,0.0,0.0,0.0,0.0,0.0,0.0,0.0,0.0,0.0,0.0,0.0,0.0,-1.124,-1.1365,-1.1942,-1.222,-1.2243,0.0,0.0,0.0,0.0,0.0,0.0,0.0,0.0,0.0,0.0,0.0,0.0,0.0,0.0,0.0,0.0,0.0,0.0,0.0,0.0,0.0,0.0,0.0,0.0,0.0,0.0,0.0,0.0,0.0,0.0,0.0,0.0,0.0,0.0,0.0,0.0,0.0,0.0,0.0,0.0,0.0,0.0,0.0,0.0,0.0,0.0,0.0,0.0,0.0,0.0,0.0,0.0,0.0,0.0,0.0,0.0,0.0,0.0,0.0,0.0,0.0,0.0,0.0,0.0,0.0,0.0,0.0,0.0,0.0,0.0,0.0,0.0,0.0,0.0,0.0,0.0,0.0,0.0,0.0,0.0,0.0,0.0,0.0,0.0,0.0,0.0,0.0,0.0,0.0,0.0,0.0,0.0,0.0,0.0,0.0,0.0,0.0,0.0,0.0,0.0,0.0,0.0,0.0,0.0,0.0,0.0,0.0,0.0,0.0,0.0,0.0,0.0,-1.1452,-1.1856,-1.2011,0.0,0.0,0.0,0.0,0.0,0.0,0.0,0.0,0.0,0.0,0.0,0.0,0.0,0.0,0.0,0.0,0.0,0.0,0.0,0.0,0.0,0.0,0.0,0.0,0.0,0.0,0.0,0.0,0.0,0.0,0.0,0.0,0.0,0.0,0.0,0.0,0.0,0.0,0.0,0.0,0.0,0.0,0.0,0.0,0.0,0.0,0.0,0.0,0.0,0.0,0.0,0.0,0.0,0.0,0.0,0.0,0.0,0.0,0.0,0.0,0.0,0.0,0.0,0.0,0.0,0.0,0.0,0.0,0.0,0.0,0.0,0.0,0.0,0.0,0.0,0.0,0.0,0.0,0.0,0.0,0.0,0.0,0.0,0.0,0.0,0.0,0.0,0.0,0.0,0.0,0.0,0.0,0.0,0.0,0.0,0.0,0.0,0.0,0.0,0.0,0.0,0.0,0.0,0.0,0.0,0.0,0.0,0.0,0.0,0.0,-1.0364,-1.0364,-1.0832,0.0,-1.1957,0.0,0.0,0.0,0.0,0.0,0.0,0.0,0.0,0.0,0.0,0.0,0.0,0.0,0.0,0.0,0.0,0.0,0.0,0.0,0.0,0.0,0.0,0.0,0.0,0.0,0.0,0.0,0.0,0.0,0.0,0.0,0.0,0.0,0.0,0.0,0.0,0.0,0.0,0.0,0.0,0.0,0.0,0.0,0.0,0.0,0.0,0.0,0.0,0.0,0.0,0.0,0.0,0.0,0.0,0.0,0.0,0.0,0.0,0.0,0.0,0.0,0.0,0.0,0.0,0.0,0.0,0.0,0.0,0.0,0.0,0.0,0.0,0.0,0.0,0.0,0.0,0.0,0.0,0.0,0.0,0.0,0.0,0.0,0.0,0.0,0.0,0.0,0.0,0.0,0.0,0.0,0.0,0.0,0.0,0.0,0.0,0.0,0.0,0.0,0.0,0.0,0.0,0.0,0.0,0.0,0.0,0.0,0.0,0.0,0.0,-1.0466,-1.0498,-1.0681,-1.1021,0.0,0.0,0.0,0.0,0.0,0.0,0.0,0.0,0.0,0.0,0.0,0.0,0.0,0.0,0.0,0.0,0.0,0.0,0.0,0.0,0.0,0.0,0.0,0.0,0.0,0.0,0.0,0.0,0.0,0.0,0.0,0.0,0.0,0.0,0.0,0.0,0.0,0.0,0.0,0.0,0.0,0.0,0.0,0.0,0.0,0.0,0.0,0.0,0.0,0.0,0.0,0.0,0.0,0.0,0.0,0.0,0.0,0.0,0.0,0.0,0.0,0.0,0.0,0.0,0.0,0.0,0.0,0.0,0.0,0.0,0.0,0.0,0.0,0.0,0.0,0.0,0.0,0.0,0.0,0.0,0.0,0.0,0.0,0.0,0.0,0.0,0.0,0.0,0.0,0.0,0.0,0.0,0.0,0.0,0.0,0.0,0.0,0.0,0.0,0.0,0.0,0.0,0.0,0.0,0.0,0.0,0.0,0.0,0.0,0.0,-1.053,-1.053,-1.053,-1.053,-1.0719,-1.109,0.0,0.0,0.0,0.0,0.0,0.0,0.0,0.0,0.0,0.0,0.0,0.0,0.0,0.0,0.0,0.0,0.0,0.0,0.0,0.0,0.0,0.0,0.0,0.0,0.0,0.0,0.0,0.0,0.0,0.0,0.0,0.0,0.0,0.0,0.0,0.0,0.0,0.0,0.0,0.0,0.0,0.0,0.0,0.0,0.0,0.0,0.0,0.0,0.0,0.0,0.0,0.0,0.0,0.0,0.0,0.0,0.0,0.0,0.0,0.0,0.0,0.0,0.0,0.0,0.0,0.0,0.0,0.0,0.0,0.0,0.0,0.0,0.0,0.0,0.0,0.0,0.0,0.0,0.0,0.0,0.0,0.0,0.0,0.0,0.0,0.0,0.0,0.0,0.0,0.0,0.0,0.0,0.0,0.0,0.0,0.0,0.0,0.0,0.0,0.0,0.0,0.0,0.0,0.0,0.0,0.0,0.0,0.0,-1.0333,-1.0333,-1.0333,-1.0301,-1.0301,-1.0403,0.0,0.0,0.0,0.0,0.0,0.0,0.0,0.0,0.0,0.0,0.0,0.0,0.0,0.0,0.0,0.0,0.0,0.0,0.0,0.0,0.0,0.0,0.0,0.0,0.0,0.0,0.0,0.0,0.0,0.0,0.0,0.0,0.0,0.0,0.0,0.0,0.0,0.0,0.0,0.0,0.0,0.0,0.0,0.0,0.0,0.0,0.0,0.0,0.0,0.0,0.0,0.0,0.0,0.0,0.0,0.0,0.0,0.0,0.0,0.0,0.0,0.0,0.0,0.0,0.0,0.0,0.0,0.0,0.0,0.0,0.0,0.0,0.0,0.0,0.0,0.0,0.0,0.0,0.0,0.0,0.0,0.0,0.0,0.0,0.0,0.0,0.0,0.0,0.0,0.0,0.0,0.0,0.0,0.0,0.0,0.0,0.0,0.0,0.0,0.0,0.0,0.0,0.0,0.0,0.0,0.0,0.0,0.0,0.0,-1.0491,-1.0491,-1.0498,-1.0498,-1.0498,-1.053,0.0,0.0,0.0,0.0,0.0,0.0,0.0,0.0,0.0,0.0,0.0,0.0,0.0,0.0,0.0,0.0,0.0,0.0,0.0,0.0,0.0,0.0,0.0,0.0,0.0,0.0,0.0,0.0,0.0,0.0,0.0,0.0,0.0,0.0,0.0,0.0,0.0,0.0,0.0,0.0,0.0,0.0,0.0,0.0,0.0,0.0,0.0,0.0,0.0,0.0,0.0,0.0,0.0,0.0,0.0,0.0,0.0,0.0,0.0,0.0,0.0,0.0,0.0,0.0,0.0,0.0,0.0,0.0,0.0,0.0,0.0,0.0,0.0,0.0,0.0,0.0,0.0,0.0,0.0,0.0,0.0,0.0,0.0,0.0,0.0,0.0,0.0,0.0,0.0,0.0,0.0,0.0,0.0,0.0,0.0,0.0,0.0,0.0,0.0,0.0,0.0,0.0,0.0,0.0,0.0,0.0,0.0,0.0,0.0,-1.0498,0.0,-1.0428,-1.0523,-1.0491,-1.053,0.0,0.0,0.0,0.0,0.0,0.0,0.0,0.0,0.0,0.0,0.0,0.0,0.0,0.0,0.0,0.0,0.0,0.0,0.0,0.0,0.0,0.0,0.0,0.0,0.0,0.0,0.0,0.0,0.0,0.0,0.0,0.0,0.0,0.0,0.0,0.0,0.0,0.0,0.0,0.0,0.0,0.0,0.0,0.0,0.0,0.0,0.0,0.0,0.0,0.0,0.0,0.0,0.0,0.0,0.0,0.0,0.0,0.0,0.0,0.0,0.0,0.0,0.0,0.0,0.0,0.0,0.0,0.0,0.0,0.0,0.0,0.0,0.0,0.0,0.0,0.0,0.0,0.0,0.0,0.0,0.0,0.0,0.0,0.0,0.0,0.0,0.0,0.0,0.0,0.0,0.0,0.0,0.0,0.0,0.0,0.0,0.0,0.0,0.0,0.0,0.0,0.0,0.0,0.0,0.0,0.0,0.0,0.0,-1.053,-1.0308,-1.0117,-1.0149,-1.0308,-1.0308,-1.0403,0.0,0.0,0.0,0.0,0.0,0.0,0.0,0.0,0.0,0.0,0.0,0.0,0.0,0.0,0.0,0.0,0.0,0.0,0.0,0.0,0.0,0.0,0.0,0.0,0.0,0.0,0.0,0.0,0.0,0.0,0.0,0.0,0.0,0.0,0.0,0.0,0.0,0.0,0.0,0.0,0.0,0.0,0.0,0.0,0.0,0.0,0.0,0.0,0.0,0.0,0.0,0.0,0.0,0.0,0.0,0.0,0.0,0.0,0.0,0.0,0.0,0.0,0.0,0.0,0.0,0.0,0.0,0.0,0.0,0.0,0.0,0.0,0.0,0.0,0.0,0.0,0.0,0.0,0.0,0.0,0.0,0.0,0.0,0.0,0.0,0.0,0.0,0.0,0.0,0.0,0.0,0.0,0.0,0.0,0.0,0.0,0.0,0.0,0.0,0.0,0.0,0.0,0.0,0.0,0.0,0.0,0.0,0.0,0.0,-1.0498,-1.0466,-1.0527,-1.0744,-1.0604,-1.0623,0.0,0.0,0.0,0.0,0.0,0.0,0.0,0.0,0.0,0.0,0.0,0.0,0.0,0.0,0.0,0.0,0.0,0.0,0.0,0.0,0.0,0.0,0.0,0.0,0.0,0.0,0.0,0.0,0.0,0.0,0.0,0.0,0.0,0.0,0.0,0.0,0.0,0.0,0.0,0.0,0.0,0.0,0.0,0.0,0.0,0.0,0.0,0.0,0.0,0.0,0.0,0.0,0.0,0.0,0.0,0.0,0.0,0.0,0.0,0.0,0.0,0.0,0.0,0.0,0.0,0.0,0.0,0.0,0.0,0.0,0.0,0.0,0.0,0.0,0.0,0.0,0.0,0.0,0.0,0.0,0.0,0.0,0.0,0.0,0.0,0.0,0.0,0.0,0.0,0.0,0.0,0.0,0.0,0.0,0.0,0.0,0.0,0.0,0.0,0.0,0.0,0.0,0.0,0.0,0.0,0.0,0.0,0.0,0.0,-1.0914,-1.0814,-1.0841,-1.0989,-1.0847,-1.0787,-1.0854,0.0,0.0,0.0,0.0,0.0,0.0,0.0,0.0,0.0,0.0,0.0,0.0,0.0,0.0,0.0,0.0,0.0,0.0,0.0,0.0,0.0,0.0,0.0,0.0,0.0,0.0,0.0,0.0,0.0,0.0,0.0,0.0,0.0,0.0,0.0,0.0,0.0,0.0,0.0,0.0,0.0,0.0,0.0,0.0,0.0,0.0,0.0,0.0,0.0,0.0,0.0,0.0,0.0,0.0,0.0,0.0,0.0,0.0,0.0,0.0,0.0,0.0,0.0,0.0,0.0,0.0,0.0,0.0,0.0,0.0,0.0,0.0,0.0,0.0,0.0,0.0,0.0,0.0,0.0,0.0,0.0,0.0,0.0,0.0,0.0,0.0,0.0,0.0,0.0,0.0,0.0,0.0,0.0,0.0,0.0,0.0,0.0,0.0,0.0,0.0,0.0,0.0,0.0,0.0,0.0,0.0,0.0,0.0,-1.1415,-1.1216,-1.1089,-1.1082,-1.1042,-1.0928,0.0,0.0,0.0,0.0,0.0,0.0,0.0,0.0,0.0,0.0,0.0,0.0,0.0,0.0,0.0,0.0,0.0,0.0,0.0,0.0,0.0,0.0,0.0,0.0,0.0,0.0,0.0,0.0,0.0,0.0,0.0,0.0,0.0,0.0,0.0,0.0,0.0,0.0,0.0,0.0,0.0,0.0,0.0,0.0,0.0,0.0,0.0,0.0,0.0,0.0,0.0,0.0,0.0,0.0,0.0,0.0,0.0,0.0,0.0,0.0,0.0,0.0,0.0,0.0,0.0,0.0,0.0,0.0,0.0,0.0,0.0,0.0,0.0,0.0,0.0,0.0,0.0,0.0,0.0,0.0,0.0,0.0,0.0,0.0,0.0,0.0,0.0,0.0,0.0,0.0,0.0,0.0,0.0,0.0,0.0,0.0,0.0,0.0,0.0,0.0,0.0,0.0,0.0,0.0,0.0,0.0,0.0,0.0,0.0,-1.175,-1.2134,-1.2214,-1.1964,-1.1536,-1.1276,0.0,0.0,0.0,0.0,0.0,0.0,0.0,0.0,0.0,0.0,0.0,0.0,0.0,0.0,0.0,0.0,0.0,0.0,0.0,0.0,0.0,0.0,0.0,0.0,0.0,0.0,0.0,0.0,0.0,0.0,0.0,0.0,0.0,0.0,0.0,0.0,0.0,0.0,0.0,0.0,0.0,0.0,0.0,0.0,0.0,0.0,0.0,0.0,0.0,0.0,0.0,0.0,0.0,0.0,0.0,0.0,0.0,0.0,0.0,0.0,0.0,0.0,0.0,0.0,0.0,0.0,0.0,0.0,0.0,0.0,0.0,0.0,0.0,0.0,0.0,0.0,0.0,0.0,0.0,0.0,0.0,0.0,0.0,0.0,0.0,0.0,0.0,0.0,0.0,0.0,0.0,0.0,0.0,0.0,0.0,0.0,0.0,0.0,0.0,0.0,0.0,0.0,0.0,0.0,0.0,0.0,0.0,0.0,-1.175,-1.208,-1.267,-1.2919,-1.2821,-1.2128,-1.1617,0.0,0.0,0.0,0.0,0.0,0.0,0.0,0.0,0.0,0.0,0.0,0.0,0.0,0.0,0.0,0.0,0.0,0.0,0.0,0.0,0.0,0.0,0.0,0.0,0.0,0.0,0.0,0.0,0.0,0.0,0.0,0.0,0.0,0.0,0.0,0.0,0.0,0.0,0.0,0.0,0.0,0.0,0.0,0.0,0.0,0.0,0.0,0.0,0.0,0.0,0.0,0.0,0.0,0.0,0.0,0.0,0.0,0.0,0.0,0.0,0.0,0.0,0.0,0.0,0.0,0.0,0.0,0.0,0.0,0.0,0.0,0.0,0.0,0.0,0.0,0.0,0.0,0.0,0.0,0.0,0.0,0.0,0.0,0.0,0.0,0.0,0.0,0.0,0.0,0.0,0.0,0.0,0.0,0.0,0.0,0.0,0.0,0.0,0.0,0.0,0.0,0.0,0.0,0.0,0.0,0.0,0.0,0.0,-1.1949,-1.2197,-1.2817,-1.3286,-1.3567,-1.2766,-1.1924,0.0,0.0,0.0,0.0,0.0,0.0,0.0,0.0,0.0,0.0,0.0,0.0,0.0,0.0,0.0,0.0,0.0,0.0,0.0,0.0,0.0,0.0,0.0,0.0,0.0,0.0,0.0,0.0,0.0,0.0,0.0,0.0,0.0,0.0,0.0,0.0,0.0,0.0,0.0,0.0,0.0,0.0,0.0,0.0,0.0,0.0,0.0,0.0,0.0,0.0,0.0,0.0,0.0,0.0,0.0,0.0,0.0,0.0,0.0,0.0,0.0,0.0,0.0,0.0,0.0,0.0,0.0,0.0,0.0,0.0,0.0,0.0,0.0,0.0,0.0,0.0,0.0,0.0,0.0,0.0,0.0,0.0,0.0,0.0,0.0,0.0,0.0,0.0,0.0,0.0,0.0,0.0,0.0,0.0,0.0,0.0,0.0,0.0,0.0,0.0,0.0,0.0,0.0,0.0,0.0,0.0,0.0,0.0,-1.1291,-1.1655,-1.2435,-1.3054,-1.3559,-1.2772,-1.2111,0.0,0.0,0.0,0.0,0.0,0.0,0.0,0.0,0.0,0.0,0.0,0.0,0.0,0.0,0.0,0.0,0.0,0.0,0.0,0.0,0.0,0.0,0.0,0.0,0.0,0.0,0.0,0.0,0.0,0.0,0.0,0.0,0.0,0.0,0.0,0.0,0.0,0.0,0.0,0.0,0.0,0.0,0.0,0.0,0.0,0.0,0.0,0.0,-1.047,0.0,0.0,0.0,0.0,0.0,0.0,0.0,0.0,0.0,0.0,0.0,0.0,0.0,0.0,0.0,0.0,0.0,0.0,0.0,0.0,0.0,0.0,0.0,0.0,0.0,0.0,0.0,0.0,0.0,0.0,0.0,0.0,0.0,0.0,0.0,0.0,0.0,0.0,0.0,0.0,0.0,0.0,0.0,0.0,0.0,0.0,0.0,0.0,0.0,0.0,0.0,0.0,0.0,0.0,0.0,0.0,0.0,0.0,0.0,-1.0458,-1.0923,-1.1957,-1.2721,-1.315,-1.2877,-1.2458,0.0,0.0,0.0,0.0,0.0,0.0,0.0,0.0,0.0,0.0,0.0,0.0,0.0,0.0,0.0,0.0,0.0,0.0,0.0,0.0,0.0,0.0,0.0,0.0,0.0,0.0,0.0,0.0,0.0,0.0,0.0,0.0,0.0,0.0,0.0,0.0,0.0,0.0,0.0,0.0,0.0,0.0,0.0,0.0,0.0,0.0,0.0,0.0,0.0,0.0,0.0,0.0,0.0,0.0,0.0,0.0,0.0,0.0,0.0,0.0,0.0,0.0,0.0,0.0,0.0,0.0,0.0,0.0,0.0,0.0,0.0,0.0,0.0,0.0,0.0,0.0,0.0,0.0,0.0,0.0,0.0,0.0,0.0,0.0,0.0,0.0,0.0,0.0,0.0,0.0,0.0,0.0,0.0,0.0,0.0,0.0,0.0,0.0,0.0,0.0,0.0,0.0,0.0,0.0,0.0,0.0,0.0,-0.9398,-0.9606,-1.0108,-1.1398,-1.2272,-1.2687,-1.302,-1.2839,-1.208,0.0,0.0,0.0,0.0,0.0,0.0,0.0,0.0,0.0,0.0,0.0,0.0,0.0,0.0,0.0,0.0,0.0,0.0,0.0,0.0,0.0,0.0,0.0,0.0,0.0,0.0,0.0,0.0,0.0,0.0,0.0,0.0,0.0,0.0,0.0,0.0,0.0,0.0,-0.9888,-0.9862,0.0,0.0,0.0,0.0,0.0,0.0,0.0,0.0,-1.0327,0.0,0.0,0.0,0.0,0.0,0.0,0.0,0.0,0.0,0.0,0.0,0.0,0.0,0.0,0.0,0.0,0.0,0.0,0.0,0.0,0.0,0.0,0.0,0.0,0.0,0.0,0.0,0.0,0.0,0.0,0.0,0.0,0.0,0.0,0.0,0.0,0.0,0.0,0.0,0.0,0.0,0.0,0.0,0.0,0.0,0.0,0.0,0.0,0.0,0.0,0.0,0.0,0.0,0.0,0.0,0.0,-0.8299,-0.854,-0.8957,-0.953,-1.0579,-1.1637,-1.2638,-1.3027,-1.3019,-1.2636,0.0,0.0,0.0,0.0,0.0,0.0,0.0,0.0,0.0,0.0,0.0,0.0,0.0,0.0,0.0,0.0,0.0,0.0,0.0,0.0,0.0,0.0,0.0,0.0,0.0,0.0,0.0,0.0,0.0,0.0,0.0,0.0,0.0,0.0,0.0,0.0,0.0,0.0,0.0,-1.0079,-1.0149,0.0,0.0,0.0,0.0,0.0,0.0,0.0,0.0,-1.0525,0.0,0.0,0.0,0.0,0.0,0.0,0.0,0.0,0.0,0.0,0.0,0.0,0.0,0.0,0.0,0.0,0.0,0.0,0.0,0.0,0.0,0.0,0.0,0.0,0.0,0.0,0.0,0.0,0.0,0.0,0.0,0.0,0.0,0.0,0.0,0.0,0.0,0.0,0.0,0.0,0.0,0.0,0.0,0.0,0.0,0.0,0.0,0.0,0.0,0.0,0.0,0.0,0.0,0.0,0.0,-0.8128,-0.8159,-0.8352,-0.8846,-1.0316,-1.1379,-1.196,-1.2909,-1.322,0.0,0.0,0.0,0.0,0.0,0.0,0.0,0.0,0.0,0.0,0.0,0.0,0.0,0.0,0.0,0.0,0.0,0.0,0.0,0.0,0.0,0.0,0.0,0.0,0.0,0.0,0.0,0.0,0.0,0.0,0.0,0.0,0.0,0.0,0.0,0.0,0.0,0.0,0.0,0.0,-1.0159,-0.9925,-1.0368,0.0,0.0,0.0,0.0,0.0,0.0,-1.0001,-1.0059,0.0,0.0,0.0,0.0,0.0,0.0,0.0,0.0,0.0,0.0,0.0,0.0,0.0,0.0,0.0,0.0,0.0,0.0,0.0,0.0,0.0,0.0,0.0,0.0,0.0,0.0,0.0,0.0,0.0,0.0,0.0,0.0,0.0,0.0,0.0,0.0,0.0,0.0,0.0,0.0,0.0,0.0,0.0,0.0,0.0,0.0,0.0,0.0,0.0,0.0,0.0,0.0,0.0,0.0,0.0,-0.8024,-0.7888,-0.7975,-0.8365,-1.0047,-1.1059,-1.1316,-1.2502,-1.3061,0.0,0.0,0.0,0.0,0.0,0.0,0.0,0.0,0.0,0.0,0.0,0.0,0.0,0.0,0.0,0.0,0.0,0.0,0.0,0.0,0.0,0.0,0.0,0.0,0.0,0.0,0.0,0.0,0.0,0.0,0.0,0.0,0.0,0.0,0.0,0.0,0.0,0.0,0.0,0.0,0.0,-0.9738,-1.014,-0.9411,0.0,0.0,0.0,0.0,-0.8949,-0.9253,0.0,0.0,0.0,0.0,0.0,0.0,0.0,0.0,0.0,0.0,0.0,0.0,0.0,0.0,0.0,0.0,0.0,0.0,0.0,0.0,0.0,0.0,0.0,0.0,0.0,0.0,0.0,0.0,0.0,0.0,0.0,0.0,0.0,0.0,0.0,0.0,0.0,0.0,0.0,0.0,0.0,0.0,0.0,0.0,0.0,0.0,0.0,0.0,0.0,0.0,0.0,0.0,0.0,0.0,0.0,0.0,-0.7331,-0.7655,-0.7971,-0.8314,-0.9239,-1.0226,-1.1262,-1.1531,-1.2148,0.0,0.0,0.0,0.0,0.0,0.0,0.0,0.0,0.0,0.0,0.0,0.0,0.0,0.0,0.0,0.0,0.0,0.0,0.0,0.0,0.0,0.0,0.0,0.0,0.0,0.0,0.0,0.0,0.0,0.0,0.0,0.0,0.0,0.0,0.0,0.0,0.0,0.0,0.0,0.0,0.0,-0.9856,-1.0146,-0.9383,-0.8794,0.0,0.0,-0.9163,-0.9163,-0.9365,0.0,0.0,0.0,0.0,0.0,0.0,0.0,0.0,0.0,0.0,0.0,0.0,0.0,0.0,0.0,0.0,0.0,0.0,0.0,0.0,0.0,0.0,0.0,0.0,0.0,0.0,0.0,0.0,0.0,0.0,0.0,0.0,0.0,0.0,0.0,0.0,0.0,0.0,0.0,0.0,0.0,0.0,0.0,0.0,0.0,0.0,0.0,0.0,0.0,0.0,0.0,0.0,0.0,0.0,0.0,-0.7123,-0.7374,-0.7825,-0.8224,-0.8482,-0.9302,-1.0239,-1.1273,-1.1496,-1.211,0.0,0.0,0.0,0.0,0.0,0.0,0.0,0.0,0.0,0.0,0.0,0.0,0.0,0.0,0.0,0.0,0.0,0.0,0.0,0.0,0.0,0.0,0.0,0.0,0.0,0.0,0.0,0.0,0.0,0.0,0.0,0.0,0.0,0.0,0.0,0.0,0.0,0.0,0.0,0.0,0.0,0.0,-0.8939,-0.8279,0.0,0.0,0.0,-0.7901,-0.779,0.0,0.0,0.0,0.0,0.0,0.0,0.0,0.0,0.0,0.0,0.0,0.0,0.0,0.0,0.0,0.0,0.0,0.0,0.0,0.0,0.0,0.0,0.0,0.0,0.0,0.0,0.0,0.0,0.0,0.0,0.0,0.0,0.0,0.0,0.0,0.0,0.0,0.0,0.0,0.0,0.0,0.0,0.0,0.0,0.0,0.0,0.0,0.0,0.0,0.0,0.0,0.0,0.0,0.0,0.0,0.0,0.0,-0.7526,-0.8016,-0.8381,-0.8604,-0.9257,-1.012,-1.1273,-1.1468,0.0,0.0,0.0,0.0,0.0,0.0,0.0,0.0,0.0,0.0,0.0,0.0,0.0,0.0,0.0,0.0,0.0,0.0,0.0,0.0,0.0,0.0,0.0,0.0,0.0,0.0,0.0,-1.068,0.0,0.0,0.0,0.0,0.0,0.0,0.0,0.0,0.0,0.0,0.0,0.0,0.0,0.0,-0.8004,-0.8004,-0.7406,-0.7004,0.0,0.0,-0.6959,-0.6842,-0.7554,-0.797,0.0,0.0,0.0,0.0,0.0,0.0,0.0,0.0,0.0,0.0,0.0,0.0,0.0,0.0,0.0,0.0,0.0,0.0,0.0,0.0,0.0,0.0,0.0,0.0,0.0,0.0,0.0,0.0,0.0,0.0,0.0,0.0,0.0,0.0,0.0,0.0,0.0,0.0,0.0,0.0,0.0,0.0,0.0,0.0,0.0,0.0,0.0,0.0,0.0,0.0,0.0,0.0,0.0,0.0,-0.7276,-0.7496,-0.8016,-0.8381,-0.86,-0.8656,-0.9519,-1.123,-1.1085,-1.1671,0.0,0.0,0.0,0.0,0.0,0.0,0.0,0.0,0.0,0.0,0.0,0.0,0.0,0.0,0.0,0.0,0.0,0.0,0.0,0.0,0.0,0.0,0.0,0.0,0.0,0.0,0.0,0.0,0.0,0.0,0.0,0.0,0.0,0.0,0.0,0.0,0.0,0.0,0.0,0.0,0.0,-0.8004,-0.8004,-0.7442,-0.7049,0.0,-0.7062,-0.7045,-0.7126,-0.738,-0.7459,-0.7096,0.0,0.0,0.0,0.0,0.0,0.0,0.0,0.0,0.0,0.0,0.0,0.0,0.0,0.0,0.0,0.0,0.0,0.0,0.0,0.0,0.0,0.0,0.0,0.0,0.0,0.0,0.0,0.0,0.0,0.0,0.0,0.0,0.0,0.0,0.0,0.0,0.0,0.0,0.0,0.0,0.0,0.0,0.0,0.0,0.0,0.0,0.0,0.0,0.0,0.0,0.0,0.0,0.0,-0.7419,-0.7526,-0.813,-0.8539,-0.8608,-0.8616,-0.9218,-1.0419,-1.0715,-1.1359,0.0,0.0,0.0,0.0,0.0,0.0,0.0,0.0,0.0,0.0,0.0,0.0,0.0,0.0,0.0,0.0,0.0,0.0,0.0,0.0,0.0,0.0,0.0,0.0,0.0,0.0,0.0,0.0,-1.1189,-1.1156,-1.1009,0.0,0.0,0.0,0.0,0.0,0.0,0.0,0.0,0.0,0.0,-0.7418,-0.7498,-0.7301,0.0,0.0,-0.7163,-0.7106,-0.7098,-0.7204,-0.72,-0.6878,-0.6712,0.0,0.0,0.0,0.0,0.0,0.0,0.0,0.0,0.0,0.0,0.0,0.0,0.0,0.0,0.0,0.0,0.0,0.0,0.0,0.0,0.0,0.0,0.0,0.0,0.0,0.0,0.0,0.0,0.0,0.0,0.0,0.0,0.0,0.0,0.0,0.0,0.0,0.0,0.0,0.0,0.0,0.0,0.0,0.0,0.0,0.0,0.0,0.0,0.0,0.0,0.0,0.0,-0.7604,-0.7608,-0.8269,-0.8616,-0.8616,-0.8616,-0.8999,-0.9898,-1.0356,-1.1013,0.0,0.0,0.0,0.0,0.0,0.0,0.0,0.0,0.0,0.0,0.0,0.0,0.0,0.0,0.0,0.0,0.0,0.0,0.0,0.0,0.0,0.0,0.0,0.0,0.0,0.0,0.0,0.0,-1.1243,-1.1115,-1.0744,0.0,0.0,0.0,0.0,0.0,0.0,0.0,0.0,0.0,0.0,-0.7094,-0.7135,-0.7147,-0.7143,-0.7143,-0.7102,-0.7037,-0.7004,-0.7062,-0.7058,-0.6837,0.0,0.0,0.0,0.0,0.0,0.0,0.0,0.0,0.0,0.0,0.0,0.0,0.0,0.0,0.0,0.0,0.0,0.0,0.0,0.0,0.0,0.0,0.0,0.0,0.0,0.0,0.0,-0.8974,0.0,0.0,-0.8953,0.0,0.0,0.0,0.0,0.0,0.0,0.0,0.0,0.0,0.0,0.0,0.0,0.0,0.0,0.0,0.0,0.0,0.0,0.0,0.0,0.0,0.0,-0.7792,-0.78,-0.8331,-0.8616,-0.8616,-0.8616,-0.8995,-0.9859,-0.9893,-1.0691,-1.2182,0.0,0.0,0.0,0.0,0.0,0.0,0.0,0.0,0.0,0.0,0.0,0.0,0.0,0.0,0.0,0.0,0.0,0.0,0.0,0.0,0.0,0.0,0.0,0.0,0.0,0.0,-1.0667,-1.0835,-1.0738,0.0,0.0,0.0,0.0,0.0,0.0,0.0,0.0,0.0,-0.67,-0.6997,-0.7155,-0.7024,-0.7032,-0.7004,-0.7008,-0.6861,-0.6804,-0.6967,-0.6992,-0.6988,0.0,0.0,0.0,0.0,0.0,0.0,0.0,0.0,0.0,0.0,0.0,0.0,0.0,0.0,0.0,0.0,0.0,0.0,0.0,0.0,0.0,0.0,0.0,0.0,0.0,0.0,0.0,-0.8132,-0.8007,0.0,0.0,0.0,0.0,0.0,0.0,0.0,0.0,0.0,0.0,0.0,-0.7927,-0.7927,0.0,0.0,0.0,0.0,0.0,0.0,0.0,0.0,0.0,0.0,0.0,0.0,-0.78,-0.7824,-0.8335,-0.8616,-0.8616,-0.8616,-0.874,-0.9043,-0.9602,-1.0363,-1.1316,0.0,0.0,0.0,0.0,0.0,0.0,0.0,0.0,0.0,0.0,0.0,0.0,0.0,0.0,0.0,0.0,0.0,0.0,0.0,0.0,0.0,0.0,0.0,0.0,0.0,-1.0955,0.0,0.0,0.0,0.0,0.0,0.0,0.0,0.0,0.0,0.0,0.0,-0.6737,-0.6886,-0.6871,-0.6895,-0.698,-0.6984,-0.7033,0.0,0.0,0.0,0.0,0.0,0.0,0.0,0.0,0.0,0.0,0.0,0.0,0.0,0.0,-0.6564,-0.6377,-0.6417,-0.6495,-0.6422,0.0,0.0,0.0,0.0,0.0,0.0,0.0,0.0,0.0,0.0,0.0,0.0,0.0,0.0,-0.7788,-0.7594,-0.7642,0.0,0.0,0.0,0.0,0.0,0.0,0.0,0.0,-0.7927,-0.8106,-0.8109,-0.8109,-0.8109,-0.8105,-0.8044,-0.789,0.0,0.0,0.0,0.0,0.0,0.0,0.0,0.0,-0.789,-0.7906,-0.8363,-0.858,-0.8475,-0.8475,-0.8482,-0.842,-0.926,-0.9945,-1.047,-1.0484,-1.0688,0.0,0.0,0.0,0.0,0.0,0.0,0.0,0.0,0.0,0.0,0.0,0.0,0.0,0.0,0.0,0.0,0.0,0.0,0.0,0.0,0.0,0.0,0.0,-1.0498,0.0,0.0,0.0,0.0,0.0,0.0,0.0,0.0,0.0,-0.671,-0.6775,-0.6861,-0.6971,-0.6947,-0.6875,-0.6894,0.0,0.0,0.0,0.0,0.0,0.0,0.0,-0.6672,-0.6615,-0.6587,-0.6594,-0.6846,-0.6947,-0.6984,-0.6984,0.0,0.0,-0.6631,-0.6522,-0.642,-0.6309,-0.609,-0.5839,-0.5444,-0.548,-0.5372,0.0,0.0,0.0,0.0,-0.778,0.0,0.0,0.0,-0.8008,-0.7923,0.0,-0.7947,0.0,0.0,0.0,0.0,-0.7816,-0.7923,0.0,0.0,-0.8373,-0.851,-0.8304,-0.8343,-0.8296,-0.8288,-0.8122,-0.8036,-0.8028,-0.8032,0.0,0.0,0.0,0.0,0.0,0.0,-0.8008,-0.802,-0.8357,-0.8459,-0.8288,-0.8284,-0.8195,-0.8028,-0.8873,-0.9412,-0.9639,-1.0157,-1.0586,-1.0762,-1.0148,0.0,0.0,0.0,0.0,0.0,0.0,0.0,0.0,0.0,0.0,0.0,0.0,0.0,0.0,0.0,0.0,0.0,0.0,0.0,0.0,-0.9767,0.0,0.0,0.0,0.0,0.0,0.0,0.0,0.0,0.0,-0.6704,-0.6731,-0.6865,-0.698,-0.6975,0.0,0.0,0.0,0.0,-0.6857,-0.6435,-0.6403,-0.6382,-0.639,-0.6519,-0.671,-0.692,0.0,0.0,-0.7146,-0.7009,-0.6905,-0.6937,-0.6566,-0.643,-0.6821,-0.641,-0.6014,-0.5978,-0.5545,-0.5132,-0.5093,-0.5086,-0.4932,-0.7715,0.0,0.0,0.0,0.0,-0.7565,-0.7736,-0.8012,-0.8012,-0.8057,-0.8184,-0.8187,0.0,0.0,0.0,0.0,0.0,0.0,-0.8085,-0.8215,-0.8321,-0.841,-0.8535,-0.8531,-0.8531,-0.8483,-0.8477,-0.8449,-0.8406,-0.841,-0.8229,-0.7804,0.0,0.0,0.0,0.0,-0.789,-0.8012,-0.8122,-0.8146,-0.8097,-0.8093,-0.8069,-0.8012,-0.8135,-0.8201,-0.8255,-0.8448,-0.8706,-0.9025,-0.8436,0.0,0.0,0.0,0.0,0.0,0.0,0.0,0.0,0.0,0.0,0.0,0.0,0.0,0.0,0.0,0.0,0.0,0.0,0.0,-0.9091,-0.9246,-0.9201,0.0,0.0,0.0,0.0,0.0,0.0,0.0,0.0,0.0,-0.6906,-0.6837,-0.6792,0.0,0.0,-0.6577,-0.6505,-0.6678,-0.6626,-0.6204,-0.6102,0.0,-0.632,-0.5883,-0.5713,-0.6194,-0.6079,-0.5918,-0.5918,-0.5965,-0.5998,-0.5998,-0.5882,-0.5857,-0.5936,-0.5853,-0.5695,-0.5698,-0.5585,-0.5319,-0.4906,-0.483,-0.464,-0.7886,-0.7687,-0.7661,-0.7633,-0.7633,-0.7633,-0.7752,-0.8012,-0.8012,-0.804,-0.8085,-0.8154,-0.804,-0.7805,-0.7878,0.0,0.0,0.0,-0.8223,-0.8402,-0.8398,-0.8463,-0.8608,-0.8616,-0.8571,-0.8502,-0.8459,-0.8461,-0.8349,-0.8322,-0.8126,-0.7812,0.0,-0.7675,-0.7694,-0.7763,-0.7849,-0.791,-0.7979,-0.7983,-0.7914,-0.7841,-0.7765,-0.7689,-0.7568,-0.7479,-0.7463,-0.7467,-0.7651,-0.8015,-0.7621,-0.7795,0.0,0.0,0.0,0.0,0.0,0.0,0.0,0.0,0.0,0.0,0.0,-0.9997,-1.0132,0.0,0.0,0.0,-0.8883,-0.8373,-0.8103,-0.8379,0.0,0.0,0.0,0.0,0.0,0.0,0.0,-0.6639,-0.6853,-0.7016,-0.7086,-0.6964,-0.6895,-0.6903,-0.681,-0.6609,-0.6298,0.0,-0.6335,-0.5728,-0.5623,-0.5689,-0.5808,-0.5472,-0.5359,-0.5788,-0.5638,-0.5503,-0.5471,-0.5535,-0.558,-0.5583,-0.5431,-0.5237,-0.5237,-0.5043,-0.5004,-0.516,-0.5043,-0.4771,-0.4426,-0.4348,-0.4231,-0.8048,-0.8024,-0.7866,-0.7837,-0.782,-0.782,-0.7918,-0.8032,-0.8036,-0.7955,-0.7877,-0.7988,-0.7874,-0.7581,-0.7788,0.0,-0.8065,-0.8235,-0.8402,-0.8616,-0.8616,-0.8616,-0.8612,-0.8596,-0.8455,-0.8292,-0.8276,-0.8187,-0.804,-0.7886,-0.7837,-0.7824,-0.7935,-0.7849,-0.7549,-0.7735,-0.7829,-0.7849,-0.7931,-0.791,-0.778,-0.7569,-0.7407,-0.7223,-0.7184,-0.7138,-0.7085,-0.7056,-0.7203,-0.755,-0.7452,-0.7715,-0.8435,0.0,0.0,0.0,0.0,0.0,0.0,0.0,0.0,0.0,0.0,0.0,0.0,0.0,0.0,0.0,-0.8322,0.0,-0.708,-0.7416,0.0,0.0,0.0,-0.7497,-0.7043,-0.7004,-0.7012,-0.7012,0.0,0.0,-0.7211,-0.7269,-0.724,-0.7252,-0.7253,-0.6906,-0.6133,-0.6181,-0.6009,-0.5192,-0.5038,-0.508,-0.5115,-0.5195,-0.5292,-0.5348,-0.5467,-0.5381,-0.5384,-0.5386,-0.5428,-0.5351,-0.5007,-0.4623,-0.4623,-0.4231,-0.396,-0.4543,-0.4231,-0.3841,-0.3841,-0.3841,-0.3841,-0.8353,-0.8219,-0.8178,-0.8081,-0.7955,-0.7951,-0.8057,-0.8219,-0.8223,-0.828,-0.8424,-0.8461,-0.839,-0.8355,-0.84,-0.8441,-0.8438,-0.8479,-0.8567,-0.8612,-0.8616,-0.8616,-0.8604,-0.8465,-0.8333,-0.828,-0.8146,-0.813,-0.8219,-0.8182,-0.8093,-0.7959,-0.7996,-0.7971,-0.789,-0.7931,-0.8024,-0.8162,-0.7975,-0.7736,-0.7596,-0.7543,-0.7484,-0.7446,-0.7138,-0.6961,-0.6921,-0.6811,-0.6677,-0.6634,-0.6869,-0.6907,-0.6662,-0.7192,0.0,0.0,0.0,0.0,0.0,0.0,0.0,0.0,0.0,-0.8088,-0.8527,0.0,-0.7425,0.0,-0.7637,-0.7343,-0.7159,-0.7269,0.0,0.0,-0.7093,-0.7116,-0.7023,-0.7078,-0.7126,-0.7159,-0.7273,-0.7461,-0.761,-0.7669,-0.7679,-0.7797,-0.7437,-0.6945,-0.6345,-0.6252,-0.5898,-0.4835,-0.4671,-0.477,-0.4803,-0.4829,-0.4743,-0.4302,-0.4229,-0.4229,-0.4231,-0.4229,-0.4229,-0.4229,-0.4114,-0.4036,-0.4038,-0.3882,-0.3841,-0.396,-0.3882,-0.3802,-0.3802,-0.3802,-0.3802,-0.8576,-0.8414,-0.8414,-0.8357,-0.8247,-0.8085,-0.8073,-0.8166,-0.8166,-0.8223,-0.8316,-0.8321,-0.8321,-0.8325,-0.8406,-0.849,-0.845,-0.8575,-0.8616,-0.8616,-0.8616,-0.8616,-0.8608,-0.8463,-0.8373,-0.8284,-0.8187,-0.8146,-0.8166,-0.8166,-0.8117,-0.802,-0.8097,-0.8134,-0.8126,-0.7898,-0.7829,-0.7927,-0.774,-0.7665,-0.7645,-0.7529,-0.7405,-0.7211,-0.6946,-0.6689,-0.6544,-0.635,-0.6279,-0.6357,-0.6537,-0.6533,-0.6302,-0.6639,-0.6681,0.0,0.0,0.0,0.0,0.0,0.0,0.0,0.0,0.0,0.0,0.0,-0.6985,-0.7359,-0.7279,-0.7155,-0.7114,-0.7102,-0.7098,-0.7078,-0.711,-0.7175,-0.7335,-0.7441,-0.7492,-0.7569,-0.7659,-0.7789,-0.8012,-0.7992,-0.7932,-0.7797,-0.7442,-0.6928,-0.6251,-0.587,-0.5271,-0.4308,-0.4233,-0.4311,-0.4311,-0.4309,-0.4192,-0.388,-0.3802,-0.3802,-0.3802,-0.3802,-0.3802,-0.3802,-0.3802,-0.3802,-0.3802,-0.3802,-0.3802,-0.3802,-0.3802,-0.3802,-0.3802,-0.3802,-0.3802,-0.8767,-0.8637,-0.8682,-0.8633,-0.8653,-0.826,-0.8105,-0.8085,-0.8085,-0.8085,-0.8085,-0.8085,-0.8081,-0.8093,-0.8256,-0.8325,-0.8333,-0.8535,-0.8616,-0.8616,-0.8616,-0.8616,-0.8612,-0.8584,-0.845,-0.8296,-0.8268,-0.8182,-0.8048,-0.8048,-0.8048,-0.8057,-0.8207,-0.828,-0.8239,-0.7784,-0.7565,-0.7586,-0.7541,-0.7586,-0.7759,-0.7563,-0.7266,-0.6929,-0.6704,-0.6419,-0.614,-0.5914,-0.5979,-0.6301,-0.6341,-0.6427,-0.6554,-0.6331,-0.6318,0.0,-0.6177,0.0,0.0,0.0,0.0,0.0,0.0,0.0,0.0,-0.6984,-0.7036,-0.702,-0.7131,-0.7171,-0.7065,-0.7057,-0.7131,-0.7236,-0.7293,-0.7427,-0.7744,-0.7833,-0.7898,-0.8028,-0.8048,-0.8117,-0.8288,-0.8325,-0.8127,-0.7607,-0.7232,-0.6686,-0.5906,-0.5261,-0.4644,-0.3894,-0.3802,-0.3882,-0.3882,-0.3841,-0.3841,-0.3802,-0.3802,-0.3802,-0.3802,-0.3802,-0.3802,-0.3802,-0.3802,-0.3802,-0.3802,-0.3802,-0.3802,-0.3802,-0.3802,-0.3802,-0.3802,-0.3802,-0.3802,-0.9027,-0.8999,-0.8995,-0.8995,-0.8978,-0.8763,-0.8589,-0.8506,-0.8506,-0.8506,-0.8467,-0.8463,-0.8506,-0.8467,-0.8499,-0.8563,-0.8519,-0.8592,-0.8616,-0.8616,-0.8616,-0.8616,-0.8604,-0.8457,-0.8367,-0.828,-0.8138,-0.8126,-0.8235,-0.8239,-0.8239,-0.8235,-0.8276,-0.8215,-0.8069,0.0,0.0,0.0,-0.7898,-0.769,-0.7529,-0.7257,-0.7073,-0.6965,-0.6641,0.0,-0.6348,-0.5982,-0.5839,-0.5907,-0.6058,0.0,0.0,0.0,0.0,0.0,0.0,0.0,0.0,0.0,0.0,0.0,-0.6955,-0.6951,-0.6984,-0.6984,-0.7049,-0.7159,-0.7204,-0.7269,-0.7408,-0.742,-0.7494,-0.7673,-0.7698,-0.778,-0.7939,-0.7967,-0.8036,-0.8215,-0.8239,-0.8304,-0.8475,-0.8559,-0.8253,-0.7552,-0.6917,-0.6169,-0.5344,-0.4951,-0.4541,-0.3938,-0.3802,-0.3802,-0.3802,-0.3802,-0.3802,-0.3802,-0.3802,-0.3802,-0.3802,-0.3802,-0.3802,-0.3802,-0.3802,-0.3802,-0.3802,-0.3802,-0.3802,-0.3802,-0.3802,-0.3802,-0.3802,-0.3802,-0.3802,-0.9173,-0.9096,-0.9096,-0.9096,0.0,-0.8995,-0.8857,-0.8686,-0.8649,-0.8616,-0.8616,-0.8616,-0.8616,-0.8616,-0.8616,-0.8616,-0.8616,-0.8616,-0.8616,-0.8616,-0.8616,-0.8616,-0.8608,-0.8471,-0.8426,-0.8465,-0.8375,-0.8337,-0.8465,-0.8473,-0.8426,-0.8473,-0.8426,-0.8377,-0.8288,-0.8288,-0.8288,-0.8292,-0.802,-0.7837,-0.774,-0.7488,-0.7306,-0.7098,-0.6722,0.0,0.0,0.0,0.0,0.0,0.0,0.0,0.0,-0.6241,0.0,-0.6714,-0.6605,-0.6705,-0.7042,-0.7122,-0.7123,-0.7245,-0.7253,-0.7216,-0.7094,-0.72,-0.729,-0.7346,-0.7435,-0.7521,-0.7653,-0.7695,-0.778,-0.7874,-0.7886,-0.7951,-0.8113,-0.815,-0.8223,-0.839,-0.843,-0.851,-0.86,-0.8252,-0.7764,-0.6994,-0.6229,-0.5474,-0.4692,-0.4415,-0.4183,-0.3859,-0.3802,-0.3802,-0.3802,-0.3802,-0.3802,-0.3802,-0.3802,-0.3802,-0.3802,-0.3802,-0.3802,-0.3802,-0.3802,-0.3802,-0.3802,-0.3802,-0.3802,-0.3802,-0.3802,-0.3802,-0.3802,-0.3802,-0.3802,-0.9319,-0.919,-0.9194,-0.919,-0.919,-0.9157,-0.9019,-0.8808,-0.8686,0.0,0.0,-0.8616,-0.8616,-0.8616,-0.8616,-0.8616,-0.8616,-0.8616,-0.8616,-0.8616,-0.8616,-0.8616,-0.8616,-0.8616,-0.8616,-0.8616,-0.8616,-0.8616,-0.8616,-0.8616,-0.8616,-0.8616,-0.8616,-0.8616,-0.8616,-0.8616,-0.8491,-0.8294,-0.808,-0.8,-0.7963,-0.7772,-0.7508,-0.7183,-0.6807,-0.6632,-0.6678,-0.6165,-0.6018,-0.6305,-0.6165,-0.614,-0.627,-0.6205,-0.6295,-0.6615,-0.6538,-0.6668,-0.7112,-0.7157,-0.7233,-0.7482,-0.7522,-0.7466,-0.7296,-0.7452,-0.7584,-0.7573,-0.7715,-0.7845,-0.7845,-0.7923,-0.8028,-0.8057,-0.8061,-0.8134,-0.8308,-0.8337,-0.8445,-0.8584,-0.8604,-0.8548,-0.838,-0.7884,-0.7125,-0.6264,-0.5607,-0.486,-0.4121,-0.3951,-0.3922,-0.3818,-0.3802,-0.3802,-0.3802,-0.3802,-0.3802,-0.3802,-0.3802,-0.3802,-0.3802,-0.3802,-0.3802,-0.3802,-0.3802,-0.3802,-0.3802,-0.3802,-0.3802,-0.3802,-0.3802,-0.3802,-0.3802,-0.3802,-0.3802,-0.9571,-0.9506,-0.9555,-0.9506,-0.9543,-0.9384,-0.9129,-0.8812,-0.8641,-0.8616,-0.8616,-0.8616,-0.8616,-0.8616,-0.8616,-0.8616,-0.8616,-0.8616,-0.8616,-0.8616,-0.8616,-0.8616,-0.8616,-0.8616,-0.8616,-0.8616,-0.8616,-0.8616,-0.8616,-0.8616,-0.8616,-0.8616,-0.8616,-0.8616,-0.8616,-0.8616,-0.8464,-0.8201,-0.8102,-0.7943,-0.7837,-0.7472,-0.7204,-0.7041,-0.6825,-0.6701,-0.6714,-0.628,-0.6097,-0.6133,-0.595,-0.5969,-0.6275,-0.6289,-0.6458,-0.6817,-0.6836,-0.6881,-0.6942,-0.6946,-0.7095,-0.7375,-0.7571,-0.7708,-0.7703,-0.7743,-0.7824,-0.7918,-0.7959,-0.7975,-0.7979,-0.8008,-0.8093,-0.8227,-0.8247,-0.8325,-0.8543,-0.8563,-0.8567,-0.8592,-0.8616,-0.8273,-0.7744,-0.7418,-0.6757,-0.5655,-0.5105,-0.4705,-0.402,-0.3822,-0.3818,-0.3806,-0.3802,-0.3802,-0.3802,-0.3802,-0.3802,-0.3802,-0.3802,-0.3802,-0.3802,-0.3802,-0.3802,-0.3802,-0.3802,-0.3802,-0.3802,-0.3802,-0.3802,-0.3802,-0.3802,-0.3802,-0.3802,-0.3802,-0.3802,-0.9624,-0.9624,-0.9624,-0.9624,-0.9616,-0.9433,-0.9253,-0.8958,-0.8783,-0.8649,-0.8616,-0.8616,-0.8616,-0.8616,-0.8616,-0.8616,-0.8616,-0.8616,-0.8616,-0.8616,-0.8616,-0.8616,-0.8616,-0.8616,-0.8616,-0.8616,-0.8616,-0.8616,-0.8616,-0.8616,-0.8616,-0.8616,-0.8616,-0.8616,-0.8612,-0.8432,-0.834,-0.8197,-0.8307,-0.8185,-0.7846,-0.7805,-0.7671,-0.7437,-0.7197,-0.7112,-0.7137,-0.6757,-0.6533,-0.6529,-0.6346,-0.6266,-0.6298,-0.6304,-0.6409,-0.671,-0.6798,-0.6885,-0.6999,-0.7204,-0.7404,-0.7566,-0.7767,-0.7867,-0.7842,-0.7873,-0.7931,-0.8008,-0.8101,-0.8162,-0.8166,-0.8256,-0.8349,-0.8434,-0.8442,-0.8475,-0.8592,-0.8616,-0.8571,-0.8438,-0.8151,-0.7784,-0.7315,-0.6622,-0.5981,-0.5117,-0.4681,-0.42,-0.3847,-0.3802,-0.3802,-0.3802,-0.3802,-0.3802,-0.3802,-0.3802,-0.3802,-0.3802,-0.3802,-0.3802,-0.3802,-0.3802,-0.3802,-0.3802,-0.3802,-0.3802,-0.3802,-0.3802,-0.3802,-0.3802,-0.3802,-0.3802,-0.3802,-0.3802,-0.3802,-0.9624,-0.9624,-0.9624,-0.9624,-0.9567,-0.9478,-0.9363,-0.9141,-0.8962,-0.8787,-0.8673,-0.8633,-0.8616,-0.8616,-0.8616,-0.8616,-0.8616,-0.8616,-0.8616,-0.8616,-0.8616,-0.8616,-0.8568,-0.8432,-0.8432,-0.8524,-0.8256,-0.8164,-0.83,-0.8164,-0.8164,-0.8212,-0.8028,-0.7984,-0.8116,-0.7713,-0.7441,-0.7397,-0.7848,-0.8036,-0.7916,-0.8033,-0.805,-0.7845,-0.7608,-0.7501,-0.7536,-0.725,-0.7016,-0.6934,-0.6784,-0.6627,-0.6399,-0.6399,-0.6477,-0.6602,-0.6744,-0.6852,-0.702,-0.7323,-0.7541,-0.7628,-0.7784,-0.7904,-0.7979,-0.8008,-0.8092,-0.8154,-0.8276,-0.8353,-0.8369,-0.8514,-0.8612,-0.8612,-0.8616,-0.8608,-0.8612,-0.858,-0.8411,-0.8095,-0.7654,-0.7189,-0.6602,-0.5735,-0.5028,-0.4678,-0.4159,-0.3845,-0.3802,-0.3802,-0.3802,-0.3802,-0.3802,-0.3802,-0.3802,-0.3802,-0.3802,-0.3802,-0.3802,-0.3802,-0.3802,-0.3802,-0.3802,-0.3802,-0.3802,-0.3802,-0.3802,-0.3802,-0.3802,-0.3802,-0.3802,-0.3802,-0.3802,-0.3802,-0.3802,-0.9624,-0.9624,-0.9624,-0.9624,-0.9624,-0.9604,-0.9494,-0.9359,-0.9145,-0.897,-0.8783,-0.8637,-0.8616,-0.8616,-0.8616,-0.8616,-0.8616,-0.8616,-0.8616,-0.8568,-0.8616,-0.8616,-0.848,-0.7893,-0.7937,-0.8296,-0.7275,-0.7007,-0.7489,-0.6918,-0.683,-0.7095,-0.6422,-0.6239,-0.646,-0.5794,-0.522,-0.4959,-0.6018,-0.7014,-0.7835,-0.7734,-0.7766,-0.7996,-0.7786,-0.7659,-0.7665,-0.7644,-0.7435,-0.7065,-0.7014,-0.6939,-0.6692,-0.6654,-0.6658,-0.6692,-0.6712,-0.6723,-0.6733,-0.6905,-0.7122,-0.7296,-0.7498,-0.7756,-0.8082,-0.8154,-0.8285,-0.8456,-0.8563,-0.8571,-0.8584,-0.8604,-0.8616,-0.8616,-0.8616,-0.8616,-0.8596,-0.8461,-0.8091,-0.7517,-0.721,-0.6654,-0.5552,-0.5079,-0.4713,-0.4115,-0.3934,-0.3802,-0.3802,-0.3802,-0.3802,-0.3802,-0.3802,-0.3802,-0.3802,-0.3802,-0.3802,-0.3802,-0.3802,-0.3802,-0.3802,-0.3802,-0.3802,-0.3802,-0.3802,-0.3802,-0.3802,-0.3802,-0.3802,-0.38,-0.3798,-0.3798,-0.38,-0.3748,-0.3703,-0.9624,-0.9624,-0.9624,-0.9624,-0.9624,-0.9624,-0.9522,-0.9392,-0.9173,-0.8995,-0.8767,-0.8641,-0.8616,-0.8616,-0.8616,-0.8616,-0.8616,-0.8616,-0.834,-0.7981,-0.7937,-0.7716,-0.7272,-0.6735,-0.6732,-0.7187,-0.6425,-0.6151,-0.6287,-0.5844,-0.5802,-0.6154,-0.562,-0.5395,-0.5528,-0.5043,-0.469,-0.4603,-0.4956,-0.5419,-0.6043,-0.7135,-0.758,-0.7214,-0.7456,-0.7704,-0.7822,-0.7604,-0.7405,-0.724,-0.7112,-0.6943,-0.6698,-0.6702,-0.6702,-0.6705,-0.6787,-0.6917,-0.7135,-0.7241,-0.728,-0.7407,-0.7596,-0.7768,-0.7768,-0.794,-0.8072,-0.8208,-0.8432,-0.8568,-0.8384,-0.8476,-0.8616,-0.8616,-0.8616,-0.8616,-0.8612,-0.8092,-0.7611,-0.7213,-0.6404,-0.5655,-0.4952,-0.4488,-0.4156,-0.3847,-0.3802,-0.3802,-0.3802,-0.3802,-0.3802,-0.3802,-0.3802,-0.3802,-0.3802,-0.3802,-0.3802,-0.3802,-0.3802,-0.3802,-0.3802,-0.3802,-0.3802,-0.3802,-0.3802,-0.3802,-0.3802,-0.3802,-0.3802,-0.3748,-0.3703,-0.3681,-0.3681,-0.3298,-0.3047,-0.9624,-0.9624,-0.9624,-0.9624,-0.9624,-0.9624,-0.9551,-0.9405,-0.9194,-0.9023,-0.8881,-0.8666,-0.8616,-0.8616,-0.8616,-0.8616,-0.8568,-0.8388,-0.8028,-0.7489,-0.7177,-0.6732,-0.6157,-0.5667,-0.5622,-0.5847,-0.5401,-0.5045,-0.4907,-0.4599,-0.4643,-0.4996,-0.451,-0.4287,-0.4334,-0.3978,-0.3712,-0.3712,-0.3801,-0.3844,-0.4022,-0.5802,-0.664,-0.6195,-0.6668,-0.7175,-0.7533,-0.7407,-0.7372,-0.7418,-0.7284,-0.7112,-0.682,-0.682,-0.682,-0.6827,-0.6926,-0.7078,-0.7363,-0.737,-0.7415,-0.7415,-0.7588,-0.7632,-0.7591,-0.768,-0.7768,-0.7812,-0.8164,-0.8296,-0.8248,-0.8384,-0.8524,-0.8568,-0.8476,-0.8296,-0.8245,-0.754,-0.6891,-0.6491,-0.5641,-0.4793,-0.4447,-0.4079,-0.3845,-0.3804,-0.3802,-0.3802,-0.3802,-0.3802,-0.3802,-0.3802,-0.3802,-0.3802,-0.3802,-0.3802,-0.3802,-0.3802,-0.3802,-0.3802,-0.3802,-0.3802,-0.3802,-0.3802,-0.3802,-0.3798,-0.3793,-0.3793,-0.3552,-0.345,-0.3332,-0.314,-0.284,-0.2426,-0.2191,-0.9624,-0.9624,-0.9624,-0.9624,-0.9624,-0.9624,-0.9571,-0.9575,-0.9254,-0.9092,-0.9027,-0.8771,-0.8616,-0.8616,-0.8568,-0.8568,-0.8476,-0.7893,-0.7533,-0.7265,-0.6287,-0.575,-0.5664,-0.5001,-0.4781,-0.4912,-0.4162,-0.3539,-0.3179,-0.3044,-0.3224,-0.3621,-0.2868,-0.2601,-0.2867,-0.2151,-0.1614,-0.1838,-0.2553,-0.2553,-0.1973,-0.3532,-0.4639,-0.4938,-0.5346,-0.5863,-0.6474,-0.7102,-0.7464,-0.7478,-0.7636,-0.7592,-0.7112,-0.7065,-0.7058,-0.7065,-0.7075,-0.7085,-0.7139,-0.7143,-0.7143,-0.7139,-0.7187,-0.7231,-0.7415,-0.7503,-0.7503,-0.7507,-0.7768,-0.7984,-0.8025,-0.8113,-0.8248,-0.8384,-0.7937,-0.7621,-0.7533,-0.6675,-0.5853,-0.5375,-0.4929,-0.4494,-0.396,-0.3841,-0.3802,-0.3802,-0.3802,-0.3802,-0.3802,-0.3802,-0.3802,-0.3802,-0.3802,-0.3802,-0.3802,-0.3802,-0.3802,-0.3802,-0.3802,-0.3802,-0.3802,-0.3802,-0.3802,-0.3802,-0.3802,-0.3798,-0.3785,-0.354,-0.3122,-0.2859,-0.2575,-0.2297,-0.204,-0.1564,-0.1333,-0.9624,-0.9624,-0.9624,-0.9624,-0.9624,-0.9624,-0.9624,-0.96,-0.9368,-0.9198,-0.9068,-0.8836,-0.867,-0.8568,-0.8116,-0.7893,-0.7848,-0.7625,-0.7003,-0.6163,-0.5359,-0.4781,-0.4293,-0.3492,-0.3267,-0.3491,-0.3004,-0.278,-0.2823,-0.2285,-0.2196,-0.2556,-0.2017,-0.1794,-0.1838,-0.1614,-0.1391,-0.1436,-0.1793,-0.1749,-0.148,-0.2105,-0.2552,-0.2774,-0.402,-0.4956,-0.5484,-0.6198,-0.6605,-0.6605,-0.7234,-0.7503,-0.7143,-0.7095,-0.7095,-0.7095,-0.7095,-0.7095,-0.7095,-0.7095,-0.7095,-0.7095,-0.7095,-0.7139,-0.7231,-0.7231,-0.7231,-0.7275,-0.7319,-0.7272,-0.7092,-0.7536,-0.776,-0.7309,-0.7224,-0.6956,-0.6417,-0.5806,-0.5324,-0.5038,-0.4555,-0.4001,-0.3919,-0.3802,-0.3802,-0.3802,-0.3802,-0.3802,-0.3802,-0.3802,-0.3802,-0.3802,-0.3802,-0.3802,-0.3802,-0.3802,-0.3802,-0.3802,-0.3802,-0.3802,-0.3802,-0.3802,-0.3802,-0.38,-0.38,-0.3555,-0.3412,-0.2959,-0.2564,-0.196,-0.1689,-0.1527,-0.1313,-0.0812,-0.0559,-0.9624,-0.9624,-0.9624,-0.9624,-0.9624,-0.9624,-0.9624,-0.9604,-0.9433,-0.9306,-0.9084,-0.8901,-0.8588,-0.8224,-0.7713,-0.7224,-0.6871,-0.6786,-0.6207,-0.5144,-0.4383,-0.3762,-0.3138,-0.2467,-0.2242,-0.2376,-0.2108,-0.2108,-0.2285,-0.1748,-0.1615,-0.1885,-0.157,-0.1391,-0.1391,-0.1391,-0.1391,-0.1391,-0.1391,-0.1391,-0.1391,-0.1391,-0.1391,-0.1569,-0.2685,-0.371,-0.4374,-0.5045,-0.5492,-0.5669,-0.6254,-0.6564,-0.6609,-0.665,-0.6782,-0.7051,-0.7095,-0.7095,-0.7095,-0.7095,-0.7095,-0.7095,-0.7095,-0.7095,-0.7095,-0.7095,-0.7095,-0.7095,-0.7095,-0.6827,-0.6337,-0.6694,-0.6827,-0.6107,-0.6021,-0.5894,-0.5385,-0.486,-0.4594,-0.4544,-0.4194,-0.3849,-0.3802,-0.3802,-0.3802,-0.3802,-0.3802,-0.3802,-0.3802,-0.3802,-0.3802,-0.3802,-0.3802,-0.3802,-0.3802,-0.3802,-0.3802,-0.3802,-0.3802,-0.3802,-0.3802,-0.3802,-0.3759,-0.3756,-0.3523,-0.3237,-0.2837,-0.2369,-0.176,-0.1068,-0.0806,-0.0691,-0.0344,0.0,0.017,-0.9624,-0.9624,-0.9624,-0.9624,-0.9624,-0.9624,-0.9624,-0.9596,-0.9449,-0.9287,-0.912,-0.8876,-0.8391,-0.7657,-0.7455,-0.6738,-0.568,-0.5458,-0.5144,-0.4516,-0.3448,-0.2734,-0.2334,-0.2199,-0.1885,-0.1569,-0.1436,-0.1436,-0.1525,-0.1435,-0.1436,-0.1436,-0.1436,-0.1391,-0.1391,-0.1391,-0.1391,-0.1391,-0.1391,-0.1391,-0.1391,-0.1391,-0.1391,-0.1391,-0.1569,-0.2105,-0.3175,-0.3712,-0.4204,-0.4514,-0.4692,-0.5006,-0.5586,-0.5675,-0.6074,-0.6694,-0.6962,-0.7007,-0.6962,-0.6871,-0.6782,-0.6918,-0.7007,-0.6962,-0.7095,-0.7095,-0.7095,-0.7095,-0.6962,-0.665,-0.5808,-0.5586,-0.5447,-0.4999,-0.4556,-0.4336,-0.4261,-0.3834,-0.3469,-0.3824,-0.3845,-0.3804,-0.3802,-0.3802,-0.3802,-0.3802,-0.3802,-0.3802,-0.3802,-0.3802,-0.3802,-0.3802,-0.3802,-0.3802,-0.3802,-0.3802,-0.3802,-0.3802,-0.3802,-0.3802,-0.3802,-0.3802,-0.3624,-0.3534,-0.2789,-0.2443,-0.1738,-0.1238,-0.0871,-0.031,-0.0102,0.0135,0.0405,0.0641,0.0775,-0.9624,-0.9624,-0.9624,-0.9624,-0.9624,-0.9624,-0.9624,-0.9624,-0.9563,-0.9437,-0.9314,-0.9088,-0.8497,-0.7652,-0.7053,-0.6027,-0.4875,-0.4387,-0.4076,-0.3764,-0.2869,-0.2333,-0.2154,-0.184,-0.157,-0.1436,-0.1391,-0.1391,-0.1391,-0.1391,-0.1391,-0.1391,-0.1391,-0.1391,-0.1391,-0.1391,-0.1391,-0.1391,-0.1391,-0.1391,-0.1391,-0.1391,-0.1391,-0.1391,-0.1391,-0.1613,-0.1972,-0.2908,-0.3401,-0.3446,-0.4202,-0.4648,-0.4734,-0.4734,-0.4868,-0.5134,-0.5179,-0.5179,-0.5179,-0.5223,-0.5536,-0.5985,-0.6163,-0.6476,-0.7007,-0.7051,-0.7051,-0.6962,-0.652,-0.5761,-0.487,-0.4113,-0.3803,-0.3578,-0.3623,-0.3444,-0.3157,-0.3189,-0.3426,-0.3724,-0.3802,-0.3802,-0.3802,-0.3802,-0.3763,-0.3802,-0.3802,-0.3763,-0.3802,-0.3802,-0.3802,-0.3802,-0.3802,-0.3802,-0.3802,-0.3802,-0.3802,-0.3802,-0.3802,-0.3802,-0.3802,-0.3563,-0.3426,-0.2855,-0.2106,-0.1438,-0.0738,-0.0276,0.0034,0.0338,0.0607,0.0808,0.1008,0.1109,0.1109,-0.9624,-0.9624,-0.9624,-0.9624,-0.9624,-0.9624,-0.9624,-0.9624,-0.9624,-0.9522,-0.9352,-0.8954,-0.826,-0.7334,-0.6271,-0.522,-0.421,-0.3406,-0.3094,-0.3005,-0.2557,-0.211,-0.1885,-0.157,-0.1391,-0.1391,-0.1391,-0.1391,-0.1391,-0.1391,-0.1391,-0.1391,-0.1391,-0.1391,-0.1391,-0.1391,-0.1391,-0.1391,-0.1391,-0.1391,-0.1391,-0.1391,-0.1391,-0.1391,-0.1391,-0.1391,-0.1435,-0.215,-0.2462,-0.2464,-0.3044,-0.3487,-0.3712,-0.3801,-0.3933,-0.4243,-0.4334,-0.4334,-0.4289,-0.4423,-0.4514,-0.5095,-0.5184,-0.5406,-0.5935,-0.6068,-0.6068,-0.5938,-0.5536,-0.4781,-0.389,-0.3312,-0.2778,-0.2376,-0.2552,-0.2578,-0.2238,-0.2696,-0.3136,-0.3423,-0.353,-0.3608,-0.3724,-0.3606,-0.3645,-0.3724,-0.3645,-0.3684,-0.3724,-0.3802,-0.3802,-0.3802,-0.3802,-0.3802,-0.3802,-0.3802,-0.3802,-0.3802,-0.3802,-0.3802,-0.3802,-0.329,-0.2963,-0.1836,-0.0978,-0.0529,0.0138,0.0341,0.0606,0.0941,0.1109,0.1109,0.1109,0.1109,0.1109,-0.9624,-0.9624,-0.9624,-0.9624,-0.9624,-0.9624,-0.9624,-0.9624,-0.9624,-0.9539,-0.9304,-0.862,-0.7655,-0.6608,-0.5491,-0.447,-0.3467,-0.2736,-0.2288,-0.2243,-0.2064,-0.1885,-0.1525,-0.1436,-0.1391,-0.1391,-0.1391,-0.1391,-0.1391,-0.1391,-0.1391,-0.1391,-0.1391,-0.1391,-0.1391,-0.1391,-0.1391,-0.1391,-0.1391,-0.1391,-0.1391,-0.1391,-0.1391,-0.1391,-0.1391,-0.1391,-0.1436,-0.1524,-0.1524,-0.1436,-0.1659,-0.2061,-0.2644,-0.2822,-0.3223,-0.3844,-0.4067,-0.3978,-0.4067,-0.3799,-0.3978,-0.42,-0.42,-0.4289,-0.451,-0.4688,-0.469,-0.4601,-0.4378,-0.389,-0.3178,-0.2732,-0.2331,-0.1615,-0.1659,-0.172,-0.1994,-0.2399,-0.276,-0.2982,-0.31,-0.3256,-0.3647,-0.3374,-0.3413,-0.3608,-0.3452,-0.3413,-0.3684,-0.3802,-0.3802,-0.3802,-0.3802,-0.3802,-0.3802,-0.3802,-0.3802,-0.3724,-0.3645,-0.3528,-0.3466,-0.291,-0.2152,-0.1035,-0.0143,0.0347,0.0681,0.081,0.0907,0.1041,0.1109,0.1109,0.1109,0.1109,0.1082,-0.9624,-0.9624,-0.9624,-0.9624,-0.9624,-0.9624,-0.9624,-0.9624,-0.9624,-0.955,-0.9331,-0.8583,-0.7472,-0.6376,-0.5229,-0.4003,-0.2793,-0.2306,-0.193,-0.166,-0.1615,-0.1525,-0.1436,-0.1391,-0.1391,-0.1391,-0.1391,-0.1391,-0.1391,-0.1391,-0.1391,-0.1391,-0.1391,-0.1391,-0.1391,-0.1391,-0.1391,-0.1391,-0.1391,-0.1391,-0.1391,-0.1391,-0.1391,-0.1391,-0.1391,-0.1391,-0.1391,-0.1391,-0.1391,-0.1391,-0.1391,-0.148,-0.1838,-0.1838,-0.2061,-0.2239,-0.2239,-0.2194,-0.2239,-0.2239,-0.2553,-0.3178,-0.3266,-0.3578,-0.4245,-0.4289,-0.4289,-0.4156,-0.3757,-0.3179,-0.2823,-0.224,-0.1704,-0.148,-0.1391,-0.1544,-0.1872,-0.21,-0.2314,-0.2617,-0.2866,-0.31,-0.3219,-0.3178,-0.3256,-0.3569,-0.3452,-0.3258,-0.3647,-0.3802,-0.3802,-0.3802,-0.3802,-0.3802,-0.3802,-0.3802,-0.3763,-0.3647,-0.3411,-0.3057,-0.2823,-0.2397,-0.1459,-0.0364,0.0282,0.0823,0.0916,0.1008,0.1076,0.1109,0.1109,0.1109,0.1109,0.111,0.1091,-0.9624,-0.9624,-0.9624,-0.9624,-0.9624,-0.9624,-0.9624,-0.9624,-0.9628,-0.9381,-0.8954,-0.8189,-0.703,-0.5744,-0.4635,-0.3441,-0.2292,-0.2019,-0.1729,-0.1498,-0.1442,-0.1391,-0.1391,-0.1391,-0.1391,-0.1391,-0.1391,-0.1391,-0.1391,-0.1391,-0.1391,-0.1391,-0.1391,-0.1391,-0.1391,-0.1391,-0.1391,-0.1391,-0.1391,-0.1391,-0.1391,-0.1391,-0.1391,-0.1391,-0.1391,-0.1391,-0.1391,-0.1391,-0.1391,-0.1391,-0.1391,-0.1391,-0.1391,-0.1391,-0.1391,-0.1391,-0.1391,-0.1436,-0.1391,-0.1391,-0.166,-0.2107,-0.2285,-0.2552,-0.2908,-0.3087,-0.3087,-0.2952,-0.2553,-0.2331,-0.2195,-0.1704,-0.1436,-0.1391,-0.1391,-0.1499,-0.169,-0.1683,-0.1894,-0.2152,-0.2431,-0.2746,-0.2982,-0.2824,-0.3059,-0.3411,-0.3176,-0.3333,-0.3647,-0.3724,-0.3802,-0.3763,-0.3802,-0.3802,-0.3763,-0.3763,-0.3175,-0.3057,-0.2624,-0.2311,-0.1857,-0.1476,-0.0743,0.0218,0.0771,0.1092,0.1085,0.1113,0.1109,0.1109,0.1109,0.1109,0.1109,0.1082,0.1097,-0.9624,-0.9624,-0.9624,-0.9624,-0.9624,-0.9624,-0.9624,-0.9579,-0.943,-0.8981,-0.8276,-0.7385,-0.6166,-0.4901,-0.3759,-0.2767,-0.2104,-0.1734,-0.1581,-0.1478,-0.1464,-0.1406,-0.1444,-0.1393,-0.1391,-0.1391,-0.1391,-0.1391,-0.1391,-0.1391,-0.1391,-0.1391,-0.1391,-0.1391,-0.1391,-0.1391,-0.1391,-0.1391,-0.1391,-0.1391,-0.1391,-0.1391,-0.1391,-0.1391,-0.1391,-0.1391,-0.1391,-0.1391,-0.1391,-0.1391,-0.1391,-0.1391,-0.1391,-0.1391,-0.1391,-0.1391,-0.1391,-0.1391,-0.1391,-0.1391,-0.1391,-0.1525,-0.1525,-0.1391,-0.1659,-0.1749,-0.1749,-0.1792,-0.1436,-0.1524,-0.1524,-0.1391,-0.1391,-0.1391,-0.1391,-0.1364,-0.1322,-0.1306,-0.1449,-0.1781,-0.1843,-0.2273,-0.251,-0.251,-0.2313,-0.3098,-0.2942,-0.2981,-0.3333,-0.3606,-0.3645,-0.3606,-0.3684,-0.3802,-0.3763,-0.3682,-0.286,-0.2273,-0.1606,-0.1135,-0.0507,-0.0077,0.03,0.0806,0.1029,0.1109,0.1092,0.1086,0.1113,0.1109,0.1109,0.1109,0.111,0.1089,0.1102,-0.9624,-0.9624,-0.9624,-0.9624,-0.9624,-0.9624,-0.9575,-0.9529,-0.8928,-0.8276,-0.7521,-0.6279,-0.5014,-0.3894,-0.3012,-0.225,-0.1802,-0.1579,-0.1517,-0.1515,-0.1512,-0.1491,-0.1471,-0.1406,-0.1392,-0.1391,-0.1391,-0.1391,-0.1391,-0.1391,-0.1391,-0.1391,-0.1391,-0.1391,-0.1391,-0.1391,-0.1391,-0.1391,-0.1391,-0.1391,-0.1391,-0.1391,-0.1391,-0.1391,-0.1391,-0.1391,-0.1391,-0.1391,-0.1391,-0.1391,-0.1391,-0.1391,-0.1391,-0.1391,-0.1391,-0.1391,-0.1391,-0.1391,-0.1391,-0.1391,-0.1391,-0.1391,-0.1391,-0.1391,-0.1391,-0.1391,-0.1391,-0.1391,-0.1391,-0.1391,-0.1391,-0.1391,-0.1391,-0.1391,-0.1387,-0.1366,-0.1321,-0.1306,-0.1362,-0.1474,-0.1726,-0.1959,-0.2156,-0.2079,-0.2196,-0.2668,-0.2707,-0.2628,-0.2981,-0.3411,-0.3452,-0.3413,-0.3645,-0.3724,-0.3292,-0.2978,-0.2036,-0.1332,-0.0705,-0.0235,0.039,0.0581,0.0722,0.089,0.1081,0.1131,0.1115,0.109,0.1083,0.1113,0.1111,0.1113,0.1084,0.1096,0.1155,-0.9624,-0.9624,-0.9624,-0.9624,-0.9525,-0.9229,-0.9034,-0.8829,-0.7875,-0.7123,-0.6373,-0.5277,-0.4176,-0.307,-0.2595,-0.2137,-0.1685,-0.1562,-0.1539,-0.1529,-0.1477,-0.1517,-0.1506,-0.1437,-0.1421,-0.1398,-0.1391,-0.1391,-0.1391,-0.1391,-0.1391,-0.1391,-0.1391,-0.1391,-0.1391,-0.1391,-0.1391,-0.1391,-0.1391,-0.1391,-0.1391,-0.1391,-0.1391,-0.1391,-0.1391,-0.1391,-0.1391,-0.1391,-0.1391,-0.1391,-0.1391,-0.1391,-0.1391,-0.1391,-0.1391,-0.1391,-0.1391,-0.1391,-0.1391,-0.1391,-0.1391,-0.1391,-0.1391,-0.1391,-0.1391,-0.1391,-0.1391,-0.1391,-0.1391,-0.1391,-0.1391,-0.1391,-0.1391,-0.1387,-0.1422,-0.1395,-0.1317,-0.1305,-0.1324,-0.1355,-0.1492,-0.1687,-0.1803,-0.1765,-0.2,-0.2433,-0.2313,-0.2273,-0.2668,-0.3059,-0.3217,-0.3295,-0.3606,-0.3526,-0.2938,-0.2154,-0.1057,-0.0392,0.0157,0.0549,0.098,0.0932,0.0845,0.1014,0.1177,0.1164,0.1147,0.1119,0.1097,0.1097,0.1097,0.1091,0.1095,0.1112,0.1215,-0.9624,-0.9624,-0.9624,-0.9624,-0.9476,-0.8779,-0.8432,-0.823,-0.6825,-0.5877,-0.5029,-0.4429,-0.3325,-0.247,-0.2269,-0.1968,-0.1709,-0.1593,-0.1568,-0.1552,-0.1502,-0.1543,-0.1535,-0.1525,-0.1457,-0.1408,-0.1402,-0.1399,-0.1393,-0.1391,-0.1391,-0.1391,-0.1391,-0.1391,-0.1391,-0.1391,-0.1391,-0.1391,-0.1391,-0.1391,-0.1391,-0.1391,-0.1391,-0.1391,-0.1391,-0.1391,-0.1391,-0.1391,-0.1391,-0.1391,-0.1391,-0.1391,-0.1391,-0.1391,-0.1391,-0.1391,-0.1391,-0.1391,-0.1391,-0.1391,-0.1391,-0.1391,-0.1391,-0.1391,-0.1391,-0.1391,-0.1391,-0.1391,-0.1391,-0.1391,-0.1391,-0.1391,-0.1387,-0.1424,-0.1403,-0.1377,-0.1307,-0.1299,-0.131,-0.1312,-0.1375,-0.1492,-0.157,-0.157,-0.1884,-0.2079,-0.196,-0.1999,-0.2353,-0.2707,-0.2904,-0.31,-0.3374,-0.2978,-0.235,-0.1528,-0.0352,0.0274,0.0824,0.1021,0.1297,0.1173,0.1046,0.1113,0.1209,0.1193,0.1174,0.1149,0.1132,0.1125,0.1121,0.1156,0.1125,0.1131,0.1274,-0.9624,-0.9624,-0.9624,-0.9624,-0.948,-0.873,-0.8333,-0.8031,-0.6176,-0.5079,-0.4377,-0.3275,-0.2422,-0.1869,-0.1717,-0.1667,-0.1615,-0.1606,-0.1602,-0.1594,-0.1543,-0.1585,-0.1566,-0.1563,-0.1543,-0.1513,-0.1489,-0.1466,-0.1398,-0.1391,-0.1391,-0.1391,-0.1391,-0.1391,-0.1391,-0.1391,-0.1391,-0.1391,-0.1391,-0.1391,-0.1391,-0.1391,-0.1391,-0.1391,-0.1391,-0.1391,-0.1391,-0.1391,-0.1391,-0.1391,-0.1391,-0.1391,-0.1391,-0.1391,-0.1391,-0.1391,-0.1391,-0.1391,-0.1391,-0.1391,-0.1391,-0.1391,-0.1391,-0.1391,-0.1391,-0.1391,-0.1391,-0.1391,-0.1391,-0.1391,-0.1391,-0.1391,-0.1421,-0.1406,-0.1389,-0.1367,-0.1327,-0.1308,-0.1299,-0.1303,-0.1298,-0.1297,-0.1375,-0.1414,-0.1571,-0.1766,-0.1765,-0.1764,-0.1961,-0.2353,-0.2668,-0.2904,-0.3139,-0.2469,-0.1684,-0.0784,0.0157,0.0706,0.1139,0.1139,0.1297,0.1297,0.1289,0.1279,0.1228,0.1213,0.1194,0.1176,0.1166,0.1157,0.1154,0.1187,0.1157,0.1165,0.1295,-0.9624,-0.9624,-0.9624,-0.9624,-0.9327,-0.7978,-0.7375,-0.6977,-0.4826,-0.3626,-0.3175,-0.2422,-0.1869,-0.1617,-0.1566,-0.1566,-0.1566,-0.1566,-0.1566,-0.1566,-0.1565,-0.1611,-0.1594,-0.1594,-0.1576,-0.1553,-0.1532,-0.15,-0.1461,-0.1442,-0.1393,-0.1391,-0.1391,-0.1391,-0.1391,-0.1391,-0.1391,-0.1391,-0.1391,-0.1391,-0.1391,-0.1391,-0.1391,-0.1391,-0.1391,-0.1391,-0.1391,-0.1391,-0.1391,-0.1391,-0.1391,-0.1391,-0.1391,-0.1391,-0.1391,-0.1391,-0.1391,-0.1391,-0.1391,-0.1391,-0.1391,-0.1391,-0.1391,-0.1391,-0.1391,-0.1391,-0.1391,-0.1391,-0.1391,-0.1391,-0.1391,-0.139,-0.142,-0.1395,-0.1377,-0.1347,-0.1313,-0.1331,-0.1314,-0.1299,-0.1298,-0.1297,-0.1297,-0.1336,-0.1336,-0.1375,-0.1492,-0.1569,-0.1649,-0.204,-0.247,-0.2195,0.0,0.0,0.0,-0.0118,0.051,0.1021,0.1297,0.1297,0.1297,0.1297,0.1297,0.1292,0.128,0.123,0.1224,0.1211,0.12,0.1187,0.1214,0.1209,0.1187,0.1239,0.1369,-0.9624,-0.9575,-0.9529,-0.9426,-0.8924,-0.7173,-0.6226,-0.5525,-0.3473,-0.2522,-0.2321,-0.1869,-0.1617,-0.1566,-0.1566,-0.1566,-0.1566,-0.1566,-0.1566,-0.1566,-0.1566,-0.1566,-0.1566,-0.1564,-0.1603,-0.1583,-0.1566,-0.154,-0.1484,-0.1459,-0.1399,-0.1392,-0.1391,-0.1391,-0.1391,-0.1391,-0.1391,-0.1391,-0.1391,-0.1391,-0.1391,-0.1391,-0.1391,-0.1391,-0.1391,-0.1391,-0.1391,-0.1391,-0.1391,-0.1391,-0.1391,-0.1391,-0.1391,-0.1391,-0.1391,-0.1391,-0.1391,-0.1391,-0.1391,-0.1391,-0.1391,-0.1391,-0.1391,-0.1391,-0.1391,-0.1391,-0.1391,-0.1391,-0.1391,-0.1391,-0.139,-0.1384,-0.141,-0.1383,-0.1354,-0.1326,-0.1297,-0.1316,-0.1306,-0.1297,-0.1297,-0.1297,-0.1297,-0.1297,-0.1297,-0.1297,-0.1414,-0.1569,-0.1687,-0.1961,-0.2117,-0.1528,0.0,0.0,0.0,0.0,0.0903,0.1139,0.1297,0.1297,0.1297,0.1297,0.1297,0.1297,0.1295,0.1285,0.1284,0.1242,0.1229,0.1252,0.1234,0.1235,0.1254,0.1301,0.1388,-0.9624,-0.9575,-0.9331,-0.8726,-0.777,-0.6575,-0.5477,-0.4479,-0.3024,-0.2422,-0.2321,-0.1869,-0.1566,-0.1566,-0.1566,-0.1566,-0.1566,-0.1566,-0.1566,-0.1566,-0.1566,-0.1566,-0.1566,-0.1566,-0.1564,-0.1603,-0.1584,-0.1538,-0.1498,-0.148,-0.1459,-0.1441,-0.1391,-0.1391,-0.1391,-0.1391,-0.1391,-0.1391,-0.1391,-0.1391,-0.1391,-0.1391,-0.1391,-0.1391,-0.1391,-0.1391,-0.1391,-0.1391,-0.1391,-0.1391,-0.1391,-0.1391,-0.1391,-0.1391,-0.1391,-0.1391,-0.1391,-0.1391,-0.1391,-0.1391,-0.1391,-0.1391,-0.1391,-0.1391,-0.1391,-0.1391,-0.1391,-0.1391,-0.1391,-0.1387,-0.1426,-0.141,-0.1384,-0.1357,-0.133,-0.13,-0.1312,-0.131,-0.1298,-0.1297,-0.1297,-0.1297,-0.1297,-0.1297,-0.1297,-0.1297,-0.1336,-0.1492,-0.1452,-0.1529,-0.1685,-0.1096,-0.0392,0.0,0.0,0.0,0.1139,0.1297,0.1297,0.1297,0.1336,0.1336,0.1297,0.1297,0.1336,0.1336,0.1292,0.1289,0.1289,0.1281,0.1265,0.1272,0.1288,0.137,0.1483,-0.8097,-0.8684,-0.8588,-0.8081,-0.7273,-0.6077,-0.4926,-0.3823,-0.2521,-0.1969,-0.1919,-0.1717,-0.1566,-0.1566,-0.1566,-0.1566,-0.1566,-0.1566,-0.1566,-0.1566,-0.1566,-0.1566,-0.1566,-0.1566,-0.1566,-0.1563,-0.1602,-0.158,-0.1535,-0.1494,-0.1466,-0.1396,-0.1391,-0.1391,-0.1391,-0.1391,-0.1391,-0.1391,-0.1391,-0.1391,-0.1391,-0.1391,-0.1391,-0.1391,-0.1391,-0.1391,-0.1391,-0.1391,-0.1391,-0.1391,-0.1391,-0.1391,-0.1391,-0.1391,-0.1391,-0.1391,-0.1391,-0.1391,-0.1391,-0.1391,-0.1391,-0.1391,-0.1391,-0.1391,-0.1391,-0.1391,-0.1391,-0.1391,-0.1391,-0.1384,-0.1414,-0.1398,-0.1365,-0.1335,-0.1309,-0.1329,-0.1306,-0.1301,-0.1297,-0.1297,-0.1297,-0.1297,-0.1297,-0.1297,-0.1297,-0.1297,-0.1218,-0.1178,-0.0785,-0.0275,-0.047,-0.0627,0.0078,0.0,0.0,0.1178,0.1218,0.1297,0.1297,0.1336,0.1336,0.1336,0.1375,0.1415,0.1415,0.1415,0.1336,0.1295,0.1293,0.1295,0.1296,0.1336,0.1336,0.1532,0.1802,-0.6108,-0.6988,-0.7223,-0.693,-0.6224,-0.5127,-0.4074,-0.3021,-0.207,-0.1617,-0.1566,-0.1566,-0.1566,-0.1566,-0.1566,-0.1566,-0.1566,-0.1566,-0.1566,-0.1566,-0.1566,-0.1566,-0.1566,-0.1566,-0.1566,-0.1566,-0.1564,-0.1594,-0.156,-0.1521,-0.148,-0.1401,-0.1394,-0.1391,-0.1391,-0.1391,-0.1391,-0.1391,-0.1391,-0.1391,-0.1391,-0.1391,-0.1391,-0.1391,-0.1391,-0.1391,-0.1391,-0.1391,-0.1391,-0.1391,-0.1391,-0.1391,-0.1391,-0.1391,-0.1391,-0.1391,-0.1391,-0.1391,-0.1391,-0.1391,-0.1391,-0.1391,-0.1391,-0.1391,-0.1391,-0.1391,-0.1391,-0.1391,-0.1391,-0.1419,-0.1397,-0.1385,-0.1353,-0.1322,-0.1295,-0.1318,-0.1304,-0.13,-0.1297,-0.1297,-0.1297,-0.1297,-0.1297,-0.1297,-0.1297,-0.1297,-0.1178,-0.0942,-0.0353,0.0392,0.0314,0.0,0.047,0.1099,0.1178,0.1257,0.1297,0.1336,0.1336,0.1375,0.1415,0.1493,0.1573,0.1573,0.1533,0.1415,0.1336,0.1336,0.1297,0.1297,0.1336,0.1336,0.1415,0.1689,0.2198,-0.3728,-0.4324,-0.5092,-0.4824,-0.3922,-0.3473,-0.2773,-0.1918,-0.1717,-0.1566,-0.1566,-0.1566,-0.1566,-0.1566,-0.1566,-0.1566,-0.1566,-0.1566,-0.1566,-0.1566,-0.1566,-0.1566,-0.1566,-0.1566,-0.1566,-0.1566,-0.1566,-0.16,-0.1571,-0.1538,-0.1504,-0.1478,-0.1405,-0.1394,-0.1391,-0.1391,-0.1391,-0.1391,-0.1391,-0.1391,-0.1391,-0.1391,-0.1391,-0.1391,-0.1391,-0.1391,-0.1391,-0.1391,-0.1391,-0.1391,-0.1391,-0.1391,-0.1391,-0.1391,-0.1391,-0.1391,-0.1391,-0.1391,-0.1391,-0.1391,-0.1391,-0.1391,-0.1391,-0.1391,-0.1391,-0.1391,-0.1391,-0.1391,-0.1391,-0.1418,-0.1392,-0.1323,-0.1298,-0.1305,-0.1321,-0.131,-0.13,-0.1299,-0.1297,-0.1297,-0.1297,-0.1297,-0.114,-0.114,-0.1258,-0.1258,-0.0746,-0.051,-0.0118,0.0471,0.0628,0.0628,0.0942,0.1218,0.1258,0.1297,0.1336,0.1415,0.1454,0.1493,0.1573,0.1651,0.1807,0.1651,0.1573,0.1454,0.1375,0.1336,0.1297,0.1297,0.1336,0.1453,0.1884,0.2314,0.2899,-0.2546,-0.2552,-0.2866,-0.314,-0.3371,-0.3272,-0.2572,-0.1717,-0.1566,-0.1566,-0.1566,-0.1566,-0.1566,-0.1566,-0.1566,-0.1566,-0.1566,-0.1566,-0.1566,-0.1566,-0.1566,-0.1566,-0.1566,-0.1566,-0.1566,-0.1566,-0.1566,-0.1564,-0.1598,-0.155,-0.1527,-0.1498,-0.1459,-0.1396,-0.1391,-0.1391,-0.1391,-0.1391,-0.1391,-0.1391,-0.1391,-0.1391,-0.1391,-0.1391,-0.1391,-0.1391,-0.1391,-0.1391,-0.1391,-0.1391,-0.1391,-0.1391,-0.1391,-0.1391,-0.1391,-0.1391,-0.1391,-0.1391,-0.1391,-0.1391,-0.1391,-0.1391,-0.1391,-0.1391,-0.1391,-0.1391,-0.1391,-0.1391,-0.139,-0.1418,-0.1327,-0.131,-0.1333,-0.1331,-0.1307,-0.13,-0.1297,-0.1297,-0.1297,-0.1297,-0.1297,-0.1297,-0.11,-0.0904,-0.1061,-0.114,-0.055,0.0,0.0431,0.0824,0.1059,0.1138,0.1374,0.1414,0.1454,0.1415,0.1336,0.1454,0.1533,0.165,0.1768,0.1962,0.2002,0.1846,0.1651,0.1573,0.1454,0.1336,0.1297,0.1297,0.1453,0.1649,0.2196,0.2976,0.3715,-0.1842,-0.1606,-0.1567,-0.2034,-0.2669,-0.2723,-0.2321,-0.1717,-0.1566,-0.1566,-0.1566,-0.1566,-0.1566,-0.1566,-0.1566,-0.1566,-0.1566,-0.1566,-0.1566,-0.1566,-0.1566,-0.1566,-0.1566,-0.1566,-0.1566,-0.1566,-0.1566,-0.1565,-0.156,-0.1554,-0.153,-0.1459,-0.1423,-0.1397,-0.1391,-0.1391,-0.1391,-0.1391,-0.1391,-0.1391,-0.1391,-0.1391,-0.1391,-0.1391,-0.1391,-0.1391,-0.1391,-0.1391,-0.1391,-0.1391,-0.1391,-0.1391,-0.1391,-0.1391,-0.1391,-0.1391,-0.1391,-0.1391,-0.1391,-0.1391,-0.1391,-0.1391,-0.1391,-0.1391,-0.1391,-0.1391,-0.1391,-0.1391,-0.1389,-0.1368,-0.1315,-0.1304,-0.132,-0.132,-0.1305,-0.1297,-0.1297,-0.1297,-0.1297,-0.1297,-0.1297,-0.1218,-0.0668,-0.0393,-0.0236,-0.0236,0.0275,0.0745,0.102,0.1412,0.1804,0.1805,0.1728,0.169,0.1612,0.1533,0.1493,0.1533,0.165,0.1806,0.1962,0.2157,0.2118,0.1886,0.173,0.1651,0.1533,0.1375,0.1336,0.1297,0.1727,0.2273,0.3249,0.4066,0.4805,-0.1546,-0.153,-0.1558,-0.1637,-0.1766,-0.1667,-0.1617,-0.1566,-0.1566,-0.1566,-0.1566,-0.1566,-0.1566,-0.1566,-0.1566,-0.1566,-0.1566,-0.1566,-0.1566,-0.1566,-0.1566,-0.1566,-0.1566,-0.1566,-0.1566,-0.1566,-0.1566,-0.1566,-0.1565,-0.1555,-0.1531,-0.1462,-0.1423,-0.1391,-0.1391,-0.1391,-0.1391,-0.1391,-0.1391,-0.1391,-0.1391,-0.1346,-0.1256,-0.1211,-0.1076,-0.0987,-0.1166,-0.1211,-0.1211,-0.1391,-0.1391,-0.1391,-0.1391,-0.1391,-0.1391,-0.1391,-0.1391,-0.1391,-0.1391,-0.1391,-0.1391,-0.1391,-0.1391,-0.1391,-0.1391,-0.1391,-0.1391,-0.1391,-0.139,-0.1362,-0.1329,-0.1302,-0.1311,-0.1319,-0.1303,-0.1297,-0.1297,-0.1297,-0.1297,-0.1061,-0.1061,-0.1021,-0.0353,0.0196,0.051,0.0785,0.1216,0.1529,0.1686,0.1882,0.2196,0.2158,0.2042,0.1924,0.1806,0.169,0.1651,0.1691,0.1768,0.1962,0.2119,0.2314,0.2198,0.1965,0.1808,0.173,0.1533,0.1336,0.1767,0.2275,0.2665,0.3287,0.4261,0.504,0.5619,-0.148,-0.1478,-0.1537,-0.157,-0.1562,-0.1566,-0.1566,-0.1566,-0.1566,-0.1566,-0.1566,-0.1566,-0.1566,-0.1566,-0.1566,-0.1566,-0.1566,-0.1566,-0.1566,-0.1566,-0.1566,-0.1566,-0.1566,-0.1566,-0.1566,-0.1566,-0.1566,-0.1566,-0.1566,-0.1555,-0.153,-0.1464,-0.142,-0.1394,-0.1391,-0.1391,-0.1391,-0.1391,-0.1391,-0.1391,-0.1346,-0.0987,-0.0718,-0.0762,-0.0404,-0.0359,-0.0673,-0.0718,-0.0852,-0.1166,-0.1211,-0.1256,-0.1256,-0.1256,-0.1301,-0.1346,-0.1391,-0.1391,-0.1391,-0.1391,-0.1391,-0.1391,-0.1391,-0.1391,-0.1391,-0.1391,-0.1391,-0.1391,-0.1391,-0.136,-0.1321,-0.1308,-0.132,-0.1315,-0.1297,-0.1297,-0.1297,-0.1297,-0.1218,-0.0746,-0.0589,0.0,0.0628,0.0941,0.1216,0.1373,0.1725,0.1921,0.2117,0.2195,0.2431,0.2353,0.2235,0.2118,0.2002,0.1885,0.1846,0.1923,0.2041,0.2157,0.2314,0.2431,0.2315,0.212,0.1925,0.1808,0.1885,0.2118,0.286,0.3405,0.3832,0.4297,0.5038,0.5657,0.6083,-0.1424,-0.1477,-0.1478,-0.1561,-0.1612,-0.1566,-0.1566,-0.1566,-0.1566,-0.1566,-0.1566,-0.1566,-0.1566,-0.1566,-0.1566,-0.1566,-0.1566,-0.1566,-0.1566,-0.1566,-0.1566,-0.1566,-0.1566,-0.1566,-0.1566,-0.1566,-0.1565,-0.1563,-0.1596,-0.1502,-0.1467,-0.1438,-0.1411,-0.1395,-0.1391,-0.1391,-0.1391,-0.1346,-0.1256,-0.1122,-0.1031,-0.0718,-0.0179,-0.0135,0.009,0.0448,0.0135,-0.009,-0.0224,-0.0583,-0.0718,-0.0718,-0.0718,-0.0718,-0.0807,-0.0942,-0.1076,-0.0897,-0.0673,-0.0942,-0.0942,-0.0987,-0.1211,-0.1391,-0.1391,-0.1391,-0.1391,-0.1391,-0.139,-0.1357,-0.1319,-0.1309,-0.128,-0.1275,-0.1258,-0.1258,-0.0943,-0.0904,-0.0668,-0.0236,0.0157,0.0824,0.1411,0.1724,0.196,0.2078,0.2195,0.2313,0.2431,0.247,0.251,0.247,0.2392,0.2275,0.2157,0.208,0.2079,0.2195,0.2234,0.2313,0.2392,0.247,0.2392,0.2354,0.2393,0.2472,0.2586,0.2976,0.3832,0.4572,0.5154,0.558,0.597,0.6318,0.6665,-0.1424,-0.1475,-0.1478,-0.1562,-0.1611,-0.1566,-0.1566,-0.1566,-0.1566,-0.1566,-0.1566,-0.1566,-0.1566,-0.1566,-0.1566,-0.1566,-0.1566,-0.1566,-0.1566,-0.1566,-0.1566,-0.1566,-0.1566,-0.1566,-0.1566,-0.1566,-0.1564,-0.1603,-0.1573,-0.1533,-0.1491,-0.141,-0.1397,-0.1391,-0.1391,-0.1391,-0.1346,-0.1122,-0.0852,-0.0762,-0.0673,0.009,0.0359,0.0448,0.0718,0.0942,0.0807,0.0718,0.0628,0.0538,0.0538,0.0583,0.0628,0.0673,0.0224,-0.0135,-0.0359,0.0,0.0224,-0.0179,-0.0269,-0.0404,-0.0807,-0.1166,-0.1391,-0.1391,-0.1391,-0.1387,-0.1383,-0.135,-0.1318,-0.1298,-0.1276,-0.1206,-0.1142,-0.0864,-0.0393,-0.0157,0.0079,0.0393,0.0707,0.1216,0.1686,0.2078,0.2273,0.2313,0.2353,0.2392,0.247,0.247,0.251,0.251,0.2431,0.2392,0.2314,0.2235,0.2235,0.2313,0.2313,0.2352,0.2431,0.2549,0.2549,0.2666,0.2978,0.3249,0.3558,0.4142,0.4919,0.5619,0.6086,0.6321,0.6595,0.6899,0.7246,-0.1425,-0.1477,-0.1478,-0.1561,-0.1562,-0.1566,-0.1566,-0.1566,-0.1566,-0.1566,-0.1566,-0.1566,-0.1566,-0.1566,-0.1566,-0.1566,-0.1566,-0.1566,-0.1566,-0.1566,-0.1566,-0.1566,-0.1566,-0.1566,-0.1566,-0.1566,-0.1612,-0.1596,-0.1564,-0.1523,-0.1478,-0.1397,-0.1391,-0.1391,-0.1346,-0.1391,-0.1031,-0.0673,-0.0359,-0.0269,0.0135,0.0942,0.1121,0.1256,0.1705,0.1795,0.157,0.148,0.1301,0.0897,0.0762,0.0718,0.0718,0.0718,0.0493,0.0448,0.0404,0.0493,0.0628,0.0493,0.0404,0.0359,0.0135,-0.0538,-0.0987,-0.1255,-0.1254,-0.1338,-0.1193,-0.1037,-0.1012,-0.1036,-0.0855,-0.0678,-0.055,-0.0275,0.0118,0.0432,0.0667,0.1137,0.1452,0.1687,0.2117,0.2234,0.2392,0.247,0.251,0.251,0.251,0.251,0.251,0.251,0.251,0.2431,0.2431,0.2392,0.2392,0.2431,0.2392,0.2431,0.2627,0.2744,0.2784,0.3173,0.3754,0.4258,0.4722,0.5306,0.5774,0.6282,0.6753,0.6988,0.718,0.7369,0.7518,-0.1424,-0.1475,-0.1478,-0.1561,-0.1611,-0.1566,-0.1566,-0.1566,-0.1566,-0.1566,-0.1566,-0.1566,-0.1566,-0.1566,-0.1566,-0.1566,-0.1566,-0.1566,-0.1566,-0.1566,-0.1566,-0.1566,-0.1566,-0.1566,-0.1566,-0.1564,-0.16,-0.1579,-0.1545,-0.1497,-0.1404,-0.1393,-0.1391,-0.1211,-0.1076,-0.0852,-0.0359,0.0045,0.0359,0.0359,0.0897,0.166,0.1974,0.2019,0.256,0.2515,0.2289,0.22,0.193,0.1615,0.157,0.157,0.148,0.1391,0.1436,0.1436,0.1256,0.1436,0.157,0.1301,0.1211,0.1076,0.0896,0.0267,-0.0134,-0.0356,-0.0844,-0.1149,-0.0829,-0.0602,-0.0671,-0.0696,-0.0321,0.0039,0.0197,0.0353,0.0628,0.0942,0.1372,0.1843,0.2156,0.2314,0.247,0.251,0.251,0.251,0.251,0.251,0.251,0.251,0.251,0.251,0.251,0.247,0.251,0.251,0.2549,0.251,0.247,0.2549,0.2784,0.3212,0.3522,0.4066,0.4688,0.5193,0.5657,0.597,0.6437,0.6868,0.7138,0.7253,0.7334,0.7407,0.7484,-0.1425,-0.1479,-0.1484,-0.1519,-0.1562,-0.1566,-0.1566,-0.1566,-0.1566,-0.1566,-0.1566,-0.1566,-0.1566,-0.1566,-0.1566,-0.1566,-0.1566,-0.1566,-0.1566,-0.1566,-0.1566,-0.1566,-0.1566,-0.1564,-0.1605,-0.1599,-0.1582,-0.1551,-0.1515,-0.1427,-0.1397,-0.1346,-0.1256,-0.0942,-0.0359,-0.0314,0.0269,0.1076,0.1076,0.0987,0.1346,0.2019,0.2604,0.2155,0.2515,0.283,0.283,0.2875,0.292,0.2875,0.283,0.2739,0.2515,0.2244,0.2379,0.2379,0.2109,0.22,0.2289,0.211,0.193,0.1659,0.1297,0.0974,0.0705,0.0309,-0.022,-0.052,-0.0256,-0.0126,-0.0124,-0.0041,0.0279,0.0551,0.0785,0.1059,0.1451,0.1647,0.1843,0.2234,0.2313,0.251,0.251,0.251,0.251,0.251,0.251,0.251,0.251,0.251,0.251,0.251,0.251,0.251,0.251,0.2549,0.2626,0.2626,0.2665,0.3134,0.3679,0.4068,0.4377,0.4882,0.5428,0.6051,0.6518,0.6714,0.683,0.7099,0.733,0.7442,0.7484,0.7484,0.7484,-0.1425,-0.1482,-0.1527,-0.1605,-0.1566,-0.1566,-0.1566,-0.1566,-0.1566,-0.1566,-0.1566,-0.1566,-0.1566,-0.1566,-0.1566,-0.1566,-0.1566,-0.1566,-0.1566,-0.1563,-0.1562,-0.1556,-0.1608,-0.159,-0.1584,-0.1573,-0.1551,-0.1474,-0.1396,-0.1319,-0.1121,-0.0718,-0.0628,-0.0269,0.0404,0.0448,0.0942,0.1885,0.175,0.1795,0.2244,0.247,0.2739,0.2649,0.2875,0.292,0.292,0.292,0.292,0.2875,0.2875,0.2875,0.2875,0.2694,0.2739,0.2785,0.2694,0.2739,0.2739,0.2693,0.2556,0.254,0.226,0.1928,0.1526,0.0962,0.0564,0.034,0.0293,0.0412,0.0487,0.068,0.087,0.1142,0.1372,0.1764,0.2195,0.2234,0.2313,0.2392,0.247,0.251,0.251,0.251,0.251,0.251,0.251,0.251,0.251,0.251,0.251,0.251,0.251,0.251,0.251,0.2588,0.2704,0.3093,0.3327,0.391,0.4574,0.5002,0.5389,0.5664,0.6131,0.6598,0.6911,0.7026,0.718,0.7334,0.7407,0.748,0.7518,0.7484,0.7518,-0.1463,-0.1512,-0.1571,-0.1605,-0.1565,-0.1566,-0.1566,-0.1566,-0.1566,-0.1566,-0.1566,-0.1566,-0.1566,-0.1566,-0.1566,-0.1565,-0.1565,-0.1566,-0.1605,-0.16,-0.1594,-0.1583,-0.1574,-0.1561,-0.1555,-0.1544,-0.1472,-0.1398,-0.1189,-0.0905,-0.0628,-0.0045,0.0134,0.0493,0.1121,0.1256,0.157,0.2289,0.2289,0.2558,0.2964,0.292,0.292,0.292,0.292,0.292,0.292,0.292,0.292,0.292,0.292,0.292,0.292,0.2875,0.2875,0.2875,0.2875,0.292,0.292,0.2914,0.2904,0.2832,0.2809,0.2302,0.2228,0.1681,0.1134,0.0949,0.1443,0.1587,0.1321,0.1381,0.1654,0.1923,0.1999,0.2195,0.2353,0.2392,0.2431,0.247,0.251,0.251,0.251,0.251,0.251,0.251,0.251,0.251,0.251,0.251,0.251,0.251,0.251,0.251,0.251,0.2665,0.2821,0.3287,0.391,0.4569,0.5231,0.5896,0.6405,0.6483,0.6637,0.6834,0.7103,0.7223,0.7334,0.7446,0.748,0.7518,0.7518,0.7518,0.7518,-0.1453,-0.1487,-0.1595,-0.1586,-0.161,-0.1565,-0.1566,-0.1566,-0.1566,-0.1566,-0.1564,-0.1611,-0.1562,-0.1566,-0.1566,-0.1564,-0.161,-0.1603,-0.159,-0.1572,-0.1566,-0.1558,-0.1494,-0.1525,-0.1517,-0.1505,-0.1485,-0.1098,-0.0721,-0.0448,0.0045,0.0672,0.1121,0.1389,0.1883,0.2198,0.2556,0.3005,0.3139,0.3096,0.3097,0.2964,0.292,0.292,0.292,0.292,0.292,0.292,0.292,0.292,0.292,0.292,0.292,0.292,0.292,0.292,0.292,0.292,0.2917,0.2858,0.283,0.28,0.2779,0.2719,0.2587,0.2273,0.1703,0.1781,0.2264,0.2333,0.2056,0.2002,0.2275,0.2431,0.2431,0.247,0.247,0.251,0.251,0.251,0.251,0.251,0.251,0.251,0.251,0.251,0.251,0.251,0.251,0.251,0.251,0.251,0.251,0.251,0.251,0.286,0.3132,0.391,0.4611,0.5231,0.5851,0.6437,0.6868,0.7065,0.7219,0.718,0.7257,0.7373,0.7446,0.7518,0.7518,0.7518,0.7518,0.7518,0.7518,-0.1453,-0.1486,-0.1546,-0.1575,-0.1584,-0.1605,-0.1566,-0.1566,-0.1566,-0.1566,-0.1609,-0.1592,-0.1592,-0.1566,-0.1566,-0.1606,-0.1581,-0.1579,-0.1561,-0.1538,-0.1535,-0.153,-0.147,-0.1447,-0.1474,-0.1325,-0.118,-0.1126,0.0,0.0358,0.0761,0.1657,0.2505,0.2998,0.3626,0.3717,0.3673,0.3853,0.3898,0.3853,0.3676,0.3454,0.2964,0.292,0.292,0.292,0.292,0.292,0.292,0.292,0.2964,0.3009,0.2964,0.3009,0.3009,0.2964,0.2964,0.2964,0.2957,0.2879,0.2842,0.2768,0.273,0.265,0.2544,0.2512,0.2189,0.2182,0.2458,0.2458,0.2314,0.2314,0.247,0.247,0.247,0.247,0.251,0.251,0.251,0.251,0.251,0.251,0.251,0.251,0.251,0.251,0.251,0.251,0.251,0.251,0.251,0.2549,0.2549,0.251,0.251,0.3249,0.3715,0.4494,0.5312,0.6009,0.6553,0.6907,0.7257,0.7334,0.7334,0.7296,0.7369,0.7446,0.7484,0.7518,0.7518,0.7518,0.7518,0.7518,0.7518]}]]